<?xml version="1.0" encoding="UTF-8" standalone="no" ?>
<gpx xmlns="http://www.topografix.com/GPX/1/1" xmlns:xsi="http://www.w3.org/2001/XMLSchema-instance" xsi:schemaLocation="http://www.topografix.com/GPX/1/1 http://www.topografix.com/GPX/1/1/gpx.xsd" version="1.1" creator="VisuGPX - https://www.visugpx.com">
  <metadata>
    <name>D4. Pamiers-Génos</name>
    <desc><![CDATA[Randonnée sur le GR®78, Voie du Piémont, à travers l'Ariège et les Hautes-Pyrénées de Pamiers à Génos. Gîte d'étape, Maison d'hôtes, Chambres d'hôtes, Hôtel, Camping, Refuge, Auberge.]]></desc>
  </metadata>
  <trk>
    <name><![CDATA[GR®78 De Pamiers (Ariège) à Génos (Hautes-Pyrénées) (2021)]]></name>
    <desc><![CDATA[Randonnée sur le GR®78, Voie du Piémont, à travers l'Ariège et les Hautes-Pyrénées de Pamiers à Génos. Gîte d'étape, Maison d'hôtes, Chambres d'hôtes, Hôtel, Camping, Refuge, Auberge.]]></desc>
    <extensions>
      <line xmlns="http://www.topografix.com/GPX/gpx_style/0/2">
        <color>0000FF</color>
        <width>4</width>
      </line>
    </extensions>
    <trkseg>
      <trkpt lat="43.11631" lon="1.61142">
        <ele>290.9</ele>
      </trkpt>
      <trkpt lat="43.11621" lon="1.61138">
        <ele>291.4</ele>
      </trkpt>
      <trkpt lat="43.11635" lon="1.61105">
        <ele>290.3</ele>
      </trkpt>
      <trkpt lat="43.11607" lon="1.61083">
        <ele>291.1</ele>
      </trkpt>
      <trkpt lat="43.11619" lon="1.61035">
        <ele>289.8</ele>
      </trkpt>
      <trkpt lat="43.11621" lon="1.61026">
        <ele>289.6</ele>
      </trkpt>
      <trkpt lat="43.11619" lon="1.61021">
        <ele>289.5</ele>
      </trkpt>
      <trkpt lat="43.11609" lon="1.61013">
        <ele>289.6</ele>
      </trkpt>
      <trkpt lat="43.11603" lon="1.61014">
        <ele>289.8</ele>
      </trkpt>
      <trkpt lat="43.11597" lon="1.61017">
        <ele>290</ele>
      </trkpt>
      <trkpt lat="43.11595" lon="1.61016">
        <ele>289.973</ele>
        <time>2020-04-15T22:00:08Z</time>
      </trkpt>
      <trkpt lat="43.1144" lon="1.60921">
        <ele>293.885</ele>
        <time>2019-12-09T09:26:01Z</time>
      </trkpt>
      <trkpt lat="43.11449" lon="1.60882">
        <ele>294.613</ele>
        <time>2019-12-09T09:26:21Z</time>
      </trkpt>
      <trkpt lat="43.11443" lon="1.60868">
        <ele>295.108</ele>
        <time>2019-12-09T09:26:41Z</time>
      </trkpt>
      <trkpt lat="43.11434" lon="1.60858">
        <ele>295.843</ele>
        <time>2019-12-09T09:27:01Z</time>
      </trkpt>
      <trkpt lat="43.11426" lon="1.60814">
        <ele>297.882</ele>
        <time>2019-12-09T09:27:21Z</time>
      </trkpt>
      <trkpt lat="43.11343" lon="1.60803">
        <ele>300.488</ele>
        <time>2019-12-09T09:27:41Z</time>
      </trkpt>
      <trkpt lat="43.11337" lon="1.60794">
        <ele>300.586</ele>
        <time>2019-12-09T09:28:01Z</time>
      </trkpt>
      <trkpt lat="43.11323" lon="1.60804">
        <ele>295.567</ele>
        <time>2019-12-09T09:28:21Z</time>
      </trkpt>
      <trkpt lat="43.11315" lon="1.60852">
        <ele>294.915</ele>
        <time>2019-12-09T09:28:41Z</time>
      </trkpt>
      <trkpt lat="43.11263" lon="1.60861">
        <ele>288.666</ele>
        <time>2021-02-05T22:15:11Z</time>
      </trkpt>
      <trkpt lat="43.11266" lon="1.60739">
        <ele>287.741</ele>
        <time>2021-02-05T22:15:31Z</time>
      </trkpt>
      <trkpt lat="43.11285" lon="1.60681">
        <ele>289.883</ele>
        <time>2019-12-09T09:29:41Z</time>
      </trkpt>
      <trkpt lat="43.11307" lon="1.60646">
        <ele>287.425</ele>
        <time>2019-12-09T09:30:01Z</time>
      </trkpt>
      <trkpt lat="43.11358" lon="1.606">
        <ele>288.517</ele>
        <time>2019-12-09T09:30:21Z</time>
      </trkpt>
      <trkpt lat="43.11357" lon="1.60578">
        <ele>284.108</ele>
        <time>2019-12-09T09:30:41Z</time>
      </trkpt>
      <trkpt lat="43.11351" lon="1.60569">
        <ele>284.094</ele>
        <time>2019-12-09T09:31:01Z</time>
      </trkpt>
      <trkpt lat="43.11283" lon="1.60368">
        <ele>283.873</ele>
        <time>2021-02-05T22:17:31Z</time>
      </trkpt>
      <trkpt lat="43.11255" lon="1.6038">
        <ele>284.919</ele>
        <time>2021-02-05T22:17:51Z</time>
      </trkpt>
      <trkpt lat="43.11218" lon="1.60365">
        <ele>287.477</ele>
        <time>2021-02-05T22:18:11Z</time>
      </trkpt>
      <trkpt lat="43.11188" lon="1.60341">
        <ele>291.058</ele>
        <time>2021-02-05T22:18:31Z</time>
      </trkpt>
      <trkpt lat="43.11155" lon="1.60344">
        <ele>291.236</ele>
        <time>2021-02-05T22:18:51Z</time>
      </trkpt>
      <trkpt lat="43.11126" lon="1.60303">
        <ele>292.687</ele>
        <time>2021-02-05T22:19:11Z</time>
      </trkpt>
      <trkpt lat="43.11096" lon="1.60237">
        <ele>297.342</ele>
        <time>2021-02-05T22:19:31Z</time>
      </trkpt>
      <trkpt lat="43.11065" lon="1.60204">
        <ele>300.838</ele>
        <time>2021-02-05T22:19:51Z</time>
      </trkpt>
      <trkpt lat="43.11049" lon="1.60171">
        <ele>305.17</ele>
        <time>2021-02-05T22:20:11Z</time>
      </trkpt>
      <trkpt lat="43.11023" lon="1.60147">
        <ele>309.117</ele>
        <time>2019-12-09T09:33:01Z</time>
      </trkpt>
      <trkpt lat="43.11001" lon="1.60128">
        <ele>310.508</ele>
        <time>2019-12-09T09:33:21Z</time>
      </trkpt>
      <trkpt lat="43.10949" lon="1.60134">
        <ele>304.379</ele>
        <time>2019-12-09T09:33:41Z</time>
      </trkpt>
      <trkpt lat="43.10902" lon="1.60152">
        <ele>300.958</ele>
        <time>2021-02-05T22:21:31Z</time>
      </trkpt>
      <trkpt lat="43.10879" lon="1.60192">
        <ele>297.554</ele>
        <time>2021-02-05T22:21:51Z</time>
      </trkpt>
      <trkpt lat="43.10854" lon="1.6023">
        <ele>294.512</ele>
        <time>2021-02-05T22:22:11Z</time>
      </trkpt>
      <trkpt lat="43.10836" lon="1.60274">
        <ele>290.343</ele>
        <time>2021-02-05T22:22:31Z</time>
      </trkpt>
      <trkpt lat="43.10781" lon="1.60296">
        <ele>290.561</ele>
        <time>2021-02-05T22:22:51Z</time>
      </trkpt>
      <trkpt lat="43.1072" lon="1.60333">
        <ele>289.692</ele>
        <time>2021-02-05T22:23:11Z</time>
      </trkpt>
      <trkpt lat="43.10597" lon="1.60366">
        <ele>297.617</ele>
        <time>2019-12-09T09:36:21Z</time>
      </trkpt>
      <trkpt lat="43.10567" lon="1.60443">
        <ele>298.727</ele>
        <time>2019-12-09T09:36:41Z</time>
      </trkpt>
      <trkpt lat="43.10534" lon="1.60491">
        <ele>299.668</ele>
        <time>2019-12-09T09:37:01Z</time>
      </trkpt>
      <trkpt lat="43.10528" lon="1.60594">
        <ele>291.014</ele>
        <time>2019-12-09T09:37:21Z</time>
      </trkpt>
      <trkpt lat="43.10501" lon="1.60694">
        <ele>288.208</ele>
        <time>2019-12-09T09:37:41Z</time>
      </trkpt>
      <trkpt lat="43.10493" lon="1.60776">
        <ele>292.088</ele>
        <time>2019-12-09T09:38:01Z</time>
      </trkpt>
      <trkpt lat="43.10487" lon="1.60853">
        <ele>292.387</ele>
        <time>2019-12-09T09:38:21Z</time>
      </trkpt>
      <trkpt lat="43.10501" lon="1.61074">
        <ele>293.023</ele>
        <time>2019-12-09T09:38:41Z</time>
      </trkpt>
      <trkpt lat="43.10488" lon="1.61113">
        <ele>292.771</ele>
        <time>2019-12-09T09:39:01Z</time>
      </trkpt>
      <trkpt lat="43.10485" lon="1.61273">
        <ele>293.492</ele>
        <time>2019-12-09T09:39:21Z</time>
      </trkpt>
      <trkpt lat="43.10434" lon="1.61318">
        <ele>292.32</ele>
        <time>2019-12-09T09:39:41Z</time>
      </trkpt>
      <trkpt lat="43.10398" lon="1.6138">
        <ele>291.281</ele>
        <time>2019-12-09T09:40:01Z</time>
      </trkpt>
      <trkpt lat="43.10353" lon="1.61316">
        <ele>291.066</ele>
        <time>2019-12-09T09:40:21Z</time>
      </trkpt>
      <trkpt lat="43.10292" lon="1.61244">
        <ele>291.038</ele>
        <time>2019-12-09T09:40:41Z</time>
      </trkpt>
      <trkpt lat="43.10068" lon="1.61072">
        <ele>308.17</ele>
        <time>2019-12-09T09:41:01Z</time>
      </trkpt>
      <trkpt lat="43.10039" lon="1.6106">
        <ele>313.5</ele>
      </trkpt>
      <trkpt lat="43.10031" lon="1.61053">
        <ele>317</ele>
      </trkpt>
      <trkpt lat="43.10022" lon="1.61038">
        <ele>322.6</ele>
      </trkpt>
      <trkpt lat="43.10031" lon="1.60996">
        <ele>328.1</ele>
      </trkpt>
      <trkpt lat="43.10038" lon="1.60951">
        <ele>331.5</ele>
      </trkpt>
      <trkpt lat="43.10028" lon="1.60884">
        <ele>343.1</ele>
      </trkpt>
      <trkpt lat="43.10019" lon="1.60825">
        <ele>353</ele>
      </trkpt>
      <trkpt lat="43.09992" lon="1.60842">
        <ele>360.8</ele>
      </trkpt>
      <trkpt lat="43.09972" lon="1.60856">
        <ele>363.8</ele>
      </trkpt>
      <trkpt lat="43.09967" lon="1.60857">
        <ele>364.9</ele>
      </trkpt>
      <trkpt lat="43.09956" lon="1.60849">
        <ele>368.4</ele>
      </trkpt>
      <trkpt lat="43.09949" lon="1.60847">
        <ele>370.2</ele>
      </trkpt>
      <trkpt lat="43.09946" lon="1.60851">
        <ele>370.5</ele>
      </trkpt>
      <trkpt lat="43.09946" lon="1.60887">
        <ele>366.7</ele>
      </trkpt>
      <trkpt lat="43.09944" lon="1.60896">
        <ele>366.3</ele>
      </trkpt>
      <trkpt lat="43.09939" lon="1.60897">
        <ele>367.4</ele>
      </trkpt>
      <trkpt lat="43.09924" lon="1.60876">
        <ele>373.1</ele>
      </trkpt>
      <trkpt lat="43.09906" lon="1.60884">
        <ele>375.3</ele>
      </trkpt>
      <trkpt lat="43.09894" lon="1.60878">
        <ele>377.1</ele>
      </trkpt>
      <trkpt lat="43.09835" lon="1.60864">
        <ele>385.1</ele>
      </trkpt>
      <trkpt lat="43.09827" lon="1.60869">
        <ele>386.4</ele>
      </trkpt>
      <trkpt lat="43.09813" lon="1.60897">
        <ele>386.9</ele>
      </trkpt>
      <trkpt lat="43.09809" lon="1.60948">
        <ele>382.9</ele>
      </trkpt>
      <trkpt lat="43.09791" lon="1.60968">
        <ele>386.4</ele>
      </trkpt>
      <trkpt lat="43.09765" lon="1.60962">
        <ele>394.4</ele>
      </trkpt>
      <trkpt lat="43.09757" lon="1.60971">
        <ele>396</ele>
      </trkpt>
      <trkpt lat="43.0975" lon="1.60975">
        <ele>397.8</ele>
      </trkpt>
      <trkpt lat="43.09746" lon="1.6097">
        <ele>398.5</ele>
      </trkpt>
      <trkpt lat="43.09743" lon="1.60941">
        <ele>401</ele>
      </trkpt>
      <trkpt lat="43.09734" lon="1.60932">
        <ele>402.7</ele>
      </trkpt>
      <trkpt lat="43.09716" lon="1.60926">
        <ele>405.2</ele>
      </trkpt>
      <trkpt lat="43.09694" lon="1.60915">
        <ele>408.9</ele>
      </trkpt>
      <trkpt lat="43.09682" lon="1.60892">
        <ele>413</ele>
      </trkpt>
      <trkpt lat="43.09672" lon="1.60886">
        <ele>415</ele>
      </trkpt>
      <trkpt lat="43.09648" lon="1.6089">
        <ele>413.9</ele>
      </trkpt>
      <trkpt lat="43.0963" lon="1.60891">
        <ele>412.5</ele>
      </trkpt>
      <trkpt lat="43.09622" lon="1.60879">
        <ele>413.9</ele>
      </trkpt>
      <trkpt lat="43.09618" lon="1.6086">
        <ele>416.9</ele>
      </trkpt>
      <trkpt lat="43.09616" lon="1.60832">
        <ele>421.6</ele>
      </trkpt>
      <trkpt lat="43.09622" lon="1.60813">
        <ele>425.1</ele>
      </trkpt>
      <trkpt lat="43.09632" lon="1.60795">
        <ele>428</ele>
      </trkpt>
      <trkpt lat="43.09636" lon="1.60775">
        <ele>431.1</ele>
      </trkpt>
      <trkpt lat="43.09637" lon="1.60758">
        <ele>433.8</ele>
      </trkpt>
      <trkpt lat="43.09637" lon="1.60755">
        <ele>434.3</ele>
      </trkpt>
      <trkpt lat="43.09635" lon="1.60729">
        <ele>437.4</ele>
      </trkpt>
      <trkpt lat="43.09627" lon="1.60698">
        <ele>441.4</ele>
      </trkpt>
      <trkpt lat="43.0962" lon="1.6068">
        <ele>444.1</ele>
      </trkpt>
      <trkpt lat="43.0961" lon="1.60675">
        <ele>445.8</ele>
      </trkpt>
      <trkpt lat="43.09594" lon="1.60666">
        <ele>448.8</ele>
      </trkpt>
      <trkpt lat="43.09586" lon="1.60667">
        <ele>449.6</ele>
      </trkpt>
      <trkpt lat="43.09575" lon="1.60667">
        <ele>450</ele>
      </trkpt>
      <trkpt lat="43.09561" lon="1.60665">
        <ele>450.317</ele>
        <time>2019-12-09T09:50:41Z</time>
      </trkpt>
      <trkpt lat="43.09536" lon="1.60645">
        <ele>450.308</ele>
        <time>2019-12-09T09:51:01Z</time>
      </trkpt>
      <trkpt lat="43.0949" lon="1.60635">
        <ele>448.138</ele>
        <time>2019-12-09T09:51:21Z</time>
      </trkpt>
      <trkpt lat="43.0946" lon="1.60587">
        <ele>448.697</ele>
        <time>2019-12-09T09:51:41Z</time>
      </trkpt>
      <trkpt lat="43.09398" lon="1.60529">
        <ele>449.283</ele>
        <time>2019-12-09T09:52:01Z</time>
      </trkpt>
      <trkpt lat="43.09389" lon="1.60457">
        <ele>451.531</ele>
        <time>2019-12-09T09:52:21Z</time>
      </trkpt>
      <trkpt lat="43.09366" lon="1.60409">
        <ele>452.392</ele>
        <time>2019-12-09T09:52:41Z</time>
      </trkpt>
      <trkpt lat="43.09248" lon="1.60347">
        <ele>444.53</ele>
        <time>2019-12-09T09:53:01Z</time>
      </trkpt>
      <trkpt lat="43.09164" lon="1.60263">
        <ele>442.471</ele>
        <time>2019-12-09T09:53:21Z</time>
      </trkpt>
      <trkpt lat="43.09071" lon="1.60223">
        <ele>441.486</ele>
        <time>2019-12-09T09:53:41Z</time>
      </trkpt>
      <trkpt lat="43.09033" lon="1.60181">
        <ele>441.399</ele>
        <time>2019-12-09T09:54:01Z</time>
      </trkpt>
      <trkpt lat="43.09003" lon="1.60115">
        <ele>446.707</ele>
        <time>2019-12-09T09:54:21Z</time>
      </trkpt>
      <trkpt lat="43.09002" lon="1.60027">
        <ele>451.727</ele>
        <time>2019-12-09T09:54:41Z</time>
      </trkpt>
      <trkpt lat="43.0899" lon="1.59971">
        <ele>458.608</ele>
        <time>2019-12-09T09:55:01Z</time>
      </trkpt>
      <trkpt lat="43.08929" lon="1.59991">
        <ele>461.735</ele>
        <time>2019-12-09T09:55:21Z</time>
      </trkpt>
      <trkpt lat="43.08875" lon="1.59989">
        <ele>461.054</ele>
        <time>2019-12-09T09:55:41Z</time>
      </trkpt>
      <trkpt lat="43.08781" lon="1.59935">
        <ele>464.19</ele>
        <time>2019-12-09T09:56:01Z</time>
      </trkpt>
      <trkpt lat="43.08711" lon="1.59949">
        <ele>466.648</ele>
        <time>2019-12-09T09:56:21Z</time>
      </trkpt>
      <trkpt lat="43.08623" lon="1.59941">
        <ele>467.699</ele>
        <time>2019-12-09T09:56:41Z</time>
      </trkpt>
      <trkpt lat="43.08666" lon="1.59901">
        <ele>470.847</ele>
        <time>2019-12-09T09:57:01Z</time>
      </trkpt>
      <trkpt lat="43.08691" lon="1.59516">
        <ele>457.458</ele>
        <time>2019-12-09T09:57:21Z</time>
      </trkpt>
      <trkpt lat="43.08664" lon="1.5941">
        <ele>448.183</ele>
        <time>2019-12-09T09:57:41Z</time>
      </trkpt>
      <trkpt lat="43.08636" lon="1.59378">
        <ele>443.059</ele>
        <time>2019-12-09T09:58:01Z</time>
      </trkpt>
      <trkpt lat="43.08622" lon="1.59288">
        <ele>437.303</ele>
        <time>2019-12-09T09:58:21Z</time>
      </trkpt>
      <trkpt lat="43.08626" lon="1.59198">
        <ele>432.023</ele>
        <time>2019-12-09T09:58:41Z</time>
      </trkpt>
      <trkpt lat="43.08663" lon="1.5908">
        <ele>427.108</ele>
        <time>2019-12-09T09:59:01Z</time>
      </trkpt>
      <trkpt lat="43.08666" lon="1.58992">
        <ele>424.381</ele>
        <time>2019-12-09T09:59:21Z</time>
      </trkpt>
      <trkpt lat="43.08748" lon="1.58711">
        <ele>410.25</ele>
        <time>2019-12-09T09:59:41Z</time>
      </trkpt>
      <trkpt lat="43.08753" lon="1.58639">
        <ele>406.976</ele>
        <time>2019-12-09T10:00:01Z</time>
      </trkpt>
      <trkpt lat="43.08784" lon="1.58557">
        <ele>405.654</ele>
        <time>2019-12-09T10:00:21Z</time>
      </trkpt>
      <trkpt lat="43.08805" lon="1.58467">
        <ele>407.925</ele>
        <time>2019-12-09T10:00:41Z</time>
      </trkpt>
      <trkpt lat="43.08835" lon="1.58385">
        <ele>406.513</ele>
        <time>2019-12-09T10:01:01Z</time>
      </trkpt>
      <trkpt lat="43.08859" lon="1.58261">
        <ele>404.484</ele>
        <time>2019-12-09T10:01:21Z</time>
      </trkpt>
      <trkpt lat="43.08952" lon="1.58173">
        <ele>401.469</ele>
        <time>2019-12-09T10:01:41Z</time>
      </trkpt>
      <trkpt lat="43.09006" lon="1.58019">
        <ele>404.397</ele>
        <time>2019-12-09T10:02:01Z</time>
      </trkpt>
      <trkpt lat="43.09015" lon="1.57969">
        <ele>404.123</ele>
        <time>2019-12-09T10:02:21Z</time>
      </trkpt>
      <trkpt lat="43.09033" lon="1.57776">
        <ele>395.725</ele>
        <time>2019-12-09T10:02:41Z</time>
      </trkpt>
      <trkpt lat="43.09101" lon="1.5762">
        <ele>395.808</ele>
        <time>2019-12-09T10:03:01Z</time>
      </trkpt>
      <trkpt lat="43.09103" lon="1.5754">
        <ele>391.665</ele>
        <time>2019-12-09T10:03:21Z</time>
      </trkpt>
      <trkpt lat="43.09096" lon="1.57478">
        <ele>388.294</ele>
        <time>2019-12-09T10:03:41Z</time>
      </trkpt>
      <trkpt lat="43.09112" lon="1.57282">
        <ele>385.98</ele>
        <time>2019-12-09T10:04:01Z</time>
      </trkpt>
      <trkpt lat="43.09103" lon="1.57256">
        <ele>386.078</ele>
        <time>2019-12-09T10:04:21Z</time>
      </trkpt>
      <trkpt lat="43.09125" lon="1.5712">
        <ele>386.259</ele>
        <time>2019-12-09T10:04:41Z</time>
      </trkpt>
      <trkpt lat="43.09112" lon="1.56894">
        <ele>376.957</ele>
        <time>2019-12-09T10:05:01Z</time>
      </trkpt>
      <trkpt lat="43.09088" lon="1.56789">
        <ele>374.798</ele>
        <time>2019-12-09T10:05:21Z</time>
      </trkpt>
      <trkpt lat="43.09066" lon="1.56657">
        <ele>366.253</ele>
        <time>2019-12-09T10:05:41Z</time>
      </trkpt>
      <trkpt lat="43.09103" lon="1.56537">
        <ele>356.332</ele>
        <time>2019-12-09T10:06:01Z</time>
      </trkpt>
      <trkpt lat="43.09163" lon="1.56525">
        <ele>355.692</ele>
        <time>2019-12-09T10:06:21Z</time>
      </trkpt>
      <trkpt lat="43.09177" lon="1.56463">
        <ele>348.211</ele>
        <time>2019-12-09T10:06:41Z</time>
      </trkpt>
      <trkpt lat="43.09237" lon="1.56375">
        <ele>340.808</ele>
        <time>2019-12-09T10:07:01Z</time>
      </trkpt>
      <trkpt lat="43.09349" lon="1.56323">
        <ele>328.239</ele>
        <time>2019-12-09T10:07:21Z</time>
      </trkpt>
      <trkpt lat="43.09392" lon="1.56269">
        <ele>322.858</ele>
        <time>2019-12-09T10:07:41Z</time>
      </trkpt>
      <trkpt lat="43.09473" lon="1.56211">
        <ele>313.774</ele>
        <time>2019-12-09T10:08:01Z</time>
      </trkpt>
      <trkpt lat="43.09527" lon="1.56239">
        <ele>313.482</ele>
        <time>2019-12-09T10:08:21Z</time>
      </trkpt>
      <trkpt lat="43.09534" lon="1.56223">
        <ele>312.933</ele>
        <time>2019-12-09T10:08:41Z</time>
      </trkpt>
      <trkpt lat="43.09547" lon="1.56117">
        <ele>309.191</ele>
        <time>2019-12-09T10:09:01Z</time>
      </trkpt>
      <trkpt lat="43.09582" lon="1.56041">
        <ele>308.092</ele>
        <time>2019-12-09T10:09:21Z</time>
      </trkpt>
      <trkpt lat="43.09571" lon="1.56007">
        <ele>308.047</ele>
        <time>2019-12-09T10:09:41Z</time>
      </trkpt>
      <trkpt lat="43.09574" lon="1.55886">
        <ele>306.971</ele>
        <time>2019-12-09T10:10:01Z</time>
      </trkpt>
      <trkpt lat="43.0955" lon="1.55738">
        <ele>308.541</ele>
        <time>2019-12-09T10:10:21Z</time>
      </trkpt>
      <trkpt lat="43.0952" lon="1.55638">
        <ele>312.315</ele>
        <time>2019-12-09T10:10:41Z</time>
      </trkpt>
      <trkpt lat="43.0947" lon="1.55578">
        <ele>316.608</ele>
        <time>2019-12-09T10:11:01Z</time>
      </trkpt>
      <trkpt lat="43.09322" lon="1.55232">
        <ele>330.323</ele>
        <time>2019-12-09T10:11:21Z</time>
      </trkpt>
      <trkpt lat="43.09028" lon="1.55356">
        <ele>327.842</ele>
        <time>2019-12-09T10:11:41Z</time>
      </trkpt>
      <trkpt lat="43.08898" lon="1.55208">
        <ele>331.858</ele>
        <time>2019-12-09T10:12:01Z</time>
      </trkpt>
      <trkpt lat="43.08661" lon="1.54917">
        <ele>337.426</ele>
        <time>2019-12-09T10:12:21Z</time>
      </trkpt>
      <trkpt lat="43.0848" lon="1.54727">
        <ele>338.867</ele>
        <time>2019-12-09T10:12:41Z</time>
      </trkpt>
      <trkpt lat="43.08408" lon="1.54615">
        <ele>341.455</ele>
        <time>2019-12-09T10:13:01Z</time>
      </trkpt>
      <trkpt lat="43.08338" lon="1.54431">
        <ele>344.576</ele>
        <time>2019-12-09T10:13:21Z</time>
      </trkpt>
      <trkpt lat="43.08316" lon="1.54339">
        <ele>347.031</ele>
        <time>2019-12-09T10:13:41Z</time>
      </trkpt>
      <trkpt lat="43.08275" lon="1.54279">
        <ele>348.638</ele>
        <time>2019-12-09T10:14:01Z</time>
      </trkpt>
      <trkpt lat="43.08196" lon="1.54081">
        <ele>357.17</ele>
        <time>2019-12-09T10:14:21Z</time>
      </trkpt>
      <trkpt lat="43.08224" lon="1.54023">
        <ele>359.117</ele>
        <time>2019-12-09T10:14:41Z</time>
      </trkpt>
      <trkpt lat="43.08217" lon="1.53968">
        <ele>363.508</ele>
        <time>2019-12-09T10:15:01Z</time>
      </trkpt>
      <trkpt lat="43.0816" lon="1.53942">
        <ele>362.699</ele>
        <time>2019-12-09T10:15:21Z</time>
      </trkpt>
      <trkpt lat="43.08084" lon="1.53852">
        <ele>371.598</ele>
        <time>2019-12-09T10:15:41Z</time>
      </trkpt>
      <trkpt lat="43.07996" lon="1.53774">
        <ele>374.754</ele>
        <time>2019-12-09T10:16:01Z</time>
      </trkpt>
      <trkpt lat="43.07977" lon="1.53724">
        <ele>380.842</ele>
        <time>2019-12-09T10:16:21Z</time>
      </trkpt>
      <trkpt lat="43.07949" lon="1.53606">
        <ele>388.633</ele>
        <time>2019-12-09T10:16:41Z</time>
      </trkpt>
      <trkpt lat="43.07901" lon="1.53494">
        <ele>398.761</ele>
        <time>2019-12-09T10:17:01Z</time>
      </trkpt>
      <trkpt lat="43.07844" lon="1.53414">
        <ele>407.852</ele>
        <time>2019-12-09T10:17:21Z</time>
      </trkpt>
      <trkpt lat="43.07781" lon="1.53326">
        <ele>419.427</ele>
        <time>2019-12-09T10:17:41Z</time>
      </trkpt>
      <trkpt lat="43.07793" lon="1.53314">
        <ele>420.664</ele>
        <time>2019-12-09T10:18:01Z</time>
      </trkpt>
      <trkpt lat="43.07834" lon="1.53332">
        <ele>418.706</ele>
        <time>2019-12-09T10:18:21Z</time>
      </trkpt>
      <trkpt lat="43.07873" lon="1.5338">
        <ele>416.016</ele>
        <time>2019-12-09T10:18:41Z</time>
      </trkpt>
      <trkpt lat="43.07945" lon="1.53424">
        <ele>414.508</ele>
        <time>2019-12-09T10:19:01Z</time>
      </trkpt>
      <trkpt lat="43.07987" lon="1.53434">
        <ele>417.922</ele>
        <time>2019-12-09T10:19:21Z</time>
      </trkpt>
      <trkpt lat="43.08014" lon="1.5347">
        <ele>416.151</ele>
        <time>2019-12-09T10:19:41Z</time>
      </trkpt>
      <trkpt lat="43.08025" lon="1.53454">
        <ele>417.417</ele>
        <time>2019-12-09T10:20:01Z</time>
      </trkpt>
      <trkpt lat="43.07873" lon="1.5323">
        <ele>437.725</ele>
        <time>2019-12-09T10:20:21Z</time>
      </trkpt>
      <trkpt lat="43.07873" lon="1.53174">
        <ele>440.386</ele>
        <time>2019-12-09T10:20:41Z</time>
      </trkpt>
      <trkpt lat="43.07902" lon="1.5311">
        <ele>446.234</ele>
        <time>2019-12-09T10:21:01Z</time>
      </trkpt>
      <trkpt lat="43.07888" lon="1.53019">
        <ele>453.575</ele>
        <time>2019-12-09T10:21:21Z</time>
      </trkpt>
      <trkpt lat="43.07892" lon="1.52949">
        <ele>456.89</ele>
        <time>2019-12-09T10:21:41Z</time>
      </trkpt>
      <trkpt lat="43.07885" lon="1.52875">
        <ele>460.072</ele>
        <time>2019-12-09T10:22:01Z</time>
      </trkpt>
      <trkpt lat="43.07905" lon="1.52809">
        <ele>460.413</ele>
        <time>2019-12-09T10:22:21Z</time>
      </trkpt>
      <trkpt lat="43.07891" lon="1.52793">
        <ele>460.714</ele>
        <time>2019-12-09T10:22:41Z</time>
      </trkpt>
      <trkpt lat="43.07841" lon="1.52867">
        <ele>462.108</ele>
        <time>2019-12-09T10:23:01Z</time>
      </trkpt>
      <trkpt lat="43.07818" lon="1.52951">
        <ele>464.543</ele>
        <time>2019-12-09T10:23:21Z</time>
      </trkpt>
      <trkpt lat="43.07791" lon="1.52955">
        <ele>464.342</ele>
        <time>2019-12-09T10:23:41Z</time>
      </trkpt>
      <trkpt lat="43.07752" lon="1.52883">
        <ele>469.278</ele>
        <time>2019-12-09T10:24:01Z</time>
      </trkpt>
      <trkpt lat="43.07695" lon="1.52845">
        <ele>471.826</ele>
        <time>2019-12-09T10:24:21Z</time>
      </trkpt>
      <trkpt lat="43.07645" lon="1.52765">
        <ele>480.417</ele>
        <time>2019-12-09T10:24:41Z</time>
      </trkpt>
      <trkpt lat="43.07587" lon="1.52745">
        <ele>485.475</ele>
        <time>2019-12-09T10:25:01Z</time>
      </trkpt>
      <trkpt lat="43.07544" lon="1.52717">
        <ele>490.466</ele>
        <time>2019-12-09T10:25:21Z</time>
      </trkpt>
      <trkpt lat="43.07448" lon="1.52737">
        <ele>485.261</ele>
        <time>2019-12-09T10:25:41Z</time>
      </trkpt>
      <trkpt lat="43.07448" lon="1.52721">
        <ele>486.467</ele>
        <time>2019-12-09T10:26:01Z</time>
      </trkpt>
      <trkpt lat="43.07489" lon="1.52699">
        <ele>490.281</ele>
        <time>2019-12-09T10:26:21Z</time>
      </trkpt>
      <trkpt lat="43.07532" lon="1.52651">
        <ele>499.319</ele>
        <time>2019-12-09T10:26:41Z</time>
      </trkpt>
      <trkpt lat="43.07549" lon="1.52581">
        <ele>504.708</ele>
        <time>2019-12-09T10:27:01Z</time>
      </trkpt>
      <trkpt lat="43.07534" lon="1.52573">
        <ele>505.642</ele>
        <time>2019-12-09T10:27:21Z</time>
      </trkpt>
      <trkpt lat="43.07505" lon="1.52615">
        <ele>502.241</ele>
        <time>2019-12-09T10:27:41Z</time>
      </trkpt>
      <trkpt lat="43.07473" lon="1.52631">
        <ele>500.017</ele>
        <time>2019-12-09T10:28:01Z</time>
      </trkpt>
      <trkpt lat="43.0744" lon="1.52583">
        <ele>506.895</ele>
        <time>2019-12-09T10:28:21Z</time>
      </trkpt>
      <trkpt lat="43.07395" lon="1.52537">
        <ele>504.436</ele>
        <time>2019-12-09T10:28:41Z</time>
      </trkpt>
      <trkpt lat="43.07367" lon="1.52453">
        <ele>514.214</ele>
        <time>2019-12-09T10:29:01Z</time>
      </trkpt>
      <trkpt lat="43.07364" lon="1.52391">
        <ele>520.635</ele>
        <time>2019-12-09T10:29:21Z</time>
      </trkpt>
      <trkpt lat="43.07354" lon="1.52301">
        <ele>528.39</ele>
        <time>2019-12-09T10:29:41Z</time>
      </trkpt>
      <trkpt lat="43.07377" lon="1.52187">
        <ele>532.469</ele>
        <time>2019-12-09T10:30:01Z</time>
      </trkpt>
      <trkpt lat="43.07348" lon="1.52046">
        <ele>533.804</ele>
        <time>2019-12-09T10:30:21Z</time>
      </trkpt>
      <trkpt lat="43.07373" lon="1.5189">
        <ele>531.824</ele>
        <time>2019-12-09T10:30:41Z</time>
      </trkpt>
      <trkpt lat="43.07358" lon="1.51888">
        <ele>530.808</ele>
        <time>2019-12-09T10:31:01Z</time>
      </trkpt>
      <trkpt lat="43.07336" lon="1.51918">
        <ele>529.682</ele>
        <time>2019-12-09T10:31:21Z</time>
      </trkpt>
      <trkpt lat="43.07285" lon="1.51966">
        <ele>526.051</ele>
        <time>2019-12-09T10:31:41Z</time>
      </trkpt>
      <trkpt lat="43.07279" lon="1.51954">
        <ele>525.437</ele>
        <time>2019-12-09T10:32:01Z</time>
      </trkpt>
      <trkpt lat="43.073" lon="1.51904">
        <ele>522.585</ele>
        <time>2019-12-09T10:32:21Z</time>
      </trkpt>
      <trkpt lat="43.07331" lon="1.51656">
        <ele>508.476</ele>
        <time>2019-12-09T10:32:41Z</time>
      </trkpt>
      <trkpt lat="43.07306" lon="1.51454">
        <ele>502.464</ele>
        <time>2019-12-09T10:33:01Z</time>
      </trkpt>
      <trkpt lat="43.07274" lon="1.51118">
        <ele>491.995</ele>
        <time>2019-12-09T10:33:21Z</time>
      </trkpt>
      <trkpt lat="43.07237" lon="1.51069">
        <ele>501.64</ele>
        <time>2019-12-09T10:33:41Z</time>
      </trkpt>
      <trkpt lat="43.07247" lon="1.50851">
        <ele>495.757</ele>
        <time>2019-12-09T10:34:01Z</time>
      </trkpt>
      <trkpt lat="43.07239" lon="1.50827">
        <ele>492.9</ele>
        <time>2019-12-09T10:34:21Z</time>
      </trkpt>
      <trkpt lat="43.0719" lon="1.50799">
        <ele>496.92</ele>
        <time>2019-12-09T10:34:41Z</time>
      </trkpt>
      <trkpt lat="43.07152" lon="1.50757">
        <ele>500.008</ele>
        <time>2019-12-09T10:35:01Z</time>
      </trkpt>
      <trkpt lat="43.07111" lon="1.50741">
        <ele>495.461</ele>
        <time>2019-12-09T10:35:21Z</time>
      </trkpt>
      <trkpt lat="43.071" lon="1.50641">
        <ele>493.29</ele>
        <time>2019-12-09T10:35:41Z</time>
      </trkpt>
      <trkpt lat="43.07083" lon="1.50719">
        <ele>494.036</ele>
        <time>2019-12-09T10:36:01Z</time>
      </trkpt>
      <trkpt lat="43.07009" lon="1.50743">
        <ele>475.584</ele>
        <time>2019-12-09T10:36:21Z</time>
      </trkpt>
      <trkpt lat="43.06942" lon="1.50785">
        <ele>476.425</ele>
        <time>2019-12-09T10:36:41Z</time>
      </trkpt>
      <trkpt lat="43.06899" lon="1.50749">
        <ele>452.193</ele>
        <time>2019-12-09T10:37:01Z</time>
      </trkpt>
      <trkpt lat="43.06819" lon="1.50747">
        <ele>445.724</ele>
        <time>2019-12-09T10:37:21Z</time>
      </trkpt>
      <trkpt lat="43.06788" lon="1.50721">
        <ele>439.779</ele>
        <time>2019-12-09T10:37:41Z</time>
      </trkpt>
      <trkpt lat="43.06791" lon="1.50663">
        <ele>430.134</ele>
        <time>2019-12-09T10:38:01Z</time>
      </trkpt>
      <trkpt lat="43.06807" lon="1.50635">
        <ele>429.655</ele>
        <time>2019-12-09T10:38:21Z</time>
      </trkpt>
      <trkpt lat="43.06826" lon="1.50631">
        <ele>430.11</ele>
        <time>2019-12-09T10:38:41Z</time>
      </trkpt>
      <trkpt lat="43.06851" lon="1.50681">
        <ele>442.908</ele>
        <time>2019-12-09T10:39:01Z</time>
      </trkpt>
      <trkpt lat="43.06911" lon="1.50663">
        <ele>435.279</ele>
        <time>2019-12-09T10:39:21Z</time>
      </trkpt>
      <trkpt lat="43.06931" lon="1.50635">
        <ele>439.418</ele>
        <time>2019-12-09T10:39:41Z</time>
      </trkpt>
      <trkpt lat="43.06933" lon="1.50599">
        <ele>436.784</ele>
        <time>2019-12-09T10:40:01Z</time>
      </trkpt>
      <trkpt lat="43.06849" lon="1.50463">
        <ele>417.192</ele>
        <time>2019-12-09T10:40:21Z</time>
      </trkpt>
      <trkpt lat="43.06861" lon="1.50395">
        <ele>416.383</ele>
        <time>2019-12-09T10:40:41Z</time>
      </trkpt>
      <trkpt lat="43.06804" lon="1.50303">
        <ele>404.791</ele>
        <time>2019-12-09T10:41:01Z</time>
      </trkpt>
      <trkpt lat="43.06773" lon="1.50219">
        <ele>400.222</ele>
        <time>2019-12-09T10:41:21Z</time>
      </trkpt>
      <trkpt lat="43.06735" lon="1.50187">
        <ele>392.277</ele>
        <time>2019-12-09T10:41:41Z</time>
      </trkpt>
      <trkpt lat="43.06857" lon="1.49924">
        <ele>382.128</ele>
        <time>2019-12-09T10:42:01Z</time>
      </trkpt>
      <trkpt lat="43.06895" lon="1.49798">
        <ele>375.989</ele>
        <time>2019-12-09T10:42:21Z</time>
      </trkpt>
      <trkpt lat="43.06904" lon="1.4955">
        <ele>365.517</ele>
        <time>2019-12-09T10:42:41Z</time>
      </trkpt>
      <trkpt lat="43.06901" lon="1.49508">
        <ele>365.808</ele>
        <time>2019-12-09T10:43:01Z</time>
      </trkpt>
      <trkpt lat="43.06911" lon="1.49466">
        <ele>361.738</ele>
        <time>2019-12-09T10:43:21Z</time>
      </trkpt>
      <trkpt lat="43.06926" lon="1.4935">
        <ele>355.557</ele>
        <time>2019-12-09T10:43:41Z</time>
      </trkpt>
      <trkpt lat="43.06945" lon="1.4931">
        <ele>349.483</ele>
        <time>2019-12-09T10:44:01Z</time>
      </trkpt>
      <trkpt lat="43.06887" lon="1.49212">
        <ele>341.061</ele>
        <time>2019-12-09T10:44:21Z</time>
      </trkpt>
      <trkpt lat="43.06983" lon="1.49027">
        <ele>337.092</ele>
        <time>2019-12-09T10:44:41Z</time>
      </trkpt>
      <trkpt lat="43.07019" lon="1.49003">
        <ele>340.03</ele>
        <time>2019-12-09T10:45:01Z</time>
      </trkpt>
      <trkpt lat="43.07025" lon="1.48933">
        <ele>336.391</ele>
        <time>2019-12-09T10:45:21Z</time>
      </trkpt>
      <trkpt lat="43.07045" lon="1.48937">
        <ele>336.816</ele>
        <time>2019-12-09T10:45:41Z</time>
      </trkpt>
      <trkpt lat="43.07066" lon="1.49041">
        <ele>342.686</ele>
        <time>2019-12-09T10:46:01Z</time>
      </trkpt>
      <trkpt lat="43.0712" lon="1.49133">
        <ele>352.46</ele>
        <time>2019-12-09T10:46:21Z</time>
      </trkpt>
      <trkpt lat="43.07183" lon="1.49196">
        <ele>367.626</ele>
        <time>2019-12-09T10:46:41Z</time>
      </trkpt>
      <trkpt lat="43.07176" lon="1.49246">
        <ele>368.308</ele>
        <time>2019-12-09T10:47:01Z</time>
      </trkpt>
      <trkpt lat="43.07193" lon="1.49382">
        <ele>382.254</ele>
        <time>2019-12-09T10:47:21Z</time>
      </trkpt>
      <trkpt lat="43.072" lon="1.49544">
        <ele>401.243</ele>
        <time>2019-12-09T10:47:41Z</time>
      </trkpt>
      <trkpt lat="43.072" lon="1.49694">
        <ele>420.859</ele>
        <time>2019-12-09T10:48:01Z</time>
      </trkpt>
      <trkpt lat="43.07214" lon="1.4973">
        <ele>423.557</ele>
        <time>2019-12-09T10:48:21Z</time>
      </trkpt>
      <trkpt lat="43.07241" lon="1.49738">
        <ele>427.068</ele>
        <time>2019-12-09T10:48:41Z</time>
      </trkpt>
      <trkpt lat="43.07277" lon="1.49698">
        <ele>431.866</ele>
        <time>2019-12-09T10:49:01Z</time>
      </trkpt>
      <trkpt lat="43.07312" lon="1.49642">
        <ele>426.137</ele>
        <time>2019-12-09T10:49:21Z</time>
      </trkpt>
      <trkpt lat="43.07376" lon="1.4959">
        <ele>440.382</ele>
        <time>2019-12-09T10:49:41Z</time>
      </trkpt>
      <trkpt lat="43.07401" lon="1.49532">
        <ele>436.329</ele>
        <time>2019-12-09T10:50:01Z</time>
      </trkpt>
      <trkpt lat="43.07448" lon="1.49356">
        <ele>448.8</ele>
        <time>2019-12-09T10:50:21Z</time>
      </trkpt>
      <trkpt lat="43.07484" lon="1.49346">
        <ele>453.22</ele>
        <time>2019-12-09T10:50:41Z</time>
      </trkpt>
      <trkpt lat="43.07532" lon="1.49362">
        <ele>473.008</ele>
        <time>2019-12-09T10:51:01Z</time>
      </trkpt>
      <trkpt lat="43.07569" lon="1.49334">
        <ele>475.148</ele>
        <time>2019-12-09T10:51:21Z</time>
      </trkpt>
      <trkpt lat="43.07614" lon="1.49266">
        <ele>473.697</ele>
        <time>2019-12-09T10:51:41Z</time>
      </trkpt>
      <trkpt lat="43.07673" lon="1.4926">
        <ele>492.093</ele>
        <time>2019-12-09T10:52:01Z</time>
      </trkpt>
      <trkpt lat="43.07689" lon="1.49186">
        <ele>483.191</ele>
        <time>2019-12-09T10:52:21Z</time>
      </trkpt>
      <trkpt lat="43.07788" lon="1.49062">
        <ele>480.362</ele>
        <time>2019-12-09T10:52:41Z</time>
      </trkpt>
      <trkpt lat="43.078" lon="1.49061">
        <ele>481.95</ele>
        <time>2019-12-09T10:53:01Z</time>
      </trkpt>
      <trkpt lat="43.07855" lon="1.49099">
        <ele>512.231</ele>
        <time>2019-12-09T10:53:21Z</time>
      </trkpt>
      <trkpt lat="43.07891" lon="1.49091">
        <ele>518.636</ele>
        <time>2019-12-09T10:53:41Z</time>
      </trkpt>
      <trkpt lat="43.07913" lon="1.49001">
        <ele>510.676</ele>
        <time>2019-12-09T10:54:01Z</time>
      </trkpt>
      <trkpt lat="43.07918" lon="1.48947">
        <ele>512.99</ele>
        <time>2019-12-09T10:54:21Z</time>
      </trkpt>
      <trkpt lat="43.07931" lon="1.48894">
        <ele>504.319</ele>
        <time>2019-12-09T10:54:41Z</time>
      </trkpt>
      <trkpt lat="43.07947" lon="1.48896">
        <ele>504.408</ele>
        <time>2019-12-09T10:55:01Z</time>
      </trkpt>
      <trkpt lat="43.08007" lon="1.48921">
        <ele>515.333</ele>
        <time>2019-12-09T10:55:21Z</time>
      </trkpt>
      <trkpt lat="43.08045" lon="1.48921">
        <ele>513.622</ele>
        <time>2019-12-09T10:55:41Z</time>
      </trkpt>
      <trkpt lat="43.08099" lon="1.48905">
        <ele>501.928</ele>
        <time>2019-12-09T10:56:01Z</time>
      </trkpt>
      <trkpt lat="43.08112" lon="1.48916">
        <ele>500.686</ele>
        <time>2019-12-09T10:56:21Z</time>
      </trkpt>
      <trkpt lat="43.08141" lon="1.48879">
        <ele>498.137</ele>
        <time>2019-12-09T10:56:41Z</time>
      </trkpt>
      <trkpt lat="43.08189" lon="1.48847">
        <ele>494.675</ele>
        <time>2019-12-09T10:57:01Z</time>
      </trkpt>
      <trkpt lat="43.08197" lon="1.48817">
        <ele>495.526</ele>
        <time>2019-12-09T10:57:21Z</time>
      </trkpt>
      <trkpt lat="43.082" lon="1.48715">
        <ele>492.641</ele>
        <time>2019-12-09T10:57:41Z</time>
      </trkpt>
      <trkpt lat="43.0825" lon="1.48572">
        <ele>498.474</ele>
        <time>2019-12-09T10:58:01Z</time>
      </trkpt>
      <trkpt lat="43.08247" lon="1.48534">
        <ele>494.856</ele>
        <time>2019-12-09T10:58:21Z</time>
      </trkpt>
      <trkpt lat="43.08261" lon="1.48527">
        <ele>500.321</ele>
        <time>2019-12-09T10:58:41Z</time>
      </trkpt>
      <trkpt lat="43.08267" lon="1.48505">
        <ele>501.008</ele>
        <time>2019-12-09T10:59:01Z</time>
      </trkpt>
      <trkpt lat="43.08268" lon="1.48489">
        <ele>499.583</ele>
        <time>2019-12-09T10:59:21Z</time>
      </trkpt>
      <trkpt lat="43.08297" lon="1.48456">
        <ele>496.332</ele>
        <time>2019-12-09T10:59:41Z</time>
      </trkpt>
      <trkpt lat="43.0834" lon="1.48323">
        <ele>482.928</ele>
        <time>2019-12-09T11:00:01Z</time>
      </trkpt>
      <trkpt lat="43.08394" lon="1.48329">
        <ele>484.526</ele>
        <time>2019-12-09T11:00:21Z</time>
      </trkpt>
      <trkpt lat="43.08451" lon="1.48289">
        <ele>490.297</ele>
        <time>2019-12-09T11:00:41Z</time>
      </trkpt>
      <trkpt lat="43.08442" lon="1.48315">
        <ele>490.585</ele>
        <time>2019-12-09T11:01:01Z</time>
      </trkpt>
      <trkpt lat="43.08454" lon="1.48345">
        <ele>488.846</ele>
        <time>2019-12-09T11:01:21Z</time>
      </trkpt>
      <trkpt lat="43.08487" lon="1.48335">
        <ele>492.491</ele>
        <time>2019-12-09T11:01:41Z</time>
      </trkpt>
      <trkpt lat="43.08641" lon="1.48082">
        <ele>498.768</ele>
        <time>2019-12-09T11:02:01Z</time>
      </trkpt>
      <trkpt lat="43.08677" lon="1.48048">
        <ele>501.142</ele>
        <time>2019-12-09T11:02:21Z</time>
      </trkpt>
      <trkpt lat="43.0872" lon="1.4796">
        <ele>498.626</ele>
        <time>2019-12-09T11:02:41Z</time>
      </trkpt>
      <trkpt lat="43.08771" lon="1.47902">
        <ele>502.408</ele>
        <time>2019-12-09T11:03:01Z</time>
      </trkpt>
      <trkpt lat="43.08818" lon="1.47822">
        <ele>508.672</ele>
        <time>2019-12-09T11:03:21Z</time>
      </trkpt>
      <trkpt lat="43.08825" lon="1.47756">
        <ele>511.781</ele>
        <time>2019-12-09T11:03:41Z</time>
      </trkpt>
      <trkpt lat="43.08827" lon="1.4773">
        <ele>509.717</ele>
        <time>2019-12-09T11:04:01Z</time>
      </trkpt>
      <trkpt lat="43.08835" lon="1.47694">
        <ele>514.555</ele>
        <time>2019-12-09T11:04:21Z</time>
      </trkpt>
      <trkpt lat="43.08832" lon="1.47648">
        <ele>510.916</ele>
        <time>2019-12-09T11:04:41Z</time>
      </trkpt>
      <trkpt lat="43.08859" lon="1.47622">
        <ele>518.394</ele>
        <time>2019-12-09T11:05:01Z</time>
      </trkpt>
      <trkpt lat="43.08944" lon="1.47326">
        <ele>529.825</ele>
        <time>2019-12-09T11:05:21Z</time>
      </trkpt>
      <trkpt lat="43.09037" lon="1.46917">
        <ele>510.96</ele>
        <time>2019-12-09T11:05:41Z</time>
      </trkpt>
      <trkpt lat="43.09129" lon="1.46575">
        <ele>483.788</ele>
        <time>2019-12-09T11:06:01Z</time>
      </trkpt>
      <trkpt lat="43.09189" lon="1.46431">
        <ele>483.224</ele>
        <time>2019-12-09T11:06:21Z</time>
      </trkpt>
      <trkpt lat="43.09277" lon="1.46158">
        <ele>435.726</ele>
        <time>2019-12-09T11:06:41Z</time>
      </trkpt>
      <trkpt lat="43.0933" lon="1.4607">
        <ele>422.608</ele>
        <time>2019-12-09T11:07:01Z</time>
      </trkpt>
      <trkpt lat="43.09325" lon="1.46156">
        <ele>431.514</ele>
        <time>2019-12-09T11:07:21Z</time>
      </trkpt>
      <trkpt lat="43.09416" lon="1.46174">
        <ele>413.333</ele>
        <time>2019-12-09T11:07:41Z</time>
      </trkpt>
      <trkpt lat="43.09522" lon="1.46206">
        <ele>392.269</ele>
        <time>2019-12-09T11:08:01Z</time>
      </trkpt>
      <trkpt lat="43.09618" lon="1.46118">
        <ele>377.717</ele>
        <time>2019-12-09T11:08:21Z</time>
      </trkpt>
      <trkpt lat="43.09753" lon="1.4609">
        <ele>367.348</ele>
        <time>2019-12-09T11:08:41Z</time>
      </trkpt>
      <trkpt lat="43.09724" lon="1.45892">
        <ele>359.316</ele>
        <time>2019-12-09T11:09:01Z</time>
      </trkpt>
      <trkpt lat="43.09639" lon="1.45804">
        <ele>375.197</ele>
        <time>2019-12-09T11:09:21Z</time>
      </trkpt>
      <trkpt lat="43.09698" lon="1.45614">
        <ele>345.342</ele>
        <time>2019-12-09T11:09:41Z</time>
      </trkpt>
      <trkpt lat="43.09692" lon="1.45526">
        <ele>344.134</ele>
        <time>2019-12-09T11:10:01Z</time>
      </trkpt>
      <trkpt lat="43.09715" lon="1.45368">
        <ele>331.655</ele>
        <time>2019-12-09T11:10:21Z</time>
      </trkpt>
      <trkpt lat="43.09737" lon="1.45312">
        <ele>320.11</ele>
        <time>2019-12-09T11:10:41Z</time>
      </trkpt>
      <trkpt lat="43.09734" lon="1.45265">
        <ele>317.308</ele>
        <time>2019-12-09T11:11:01Z</time>
      </trkpt>
      <trkpt lat="43.0978" lon="1.45105">
        <ele>309.599</ele>
        <time>2019-12-09T11:11:21Z</time>
      </trkpt>
      <trkpt lat="43.09784" lon="1.45029">
        <ele>307.548</ele>
        <time>2019-12-09T11:11:41Z</time>
      </trkpt>
      <trkpt lat="43.098" lon="1.44949">
        <ele>307.314</ele>
        <time>2019-12-09T11:12:01Z</time>
      </trkpt>
      <trkpt lat="43.09818" lon="1.44903">
        <ele>307.692</ele>
        <time>2019-12-09T11:12:21Z</time>
      </trkpt>
      <trkpt lat="43.09818" lon="1.44859">
        <ele>306.663</ele>
        <time>2019-12-09T11:12:41Z</time>
      </trkpt>
      <trkpt lat="43.09838" lon="1.44787">
        <ele>305.221</ele>
        <time>2019-12-09T11:13:01Z</time>
      </trkpt>
      <trkpt lat="43.09865" lon="1.44753">
        <ele>304.462</ele>
        <time>2019-12-09T11:13:21Z</time>
      </trkpt>
      <trkpt lat="43.09907" lon="1.44607">
        <ele>295.937</ele>
        <time>2019-12-09T11:13:41Z</time>
      </trkpt>
      <trkpt lat="43.09894" lon="1.44597">
        <ele>295.836</ele>
        <time>2019-12-09T11:14:01Z</time>
      </trkpt>
      <trkpt lat="43.09914" lon="1.44479">
        <ele>298.717</ele>
        <time>2019-12-09T11:14:21Z</time>
      </trkpt>
      <trkpt lat="43.09849" lon="1.44485">
        <ele>300.018</ele>
        <time>2019-12-09T11:14:41Z</time>
      </trkpt>
      <trkpt lat="43.0981" lon="1.44533">
        <ele>306.208</ele>
        <time>2019-12-09T11:15:01Z</time>
      </trkpt>
      <trkpt lat="43.09714" lon="1.44533">
        <ele>328.179</ele>
        <time>2019-12-09T11:15:21Z</time>
      </trkpt>
      <trkpt lat="43.09733" lon="1.44577">
        <ele>322.698</ele>
        <time>2019-12-09T11:15:41Z</time>
      </trkpt>
      <trkpt lat="43.09702" lon="1.44637">
        <ele>328.164</ele>
        <time>2019-12-09T11:16:01Z</time>
      </trkpt>
      <trkpt lat="43.09686" lon="1.44605">
        <ele>331.962</ele>
        <time>2019-12-09T11:16:21Z</time>
      </trkpt>
      <trkpt lat="43.09653" lon="1.44593">
        <ele>346.783</ele>
        <time>2019-12-09T11:16:41Z</time>
      </trkpt>
      <trkpt lat="43.09656" lon="1.44615">
        <ele>348.531</ele>
        <time>2019-12-09T11:17:01Z</time>
      </trkpt>
      <trkpt lat="43.09596" lon="1.44669">
        <ele>361.572</ele>
        <time>2019-12-09T11:17:21Z</time>
      </trkpt>
      <trkpt lat="43.09544" lon="1.44709">
        <ele>374.787</ele>
        <time>2019-12-09T11:17:41Z</time>
      </trkpt>
      <trkpt lat="43.09479" lon="1.44701">
        <ele>385.238</ele>
        <time>2019-12-09T11:18:01Z</time>
      </trkpt>
      <trkpt lat="43.09389" lon="1.44753">
        <ele>397.67</ele>
        <time>2019-12-09T11:18:21Z</time>
      </trkpt>
      <trkpt lat="43.09325" lon="1.44795">
        <ele>406.917</ele>
        <time>2019-12-09T11:18:41Z</time>
      </trkpt>
      <trkpt lat="43.09277" lon="1.44807">
        <ele>410.508</ele>
        <time>2019-12-09T11:19:01Z</time>
      </trkpt>
      <trkpt lat="43.09236" lon="1.44803">
        <ele>423.359</ele>
        <time>2019-12-09T11:19:21Z</time>
      </trkpt>
      <trkpt lat="43.09196" lon="1.44817">
        <ele>427.118</ele>
        <time>2019-12-09T11:19:41Z</time>
      </trkpt>
      <trkpt lat="43.0915" lon="1.44815">
        <ele>441.244</ele>
        <time>2019-12-09T11:20:01Z</time>
      </trkpt>
      <trkpt lat="43.09109" lon="1.44845">
        <ele>434.482</ele>
        <time>2019-12-09T11:20:21Z</time>
      </trkpt>
      <trkpt lat="43.09058" lon="1.44899">
        <ele>438.383</ele>
        <time>2019-12-09T11:20:41Z</time>
      </trkpt>
      <trkpt lat="43.09017" lon="1.44919">
        <ele>432.591</ele>
        <time>2019-12-09T11:21:01Z</time>
      </trkpt>
      <trkpt lat="43.0897" lon="1.44957">
        <ele>439.942</ele>
        <time>2019-12-09T11:21:21Z</time>
      </trkpt>
      <trkpt lat="43.08901" lon="1.44981">
        <ele>445.177</ele>
        <time>2019-12-09T11:21:41Z</time>
      </trkpt>
      <trkpt lat="43.08851" lon="1.44995">
        <ele>442.797</ele>
        <time>2019-12-09T11:22:01Z</time>
      </trkpt>
      <trkpt lat="43.08813" lon="1.45023">
        <ele>441.623</ele>
        <time>2019-12-09T11:22:21Z</time>
      </trkpt>
      <trkpt lat="43.0872" lon="1.45125">
        <ele>438.225</ele>
        <time>2019-12-09T11:22:41Z</time>
      </trkpt>
      <trkpt lat="43.08666" lon="1.45201">
        <ele>439.208</ele>
        <time>2019-12-09T11:23:01Z</time>
      </trkpt>
      <trkpt lat="43.08605" lon="1.4524">
        <ele>440.835</ele>
        <time>2021-02-06T00:05:11Z</time>
      </trkpt>
      <trkpt lat="43.08539" lon="1.45199">
        <ele>444.244</ele>
        <time>2021-02-06T00:05:31Z</time>
      </trkpt>
      <trkpt lat="43.08536" lon="1.45179">
        <ele>444.24</ele>
        <time>2019-12-09T11:24:01Z</time>
      </trkpt>
      <trkpt lat="43.08599" lon="1.45074">
        <ele>426.748</ele>
        <time>2021-02-06T00:06:11Z</time>
      </trkpt>
      <trkpt lat="43.08553" lon="1.45066">
        <ele>428.639</ele>
        <time>2021-02-06T00:06:31Z</time>
      </trkpt>
      <trkpt lat="43.08452" lon="1.45172">
        <ele>454.127</ele>
        <time>2021-02-06T00:06:51Z</time>
      </trkpt>
      <trkpt lat="43.08432" lon="1.45101">
        <ele>449.748</ele>
        <time>2019-12-09T11:25:21Z</time>
      </trkpt>
      <trkpt lat="43.08403" lon="1.45085">
        <ele>452.743</ele>
        <time>2019-12-09T11:25:41Z</time>
      </trkpt>
      <trkpt lat="43.08346" lon="1.45125">
        <ele>453.935</ele>
        <time>2019-12-09T11:26:01Z</time>
      </trkpt>
      <trkpt lat="43.08242" lon="1.45127">
        <ele>442.486</ele>
        <time>2019-12-09T11:26:21Z</time>
      </trkpt>
      <trkpt lat="43.08192" lon="1.45113">
        <ele>442.114</ele>
        <time>2019-12-09T11:26:41Z</time>
      </trkpt>
      <trkpt lat="43.08152" lon="1.45117">
        <ele>438.708</ele>
        <time>2019-12-09T11:27:01Z</time>
      </trkpt>
      <trkpt lat="43.08123" lon="1.45065">
        <ele>444.219</ele>
        <time>2019-12-09T11:27:21Z</time>
      </trkpt>
      <trkpt lat="43.08097" lon="1.45025">
        <ele>442.938</ele>
        <time>2019-12-09T11:27:41Z</time>
      </trkpt>
      <trkpt lat="43.08094" lon="1.44929">
        <ele>444.054</ele>
        <time>2019-12-09T11:28:01Z</time>
      </trkpt>
      <trkpt lat="43.08062" lon="1.44899">
        <ele>436.452</ele>
        <time>2019-12-09T11:28:21Z</time>
      </trkpt>
      <trkpt lat="43.07989" lon="1.44793">
        <ele>431.833</ele>
        <time>2019-12-09T11:28:41Z</time>
      </trkpt>
      <trkpt lat="43.07964" lon="1.44795">
        <ele>430.271</ele>
        <time>2019-12-09T11:29:01Z</time>
      </trkpt>
      <trkpt lat="43.07939" lon="1.44813">
        <ele>427.032</ele>
        <time>2019-12-09T11:29:21Z</time>
      </trkpt>
      <trkpt lat="43.07916" lon="1.44771">
        <ele>423.737</ele>
        <time>2019-12-09T11:29:41Z</time>
      </trkpt>
      <trkpt lat="43.07867" lon="1.44767">
        <ele>420.838</ele>
        <time>2019-12-09T11:30:01Z</time>
      </trkpt>
      <trkpt lat="43.07818" lon="1.44779">
        <ele>412.97</ele>
        <time>2019-12-09T11:30:21Z</time>
      </trkpt>
      <trkpt lat="43.07787" lon="1.44755">
        <ele>410.717</ele>
        <time>2019-12-09T11:30:41Z</time>
      </trkpt>
      <trkpt lat="43.07705" lon="1.44741">
        <ele>398.308</ele>
        <time>2019-12-09T11:31:01Z</time>
      </trkpt>
      <trkpt lat="43.07676" lon="1.44783">
        <ele>397.079</ele>
        <time>2019-12-09T11:31:21Z</time>
      </trkpt>
      <trkpt lat="43.07663" lon="1.44781">
        <ele>392.938</ele>
        <time>2019-12-09T11:31:41Z</time>
      </trkpt>
      <trkpt lat="43.07647" lon="1.44741">
        <ele>394.234</ele>
        <time>2019-12-09T11:32:01Z</time>
      </trkpt>
      <trkpt lat="43.07623" lon="1.44752">
        <ele>392.992</ele>
        <time>2019-12-09T11:32:21Z</time>
      </trkpt>
      <trkpt lat="43.07584" lon="1.44761">
        <ele>393.323</ele>
        <time>2019-12-09T11:32:41Z</time>
      </trkpt>
      <trkpt lat="43.07555" lon="1.44819">
        <ele>397.451</ele>
        <time>2019-12-09T11:33:01Z</time>
      </trkpt>
      <trkpt lat="43.07534" lon="1.44846">
        <ele>395.982</ele>
        <time>2019-12-09T11:33:21Z</time>
      </trkpt>
      <trkpt lat="43.07516" lon="1.44859">
        <ele>397.327</ele>
        <time>2019-12-09T11:33:41Z</time>
      </trkpt>
      <trkpt lat="43.07509" lon="1.44886">
        <ele>395.784</ele>
        <time>2019-12-09T11:34:01Z</time>
      </trkpt>
      <trkpt lat="43.07497" lon="1.44902">
        <ele>404.507</ele>
        <time>2019-12-09T11:34:21Z</time>
      </trkpt>
      <trkpt lat="43.07475" lon="1.44998">
        <ele>402.217</ele>
        <time>2019-12-09T11:34:41Z</time>
      </trkpt>
      <trkpt lat="43.07468" lon="1.45178">
        <ele>390.508</ele>
        <time>2019-12-09T11:35:01Z</time>
      </trkpt>
      <trkpt lat="43.07462" lon="1.45271">
        <ele>387.994</ele>
        <time>2019-12-09T11:35:21Z</time>
      </trkpt>
      <trkpt lat="43.07414" lon="1.45326">
        <ele>394.983</ele>
        <time>2019-12-09T11:35:41Z</time>
      </trkpt>
      <trkpt lat="43.07397" lon="1.45357">
        <ele>396.129</ele>
        <time>2019-12-09T11:36:01Z</time>
      </trkpt>
      <trkpt lat="43.07379" lon="1.45425">
        <ele>391.387</ele>
        <time>2019-12-09T11:36:21Z</time>
      </trkpt>
      <trkpt lat="43.07365" lon="1.45453">
        <ele>391.888</ele>
        <time>2019-12-09T11:36:41Z</time>
      </trkpt>
      <trkpt lat="43.07369" lon="1.45492">
        <ele>390.176</ele>
        <time>2019-12-09T11:37:01Z</time>
      </trkpt>
      <trkpt lat="43.07345" lon="1.45523">
        <ele>387.587</ele>
        <time>2019-12-09T11:37:21Z</time>
      </trkpt>
      <trkpt lat="43.07323" lon="1.45544">
        <ele>397.142</ele>
        <time>2019-12-09T11:37:41Z</time>
      </trkpt>
      <trkpt lat="43.07315" lon="1.4556">
        <ele>396.595</ele>
        <time>2019-12-09T11:38:01Z</time>
      </trkpt>
      <trkpt lat="43.07287" lon="1.45539">
        <ele>400.849</ele>
        <time>2019-12-09T11:38:21Z</time>
      </trkpt>
      <trkpt lat="43.07224" lon="1.45448">
        <ele>423.823</ele>
        <time>2019-12-09T11:38:41Z</time>
      </trkpt>
      <trkpt lat="43.07222" lon="1.45431">
        <ele>424.508</ele>
        <time>2019-12-09T11:39:01Z</time>
      </trkpt>
      <trkpt lat="43.07181" lon="1.45438">
        <ele>429.135</ele>
        <time>2019-12-09T11:39:21Z</time>
      </trkpt>
      <trkpt lat="43.0713" lon="1.45421">
        <ele>437.654</ele>
        <time>2019-12-09T11:39:41Z</time>
      </trkpt>
      <trkpt lat="43.07083" lon="1.45383">
        <ele>463.09</ele>
        <time>2019-12-09T11:40:01Z</time>
      </trkpt>
      <trkpt lat="43.07103" lon="1.45283">
        <ele>470.068</ele>
        <time>2019-12-09T11:40:21Z</time>
      </trkpt>
      <trkpt lat="43.07059" lon="1.45321">
        <ele>480.399</ele>
        <time>2019-12-09T11:40:41Z</time>
      </trkpt>
      <trkpt lat="43.07028" lon="1.45361">
        <ele>473.147</ele>
        <time>2019-12-09T11:41:01Z</time>
      </trkpt>
      <trkpt lat="43.06952" lon="1.45394">
        <ele>483.888</ele>
        <time>2019-12-09T11:41:21Z</time>
      </trkpt>
      <trkpt lat="43.06871" lon="1.45415">
        <ele>478.683</ele>
        <time>2019-12-09T11:41:41Z</time>
      </trkpt>
      <trkpt lat="43.06858" lon="1.45411">
        <ele>477.046</ele>
        <time>2019-12-09T11:42:01Z</time>
      </trkpt>
      <trkpt lat="43.06922" lon="1.45206">
        <ele>491.488</ele>
        <time>2019-12-09T11:42:21Z</time>
      </trkpt>
      <trkpt lat="43.07007" lon="1.44908">
        <ele>507.016</ele>
        <time>2019-12-09T11:42:41Z</time>
      </trkpt>
      <trkpt lat="43.07021" lon="1.44831">
        <ele>509.208</ele>
        <time>2019-12-09T11:43:01Z</time>
      </trkpt>
      <trkpt lat="43.07028" lon="1.44766">
        <ele>511.33</ele>
        <time>2019-12-09T11:43:21Z</time>
      </trkpt>
      <trkpt lat="43.07052" lon="1.44663">
        <ele>521.229</ele>
        <time>2019-12-09T11:43:41Z</time>
      </trkpt>
      <trkpt lat="43.07043" lon="1.44624">
        <ele>520.725</ele>
        <time>2019-12-09T11:44:01Z</time>
      </trkpt>
      <trkpt lat="43.07097" lon="1.44454">
        <ele>531.633</ele>
        <time>2019-12-09T11:44:21Z</time>
      </trkpt>
      <trkpt lat="43.07073" lon="1.44415">
        <ele>525.194</ele>
        <time>2019-12-09T11:44:41Z</time>
      </trkpt>
      <trkpt lat="43.07094" lon="1.44356">
        <ele>525.782</ele>
        <time>2019-12-09T11:45:01Z</time>
      </trkpt>
      <trkpt lat="43.07096" lon="1.44294">
        <ele>519.973</ele>
        <time>2019-12-09T11:45:21Z</time>
      </trkpt>
      <trkpt lat="43.07084" lon="1.44259">
        <ele>516.068</ele>
        <time>2019-12-09T11:45:41Z</time>
      </trkpt>
      <trkpt lat="43.07025" lon="1.44157">
        <ele>494.615</ele>
        <time>2019-12-09T11:46:01Z</time>
      </trkpt>
      <trkpt lat="43.07049" lon="1.43979">
        <ele>489.865</ele>
        <time>2019-12-09T11:46:21Z</time>
      </trkpt>
      <trkpt lat="43.07082" lon="1.4387">
        <ele>488.311</ele>
        <time>2019-12-09T11:46:41Z</time>
      </trkpt>
      <trkpt lat="43.07119" lon="1.43656">
        <ele>485.208</ele>
        <time>2019-12-09T11:47:01Z</time>
      </trkpt>
      <trkpt lat="43.07141" lon="1.43513">
        <ele>484.577</ele>
        <time>2019-12-09T11:47:21Z</time>
      </trkpt>
      <trkpt lat="43.07172" lon="1.43499">
        <ele>492.436</ele>
        <time>2019-12-09T11:47:41Z</time>
      </trkpt>
      <trkpt lat="43.07231" lon="1.43359">
        <ele>487.562</ele>
        <time>2019-12-09T11:49:21Z</time>
      </trkpt>
      <trkpt lat="43.07216" lon="1.43356">
        <ele>486.85</ele>
        <time>2019-12-09T11:49:41Z</time>
      </trkpt>
      <trkpt lat="43.07206" lon="1.43323">
        <ele>482.161</ele>
        <time>2019-12-09T11:50:01Z</time>
      </trkpt>
      <trkpt lat="43.07169" lon="1.43333">
        <ele>480.059</ele>
        <time>2019-12-09T11:50:21Z</time>
      </trkpt>
      <trkpt lat="43.07197" lon="1.43153">
        <ele>462.38</ele>
        <time>2019-12-09T11:50:41Z</time>
      </trkpt>
      <trkpt lat="43.07102" lon="1.43316">
        <ele>454.355</ele>
        <time>2019-12-09T11:51:01Z</time>
      </trkpt>
      <trkpt lat="43.07124" lon="1.43125">
        <ele>433.888</ele>
        <time>2019-12-09T11:51:21Z</time>
      </trkpt>
      <trkpt lat="43.07141" lon="1.43073">
        <ele>429.624</ele>
        <time>2019-12-09T11:51:41Z</time>
      </trkpt>
      <trkpt lat="43.07135" lon="1.43013">
        <ele>425.826</ele>
        <time>2019-12-09T11:52:01Z</time>
      </trkpt>
      <trkpt lat="43.07105" lon="1.42975">
        <ele>418.208</ele>
        <time>2019-12-09T11:52:21Z</time>
      </trkpt>
      <trkpt lat="43.06991" lon="1.4291">
        <ele>414.074</ele>
        <time>2019-12-09T11:52:41Z</time>
      </trkpt>
      <trkpt lat="43.06969" lon="1.42848">
        <ele>416.813</ele>
        <time>2019-12-09T11:53:01Z</time>
      </trkpt>
      <trkpt lat="43.06919" lon="1.42814">
        <ele>422.569</ele>
        <time>2019-12-09T11:53:21Z</time>
      </trkpt>
      <trkpt lat="43.06926" lon="1.42698">
        <ele>427.427</ele>
        <time>2019-12-09T11:53:41Z</time>
      </trkpt>
      <trkpt lat="43.06952" lon="1.42597">
        <ele>431.158</ele>
        <time>2019-12-09T11:54:01Z</time>
      </trkpt>
      <trkpt lat="43.06947" lon="1.42518">
        <ele>434.376</ele>
        <time>2019-12-09T11:54:21Z</time>
      </trkpt>
      <trkpt lat="43.06934" lon="1.4243">
        <ele>437.257</ele>
        <time>2019-12-09T11:54:41Z</time>
      </trkpt>
      <trkpt lat="43.06928" lon="1.42363">
        <ele>438.182</ele>
        <time>2019-12-09T11:55:01Z</time>
      </trkpt>
      <trkpt lat="43.06922" lon="1.42243">
        <ele>443.459</ele>
        <time>2019-12-09T11:55:21Z</time>
      </trkpt>
      <trkpt lat="43.06878" lon="1.42206">
        <ele>445.203</ele>
        <time>2019-12-09T11:55:41Z</time>
      </trkpt>
      <trkpt lat="43.06867" lon="1.42091">
        <ele>449.623</ele>
        <time>2019-12-09T11:56:01Z</time>
      </trkpt>
      <trkpt lat="43.0684" lon="1.41973">
        <ele>457.908</ele>
        <time>2019-12-09T11:56:21Z</time>
      </trkpt>
      <trkpt lat="43.06818" lon="1.41732">
        <ele>478.061</ele>
        <time>2019-12-09T11:56:41Z</time>
      </trkpt>
      <trkpt lat="43.06803" lon="1.41672">
        <ele>479.32</ele>
        <time>2019-12-09T11:57:01Z</time>
      </trkpt>
      <trkpt lat="43.06798" lon="1.4161">
        <ele>477.546</ele>
        <time>2019-12-09T11:57:21Z</time>
      </trkpt>
      <trkpt lat="43.06825" lon="1.41501">
        <ele>469.974</ele>
        <time>2019-12-09T11:57:41Z</time>
      </trkpt>
      <trkpt lat="43.06817" lon="1.414">
        <ele>460.315</ele>
        <time>2019-12-09T11:58:01Z</time>
      </trkpt>
      <trkpt lat="43.06782" lon="1.41498">
        <ele>460.883</ele>
        <time>2019-12-09T11:58:21Z</time>
      </trkpt>
      <trkpt lat="43.06738" lon="1.41518">
        <ele>459.214</ele>
        <time>2019-12-09T11:58:41Z</time>
      </trkpt>
      <trkpt lat="43.06677" lon="1.41513">
        <ele>450.239</ele>
        <time>2019-12-09T11:59:01Z</time>
      </trkpt>
      <trkpt lat="43.06726" lon="1.4146">
        <ele>444.826</ele>
        <time>2019-12-09T11:59:21Z</time>
      </trkpt>
      <trkpt lat="43.06693" lon="1.4144">
        <ele>438.747</ele>
        <time>2019-12-09T11:59:41Z</time>
      </trkpt>
      <trkpt lat="43.06561" lon="1.4155">
        <ele>415.211</ele>
        <time>2019-12-09T12:00:01Z</time>
      </trkpt>
      <trkpt lat="43.06585" lon="1.41462">
        <ele>418.708</ele>
        <time>2019-12-09T12:00:21Z</time>
      </trkpt>
      <trkpt lat="43.06535" lon="1.41477">
        <ele>401.278</ele>
        <time>2019-12-09T12:00:41Z</time>
      </trkpt>
      <trkpt lat="43.06549" lon="1.41434">
        <ele>400.227</ele>
        <time>2019-12-09T12:01:01Z</time>
      </trkpt>
      <trkpt lat="43.06514" lon="1.41443">
        <ele>396.173</ele>
        <time>2019-12-09T12:01:21Z</time>
      </trkpt>
      <trkpt lat="43.0652" lon="1.41391">
        <ele>387.011</ele>
        <time>2019-12-09T12:01:41Z</time>
      </trkpt>
      <trkpt lat="43.06497" lon="1.414">
        <ele>378.082</ele>
        <time>2019-12-09T12:02:01Z</time>
      </trkpt>
      <trkpt lat="43.06467" lon="1.41503">
        <ele>385.95</ele>
        <time>2019-12-09T12:02:21Z</time>
      </trkpt>
      <trkpt lat="43.06442" lon="1.41486">
        <ele>376.521</ele>
        <time>2019-12-09T12:02:41Z</time>
      </trkpt>
      <trkpt lat="43.06415" lon="1.41419">
        <ele>365.266</ele>
        <time>2019-12-09T12:03:01Z</time>
      </trkpt>
      <trkpt lat="43.06415" lon="1.4134">
        <ele>358.049</ele>
        <time>2019-12-09T12:03:21Z</time>
      </trkpt>
      <trkpt lat="43.06433" lon="1.41249">
        <ele>352.702</ele>
        <time>2019-12-09T12:03:41Z</time>
      </trkpt>
      <trkpt lat="43.06442" lon="1.41112">
        <ele>352.422</ele>
        <time>2019-12-09T12:04:01Z</time>
      </trkpt>
      <trkpt lat="43.06422" lon="1.41046">
        <ele>347.008</ele>
        <time>2019-12-09T12:04:21Z</time>
      </trkpt>
      <trkpt lat="43.06414" lon="1.40992">
        <ele>340.11</ele>
        <time>2019-12-09T12:04:41Z</time>
      </trkpt>
      <trkpt lat="43.06437" lon="1.40962">
        <ele>340.669</ele>
        <time>2019-12-09T12:05:01Z</time>
      </trkpt>
      <trkpt lat="43.06425" lon="1.40921">
        <ele>333.865</ele>
        <time>2019-12-09T12:05:21Z</time>
      </trkpt>
      <trkpt lat="43.06442" lon="1.40846">
        <ele>333.373</ele>
        <time>2019-12-09T12:05:41Z</time>
      </trkpt>
      <trkpt lat="43.06458" lon="1.40715">
        <ele>329.864</ele>
        <time>2019-12-09T12:06:01Z</time>
      </trkpt>
      <trkpt lat="43.06483" lon="1.40668">
        <ele>331.342</ele>
        <time>2019-12-09T12:06:21Z</time>
      </trkpt>
      <trkpt lat="43.06578" lon="1.40629">
        <ele>335.753</ele>
        <time>2019-12-09T12:06:41Z</time>
      </trkpt>
      <trkpt lat="43.06599" lon="1.40316">
        <ele>326.668</ele>
        <time>2019-12-09T12:07:01Z</time>
      </trkpt>
      <trkpt lat="43.06622" lon="1.4029">
        <ele>328.091</ele>
        <time>2019-12-09T12:07:21Z</time>
      </trkpt>
      <trkpt lat="43.06679" lon="1.4026">
        <ele>336.481</ele>
        <time>2019-12-09T12:07:41Z</time>
      </trkpt>
      <trkpt lat="43.06671" lon="1.40198">
        <ele>333.219</ele>
        <time>2019-12-09T12:08:01Z</time>
      </trkpt>
      <trkpt lat="43.06694" lon="1.40134">
        <ele>332.108</ele>
        <time>2019-12-09T12:08:21Z</time>
      </trkpt>
      <trkpt lat="43.06729" lon="1.40082">
        <ele>334.815</ele>
        <time>2019-12-09T12:08:41Z</time>
      </trkpt>
      <trkpt lat="43.06713" lon="1.40026">
        <ele>332.654</ele>
        <time>2019-12-09T12:09:01Z</time>
      </trkpt>
      <trkpt lat="43.06713" lon="1.39913">
        <ele>329.61</ele>
        <time>2019-12-09T12:09:21Z</time>
      </trkpt>
      <trkpt lat="43.06748" lon="1.3984">
        <ele>330.388</ele>
        <time>2019-12-09T12:09:41Z</time>
      </trkpt>
      <trkpt lat="43.06759" lon="1.39792">
        <ele>332.239</ele>
        <time>2019-12-09T12:10:01Z</time>
      </trkpt>
      <trkpt lat="43.06839" lon="1.39662">
        <ele>331.227</ele>
        <time>2019-12-09T12:10:21Z</time>
      </trkpt>
      <trkpt lat="43.06853" lon="1.39617">
        <ele>332.378</ele>
        <time>2019-12-09T12:10:41Z</time>
      </trkpt>
      <trkpt lat="43.06878" lon="1.39589">
        <ele>333.463</ele>
        <time>2019-12-09T12:11:01Z</time>
      </trkpt>
      <trkpt lat="43.06894" lon="1.39538">
        <ele>327.614</ele>
        <time>2019-12-09T12:11:21Z</time>
      </trkpt>
      <trkpt lat="43.06931" lon="1.3953">
        <ele>338.354</ele>
        <time>2019-12-09T12:11:41Z</time>
      </trkpt>
      <trkpt lat="43.06946" lon="1.39431">
        <ele>334.009</ele>
        <time>2019-12-09T12:12:01Z</time>
      </trkpt>
      <trkpt lat="43.06967" lon="1.39365">
        <ele>329.008</ele>
        <time>2019-12-09T12:12:21Z</time>
      </trkpt>
      <trkpt lat="43.06983" lon="1.39344">
        <ele>328.987</ele>
        <time>2019-12-09T12:12:41Z</time>
      </trkpt>
      <trkpt lat="43.07" lon="1.39344">
        <ele>329.366</ele>
        <time>2019-12-09T12:13:01Z</time>
      </trkpt>
      <trkpt lat="43.0702" lon="1.39351">
        <ele>338.712</ele>
        <time>2019-12-09T12:13:21Z</time>
      </trkpt>
      <trkpt lat="43.07042" lon="1.39338">
        <ele>341.19</ele>
        <time>2019-12-09T12:13:41Z</time>
      </trkpt>
      <trkpt lat="43.07057" lon="1.39285">
        <ele>330.681</ele>
        <time>2019-12-09T12:14:01Z</time>
      </trkpt>
      <trkpt lat="43.07105" lon="1.39245">
        <ele>323.179</ele>
        <time>2019-12-09T12:14:21Z</time>
      </trkpt>
      <trkpt lat="43.07132" lon="1.39212">
        <ele>321.83</ele>
        <time>2019-12-09T12:14:41Z</time>
      </trkpt>
      <trkpt lat="43.07156" lon="1.392">
        <ele>320.975</ele>
        <time>2019-12-09T12:15:01Z</time>
      </trkpt>
      <trkpt lat="43.07181" lon="1.39199">
        <ele>328.877</ele>
        <time>2019-12-09T12:15:21Z</time>
      </trkpt>
      <trkpt lat="43.07198" lon="1.39174">
        <ele>327.361</ele>
        <time>2019-12-09T12:15:41Z</time>
      </trkpt>
      <trkpt lat="43.07286" lon="1.39103">
        <ele>318.527</ele>
        <time>2019-12-09T12:16:01Z</time>
      </trkpt>
      <trkpt lat="43.07323" lon="1.39096">
        <ele>315.508</ele>
        <time>2019-12-09T12:16:21Z</time>
      </trkpt>
      <trkpt lat="43.07409" lon="1.39117">
        <ele>318.453</ele>
        <time>2019-12-09T12:16:41Z</time>
      </trkpt>
      <trkpt lat="43.07447" lon="1.39108">
        <ele>313.542</ele>
        <time>2019-12-09T12:17:01Z</time>
      </trkpt>
      <trkpt lat="43.07512" lon="1.39115">
        <ele>307.648</ele>
        <time>2019-12-09T12:17:21Z</time>
      </trkpt>
      <trkpt lat="43.07565" lon="1.39142">
        <ele>306.916</ele>
        <time>2019-12-09T12:17:41Z</time>
      </trkpt>
      <trkpt lat="43.07592" lon="1.39166">
        <ele>306.247</ele>
        <time>2019-12-09T12:18:01Z</time>
      </trkpt>
      <trkpt lat="43.0763" lon="1.39149">
        <ele>309.745</ele>
        <time>2019-12-09T12:18:21Z</time>
      </trkpt>
      <trkpt lat="43.07646" lon="1.39104">
        <ele>310.566</ele>
        <time>2019-12-09T12:18:41Z</time>
      </trkpt>
      <trkpt lat="43.07618" lon="1.38977">
        <ele>313.981</ele>
        <time>2019-12-09T12:19:01Z</time>
      </trkpt>
      <trkpt lat="43.07599" lon="1.38932">
        <ele>310.643</ele>
        <time>2019-12-09T12:19:21Z</time>
      </trkpt>
      <trkpt lat="43.07624" lon="1.38775">
        <ele>313.964</ele>
        <time>2019-12-09T12:19:41Z</time>
      </trkpt>
      <trkpt lat="43.07685" lon="1.38582">
        <ele>308.21</ele>
        <time>2019-12-09T12:20:01Z</time>
      </trkpt>
      <trkpt lat="43.07738" lon="1.38511">
        <ele>305.308</ele>
        <time>2019-12-09T12:20:21Z</time>
      </trkpt>
      <trkpt lat="43.07796" lon="1.384">
        <ele>306.72</ele>
        <time>2019-12-09T12:20:41Z</time>
      </trkpt>
      <trkpt lat="43.07793" lon="1.38376">
        <ele>307.199</ele>
        <time>2019-12-09T12:21:01Z</time>
      </trkpt>
      <trkpt lat="43.07763" lon="1.38316">
        <ele>305.315</ele>
        <time>2019-12-09T12:21:21Z</time>
      </trkpt>
      <trkpt lat="43.07765" lon="1.38222">
        <ele>307.143</ele>
        <time>2019-12-09T12:21:41Z</time>
      </trkpt>
      <trkpt lat="43.07752" lon="1.38138">
        <ele>300.074</ele>
        <time>2019-12-09T12:22:01Z</time>
      </trkpt>
      <trkpt lat="43.07759" lon="1.38074">
        <ele>291.292</ele>
        <time>2019-12-09T12:22:21Z</time>
      </trkpt>
      <trkpt lat="43.07731" lon="1.37999">
        <ele>295.173</ele>
        <time>2019-12-09T12:22:41Z</time>
      </trkpt>
      <trkpt lat="43.07738" lon="1.37949">
        <ele>299.738</ele>
        <time>2019-12-09T12:23:01Z</time>
      </trkpt>
      <trkpt lat="43.07785" lon="1.37889">
        <ele>294.225</ele>
        <time>2019-12-09T12:23:21Z</time>
      </trkpt>
      <trkpt lat="43.07787" lon="1.37722">
        <ele>302.926</ele>
        <time>2019-12-09T12:23:41Z</time>
      </trkpt>
      <trkpt lat="43.07897" lon="1.37808">
        <ele>289.008</ele>
        <time>2019-12-09T12:24:01Z</time>
      </trkpt>
      <trkpt lat="43.07897" lon="1.37788">
        <ele>289.308</ele>
        <time>2019-12-09T12:24:21Z</time>
      </trkpt>
      <trkpt lat="43.07851" lon="1.37743">
        <ele>287.028</ele>
        <time>2019-12-09T12:24:41Z</time>
      </trkpt>
      <trkpt lat="43.07853" lon="1.37685">
        <ele>288.277</ele>
        <time>2019-12-09T12:25:01Z</time>
      </trkpt>
      <trkpt lat="43.07878" lon="1.37527">
        <ele>294.713</ele>
        <time>2019-12-09T12:25:21Z</time>
      </trkpt>
      <trkpt lat="43.07881" lon="1.37443">
        <ele>293.721</ele>
        <time>2019-12-09T12:25:41Z</time>
      </trkpt>
      <trkpt lat="43.07859" lon="1.37183">
        <ele>287.212</ele>
        <time>2019-12-09T12:26:01Z</time>
      </trkpt>
      <trkpt lat="43.07864" lon="1.36911">
        <ele>286.33</ele>
        <time>2019-12-09T12:26:21Z</time>
      </trkpt>
      <trkpt lat="43.07914" lon="1.3672">
        <ele>286.171</ele>
        <time>2019-12-09T12:26:41Z</time>
      </trkpt>
      <trkpt lat="43.07942" lon="1.36715">
        <ele>285.946</ele>
        <time>2019-12-09T12:27:01Z</time>
      </trkpt>
      <trkpt lat="43.07975" lon="1.36666">
        <ele>286.356</ele>
        <time>2019-12-09T12:27:21Z</time>
      </trkpt>
      <trkpt lat="43.08005" lon="1.36645">
        <ele>286.159</ele>
        <time>2019-12-09T12:27:41Z</time>
      </trkpt>
      <trkpt lat="43.08035" lon="1.36647">
        <ele>286.314</ele>
        <time>2019-12-09T12:28:01Z</time>
      </trkpt>
      <trkpt lat="43.08046" lon="1.36619">
        <ele>286.208</ele>
        <time>2019-12-09T12:28:21Z</time>
      </trkpt>
      <trkpt lat="43.08118" lon="1.36561">
        <ele>286.641</ele>
        <time>2019-12-09T12:28:41Z</time>
      </trkpt>
      <trkpt lat="43.08187" lon="1.36527">
        <ele>289.34</ele>
        <time>2019-12-09T12:29:01Z</time>
      </trkpt>
      <trkpt lat="43.08234" lon="1.36469">
        <ele>287.026</ele>
        <time>2019-12-09T12:29:21Z</time>
      </trkpt>
      <trkpt lat="43.08267" lon="1.36439">
        <ele>290.164</ele>
        <time>2019-12-09T12:29:41Z</time>
      </trkpt>
      <trkpt lat="43.08321" lon="1.36351">
        <ele>286.545</ele>
        <time>2019-12-09T12:30:01Z</time>
      </trkpt>
      <trkpt lat="43.08325" lon="1.36286">
        <ele>285.523</ele>
        <time>2019-12-09T12:30:21Z</time>
      </trkpt>
      <trkpt lat="43.08336" lon="1.36181">
        <ele>287.194</ele>
        <time>2019-12-09T12:30:41Z</time>
      </trkpt>
      <trkpt lat="43.08317" lon="1.3608">
        <ele>287.769</ele>
        <time>2019-12-09T12:31:01Z</time>
      </trkpt>
      <trkpt lat="43.08281" lon="1.361">
        <ele>285.858</ele>
        <time>2019-12-09T12:31:21Z</time>
      </trkpt>
      <trkpt lat="43.0821" lon="1.3608">
        <ele>286.952</ele>
        <time>2019-12-09T12:31:41Z</time>
      </trkpt>
      <trkpt lat="43.08173" lon="1.36121">
        <ele>287.417</ele>
        <time>2019-12-09T12:32:01Z</time>
      </trkpt>
      <trkpt lat="43.08143" lon="1.3617">
        <ele>287.608</ele>
        <time>2019-12-09T12:32:21Z</time>
      </trkpt>
      <trkpt lat="43.08088" lon="1.36181">
        <ele>288.231</ele>
        <time>2019-12-09T12:32:41Z</time>
      </trkpt>
      <trkpt lat="43.08028" lon="1.3617">
        <ele>287.93</ele>
        <time>2019-12-09T12:33:01Z</time>
      </trkpt>
      <trkpt lat="43.07964" lon="1.3614">
        <ele>288.936</ele>
        <time>2019-12-09T12:33:21Z</time>
      </trkpt>
      <trkpt lat="43.07868" lon="1.36031">
        <ele>290.534</ele>
        <time>2019-12-09T12:33:41Z</time>
      </trkpt>
      <trkpt lat="43.07575" lon="1.35954">
        <ele>311.045</ele>
        <time>2019-12-09T12:34:01Z</time>
      </trkpt>
      <trkpt lat="43.0751" lon="1.35874">
        <ele>303.973</ele>
        <time>2019-12-09T12:34:21Z</time>
      </trkpt>
      <trkpt lat="43.07347" lon="1.35735">
        <ele>312.554</ele>
        <time>2019-12-09T12:34:41Z</time>
      </trkpt>
      <trkpt lat="43.07296" lon="1.35683">
        <ele>311.999</ele>
        <time>2019-12-09T12:35:01Z</time>
      </trkpt>
      <trkpt lat="43.07252" lon="1.3569">
        <ele>312.847</ele>
        <time>2019-12-09T12:35:21Z</time>
      </trkpt>
      <trkpt lat="43.07218" lon="1.35681">
        <ele>320.029</ele>
        <time>2019-12-09T12:35:41Z</time>
      </trkpt>
      <trkpt lat="43.07179" lon="1.35694">
        <ele>323.421</ele>
        <time>2019-12-09T12:36:01Z</time>
      </trkpt>
      <trkpt lat="43.0718" lon="1.35716">
        <ele>327.408</ele>
        <time>2019-12-09T12:36:21Z</time>
      </trkpt>
      <trkpt lat="43.0729" lon="1.35795">
        <ele>333.48</ele>
        <time>2019-12-09T12:36:41Z</time>
      </trkpt>
      <trkpt lat="43.07262" lon="1.35825">
        <ele>338.959</ele>
        <time>2019-12-09T12:37:01Z</time>
      </trkpt>
      <trkpt lat="43.07201" lon="1.35793">
        <ele>346.135</ele>
        <time>2019-12-09T12:37:21Z</time>
      </trkpt>
      <trkpt lat="43.07155" lon="1.35793">
        <ele>365.373</ele>
        <time>2019-12-09T12:37:41Z</time>
      </trkpt>
      <trkpt lat="43.0714" lon="1.35748">
        <ele>347.584</ele>
        <time>2019-12-09T12:38:01Z</time>
      </trkpt>
      <trkpt lat="43.0701" lon="1.35677">
        <ele>372.282</ele>
        <time>2019-12-09T12:38:21Z</time>
      </trkpt>
      <trkpt lat="43.06886" lon="1.35724">
        <ele>373.753</ele>
        <time>2019-12-09T12:38:41Z</time>
      </trkpt>
      <trkpt lat="43.06831" lon="1.35726">
        <ele>368.558</ele>
        <time>2019-12-09T12:39:01Z</time>
      </trkpt>
      <trkpt lat="43.06726" lon="1.35713">
        <ele>359.944</ele>
        <time>2019-12-09T12:39:21Z</time>
      </trkpt>
      <trkpt lat="43.06669" lon="1.35713">
        <ele>358.105</ele>
        <time>2019-12-09T12:39:41Z</time>
      </trkpt>
      <trkpt lat="43.06607" lon="1.35668">
        <ele>358.715</ele>
        <time>2019-12-09T12:40:01Z</time>
      </trkpt>
      <trkpt lat="43.06575" lon="1.35606">
        <ele>357.308</ele>
        <time>2019-12-09T12:40:21Z</time>
      </trkpt>
      <trkpt lat="43.0639" lon="1.35068">
        <ele>343.96</ele>
        <time>2019-12-09T12:40:41Z</time>
      </trkpt>
      <trkpt lat="43.06293" lon="1.34825">
        <ele>333.519</ele>
        <time>2019-12-09T12:41:01Z</time>
      </trkpt>
      <trkpt lat="43.06266" lon="1.34838">
        <ele>332.835</ele>
        <time>2019-12-09T12:41:21Z</time>
      </trkpt>
      <trkpt lat="43.06213" lon="1.34939">
        <ele>337.363</ele>
        <time>2019-12-09T12:41:41Z</time>
      </trkpt>
      <trkpt lat="43.06099" lon="1.35001">
        <ele>329.794</ele>
        <time>2019-12-09T12:42:01Z</time>
      </trkpt>
      <trkpt lat="43.05911" lon="1.34795">
        <ele>331.382</ele>
        <time>2019-12-09T12:42:21Z</time>
      </trkpt>
      <trkpt lat="43.05898" lon="1.34759">
        <ele>330.433</ele>
        <time>2019-12-09T12:42:41Z</time>
      </trkpt>
      <trkpt lat="43.05838" lon="1.34692">
        <ele>329.578</ele>
        <time>2019-12-09T12:43:01Z</time>
      </trkpt>
      <trkpt lat="43.05821" lon="1.34625">
        <ele>330.217</ele>
        <time>2019-12-09T12:43:21Z</time>
      </trkpt>
      <trkpt lat="43.05784" lon="1.34587">
        <ele>329.987</ele>
        <time>2019-12-09T12:43:41Z</time>
      </trkpt>
      <trkpt lat="43.05732" lon="1.34587">
        <ele>330.315</ele>
        <time>2019-12-09T12:44:01Z</time>
      </trkpt>
      <trkpt lat="43.05655" lon="1.34538">
        <ele>333.508</ele>
        <time>2019-12-09T12:44:21Z</time>
      </trkpt>
      <trkpt lat="43.05575" lon="1.34503">
        <ele>336.797</ele>
        <time>2019-12-09T12:44:41Z</time>
      </trkpt>
      <trkpt lat="43.05539" lon="1.34462">
        <ele>338.446</ele>
        <time>2019-12-09T12:45:01Z</time>
      </trkpt>
      <trkpt lat="43.05473" lon="1.34338">
        <ele>346.222</ele>
        <time>2019-12-09T12:45:21Z</time>
      </trkpt>
      <trkpt lat="43.05445" lon="1.34186">
        <ele>344.18</ele>
        <time>2019-12-09T12:45:41Z</time>
      </trkpt>
      <trkpt lat="43.05447" lon="1.34089">
        <ele>342.011</ele>
        <time>2019-12-09T12:46:01Z</time>
      </trkpt>
      <trkpt lat="43.05476" lon="1.33992">
        <ele>338.149</ele>
        <time>2019-12-09T12:46:21Z</time>
      </trkpt>
      <trkpt lat="43.05447" lon="1.339">
        <ele>342.56</ele>
        <time>2019-12-09T12:46:41Z</time>
      </trkpt>
      <trkpt lat="43.05445" lon="1.33763">
        <ele>345.415</ele>
        <time>2019-12-09T12:47:01Z</time>
      </trkpt>
      <trkpt lat="43.05376" lon="1.3351">
        <ele>357.596</ele>
        <time>2019-12-09T12:47:21Z</time>
      </trkpt>
      <trkpt lat="43.05356" lon="1.33488">
        <ele>355.031</ele>
        <time>2019-12-09T12:47:41Z</time>
      </trkpt>
      <trkpt lat="43.05324" lon="1.33486">
        <ele>368.524</ele>
        <time>2019-12-09T12:48:01Z</time>
      </trkpt>
      <trkpt lat="43.0526" lon="1.33347">
        <ele>347.508</ele>
        <time>2019-12-09T12:48:21Z</time>
      </trkpt>
      <trkpt lat="43.05229" lon="1.33319">
        <ele>342.835</ele>
        <time>2019-12-09T12:48:41Z</time>
      </trkpt>
      <trkpt lat="43.05147" lon="1.33314">
        <ele>343.914</ele>
        <time>2019-12-09T12:49:01Z</time>
      </trkpt>
      <trkpt lat="43.05044" lon="1.33381">
        <ele>348.06</ele>
        <time>2019-12-09T12:49:21Z</time>
      </trkpt>
      <trkpt lat="43.0499" lon="1.33454">
        <ele>357.558</ele>
        <time>2019-12-09T12:49:41Z</time>
      </trkpt>
      <trkpt lat="43.04943" lon="1.33473">
        <ele>359.829</ele>
        <time>2019-12-09T12:50:01Z</time>
      </trkpt>
      <trkpt lat="43.04938" lon="1.33447">
        <ele>355.267</ele>
        <time>2019-12-09T12:50:21Z</time>
      </trkpt>
      <trkpt lat="43.04848" lon="1.33426">
        <ele>350.268</ele>
        <time>2019-12-09T12:50:41Z</time>
      </trkpt>
      <trkpt lat="43.0475" lon="1.33462">
        <ele>349.273</ele>
        <time>2019-12-09T12:51:01Z</time>
      </trkpt>
      <trkpt lat="43.04746" lon="1.33477">
        <ele>347.365</ele>
        <time>2019-12-09T12:51:21Z</time>
      </trkpt>
      <trkpt lat="43.04733" lon="1.33477">
        <ele>346.668</ele>
        <time>2019-12-09T12:51:41Z</time>
      </trkpt>
      <trkpt lat="43.04725" lon="1.33467">
        <ele>344.814</ele>
        <time>2019-12-09T12:52:01Z</time>
      </trkpt>
      <trkpt lat="43.04672" lon="1.33475">
        <ele>344.808</ele>
        <time>2019-12-09T12:52:21Z</time>
      </trkpt>
      <trkpt lat="43.04597" lon="1.33565">
        <ele>353.492</ele>
        <time>2019-12-09T12:52:41Z</time>
      </trkpt>
      <trkpt lat="43.04575" lon="1.3363">
        <ele>357.511</ele>
        <time>2019-12-09T12:53:01Z</time>
      </trkpt>
      <trkpt lat="43.04565" lon="1.33707">
        <ele>361.657</ele>
        <time>2019-12-09T12:53:21Z</time>
      </trkpt>
      <trkpt lat="43.04545" lon="1.33711">
        <ele>361.2</ele>
      </trkpt>
      <trkpt lat="43.04543" lon="1.33704">
        <ele>360.6</ele>
      </trkpt>
      <trkpt lat="43.04526" lon="1.33694">
        <ele>358.7</ele>
      </trkpt>
      <trkpt lat="43.0452" lon="1.33687">
        <ele>358.1</ele>
      </trkpt>
      <trkpt lat="43.04518" lon="1.33681">
        <ele>357.8</ele>
      </trkpt>
      <trkpt lat="43.04518" lon="1.33674">
        <ele>357.6</ele>
      </trkpt>
      <trkpt lat="43.04521" lon="1.33659">
        <ele>357.8</ele>
      </trkpt>
      <trkpt lat="43.04522" lon="1.33652">
        <ele>358</ele>
      </trkpt>
      <trkpt lat="43.04515" lon="1.33639">
        <ele>358.6</ele>
      </trkpt>
      <trkpt lat="43.04518" lon="1.33594">
        <ele>360.4</ele>
      </trkpt>
      <trkpt lat="43.04518" lon="1.33509">
        <ele>354.3</ele>
      </trkpt>
      <trkpt lat="43.04507" lon="1.33472">
        <ele>350.9</ele>
      </trkpt>
      <trkpt lat="43.0446" lon="1.33404">
        <ele>354</ele>
      </trkpt>
      <trkpt lat="43.0445" lon="1.33389">
        <ele>354</ele>
      </trkpt>
      <trkpt lat="43.04435" lon="1.33352">
        <ele>348.6</ele>
      </trkpt>
      <trkpt lat="43.04415" lon="1.33332">
        <ele>346.3</ele>
      </trkpt>
      <trkpt lat="43.04382" lon="1.33319">
        <ele>353.2</ele>
      </trkpt>
      <trkpt lat="43.04351" lon="1.33312">
        <ele>359.4</ele>
      </trkpt>
      <trkpt lat="43.0432" lon="1.33263">
        <ele>355.8</ele>
      </trkpt>
      <trkpt lat="43.04315" lon="1.3325">
        <ele>354.2</ele>
      </trkpt>
      <trkpt lat="43.04295" lon="1.33204">
        <ele>352.3</ele>
      </trkpt>
      <trkpt lat="43.0428" lon="1.33175">
        <ele>350</ele>
      </trkpt>
      <trkpt lat="43.04265" lon="1.33164">
        <ele>350.7</ele>
      </trkpt>
      <trkpt lat="43.04242" lon="1.33158">
        <ele>354.4</ele>
      </trkpt>
      <trkpt lat="43.04139" lon="1.33111">
        <ele>358.6</ele>
      </trkpt>
      <trkpt lat="43.04067" lon="1.33085">
        <ele>350.2</ele>
      </trkpt>
      <trkpt lat="43.04064" lon="1.33084">
        <ele>349.8</ele>
      </trkpt>
      <trkpt lat="43.04047" lon="1.3308">
        <ele>348.8</ele>
      </trkpt>
      <trkpt lat="43.04035" lon="1.33082">
        <ele>348.7</ele>
      </trkpt>
      <trkpt lat="43.04003" lon="1.33092">
        <ele>351.4</ele>
      </trkpt>
      <trkpt lat="43.04" lon="1.33093">
        <ele>351.7</ele>
      </trkpt>
      <trkpt lat="43.0398" lon="1.33095">
        <ele>352.9</ele>
      </trkpt>
      <trkpt lat="43.03958" lon="1.33085">
        <ele>349.6</ele>
      </trkpt>
      <trkpt lat="43.0394" lon="1.331">
        <ele>359.356</ele>
        <time>2019-12-09T12:58:41Z</time>
      </trkpt>
      <trkpt lat="43.03856" lon="1.33106">
        <ele>362.467</ele>
        <time>2019-12-09T12:59:01Z</time>
      </trkpt>
      <trkpt lat="43.0382" lon="1.33098">
        <ele>362.982</ele>
        <time>2019-12-09T12:59:21Z</time>
      </trkpt>
      <trkpt lat="43.03786" lon="1.3304">
        <ele>349.752</ele>
        <time>2019-12-09T12:59:41Z</time>
      </trkpt>
      <trkpt lat="43.03828" lon="1.32997">
        <ele>345.853</ele>
        <time>2019-12-09T13:00:01Z</time>
      </trkpt>
      <trkpt lat="43.03918" lon="1.32999">
        <ele>345.508</ele>
        <time>2019-12-09T13:00:21Z</time>
      </trkpt>
      <trkpt lat="43.03969" lon="1.3295">
        <ele>355.208</ele>
        <time>2019-12-09T13:00:41Z</time>
      </trkpt>
      <trkpt lat="43.04056" lon="1.32941">
        <ele>350.331</ele>
        <time>2019-12-09T13:01:01Z</time>
      </trkpt>
      <trkpt lat="43.0411" lon="1.32926">
        <ele>348.39</ele>
        <time>2019-12-09T13:01:21Z</time>
      </trkpt>
      <trkpt lat="43.04147" lon="1.3293">
        <ele>347.326</ele>
        <time>2019-12-09T13:01:41Z</time>
      </trkpt>
      <trkpt lat="43.04173" lon="1.32915">
        <ele>351.774</ele>
        <time>2019-12-09T13:02:01Z</time>
      </trkpt>
      <trkpt lat="43.04217" lon="1.32911">
        <ele>354.715</ele>
        <time>2019-12-09T13:02:21Z</time>
      </trkpt>
      <trkpt lat="43.04247" lon="1.32844">
        <ele>364.023</ele>
        <time>2019-12-09T13:02:41Z</time>
      </trkpt>
      <trkpt lat="43.04294" lon="1.32844">
        <ele>363.494</ele>
        <time>2019-12-09T13:03:01Z</time>
      </trkpt>
      <trkpt lat="43.04332" lon="1.32825">
        <ele>373.029</ele>
        <time>2019-12-09T13:03:21Z</time>
      </trkpt>
      <trkpt lat="43.04413" lon="1.32887">
        <ele>375.897</ele>
        <time>2019-12-09T13:03:41Z</time>
      </trkpt>
      <trkpt lat="43.04465" lon="1.32956">
        <ele>378.123</ele>
        <time>2019-12-09T13:04:01Z</time>
      </trkpt>
      <trkpt lat="43.04551" lon="1.3299">
        <ele>385.225</ele>
        <time>2019-12-09T13:04:21Z</time>
      </trkpt>
      <trkpt lat="43.04545" lon="1.32905">
        <ele>396.408</ele>
        <time>2019-12-09T13:04:41Z</time>
      </trkpt>
      <trkpt lat="43.0452" lon="1.3284">
        <ele>401.435</ele>
        <time>2019-12-09T13:05:01Z</time>
      </trkpt>
      <trkpt lat="43.04501" lon="1.32767">
        <ele>403.294</ele>
        <time>2019-12-09T13:05:21Z</time>
      </trkpt>
      <trkpt lat="43.04434" lon="1.32724">
        <ele>404.02</ele>
        <time>2019-12-09T13:05:41Z</time>
      </trkpt>
      <trkpt lat="43.04354" lon="1.32649">
        <ele>412.158</ele>
        <time>2019-12-09T13:06:01Z</time>
      </trkpt>
      <trkpt lat="43.04343" lon="1.32617">
        <ele>413.349</ele>
        <time>2019-12-09T13:06:21Z</time>
      </trkpt>
      <trkpt lat="43.04327" lon="1.32598">
        <ele>419.317</ele>
        <time>2019-12-09T13:06:41Z</time>
      </trkpt>
      <trkpt lat="43.04307" lon="1.32583">
        <ele>424.538</ele>
        <time>2019-12-09T13:07:01Z</time>
      </trkpt>
      <trkpt lat="43.04303" lon="1.32561">
        <ele>425.333</ele>
        <time>2019-12-09T13:07:21Z</time>
      </trkpt>
      <trkpt lat="43.04283" lon="1.32546">
        <ele>426.669</ele>
        <time>2019-12-09T13:07:41Z</time>
      </trkpt>
      <trkpt lat="43.04277" lon="1.32518">
        <ele>429.004</ele>
        <time>2019-12-09T13:08:01Z</time>
      </trkpt>
      <trkpt lat="43.04231" lon="1.32439">
        <ele>444.524</ele>
        <time>2019-12-09T13:08:21Z</time>
      </trkpt>
      <trkpt lat="43.04231" lon="1.32405">
        <ele>453.708</ele>
        <time>2019-12-09T13:08:41Z</time>
      </trkpt>
      <trkpt lat="43.04162" lon="1.32284">
        <ele>479.072</ele>
        <time>2019-12-09T13:09:01Z</time>
      </trkpt>
      <trkpt lat="43.04172" lon="1.32224">
        <ele>487.761</ele>
        <time>2019-12-09T13:09:21Z</time>
      </trkpt>
      <trkpt lat="43.04143" lon="1.32246">
        <ele>492.397</ele>
        <time>2019-12-09T13:09:41Z</time>
      </trkpt>
      <trkpt lat="43.04143" lon="1.3216">
        <ele>510.185</ele>
        <time>2019-12-09T13:10:01Z</time>
      </trkpt>
      <trkpt lat="43.04162" lon="1.32141">
        <ele>511.376</ele>
        <time>2019-12-09T13:10:21Z</time>
      </trkpt>
      <trkpt lat="43.04128" lon="1.32139">
        <ele>513.874</ele>
        <time>2019-12-09T13:10:41Z</time>
      </trkpt>
      <trkpt lat="43.04068" lon="1.32175">
        <ele>507.665</ele>
        <time>2019-12-09T13:11:01Z</time>
      </trkpt>
      <trkpt lat="43.04063" lon="1.32119">
        <ele>516.13</ele>
        <time>2019-12-09T13:11:21Z</time>
      </trkpt>
      <trkpt lat="43.0404" lon="1.32121">
        <ele>515.168</ele>
        <time>2019-12-09T13:11:41Z</time>
      </trkpt>
      <trkpt lat="43.04021" lon="1.32143">
        <ele>513.542</ele>
        <time>2019-12-09T13:12:01Z</time>
      </trkpt>
      <trkpt lat="43.0399" lon="1.32093">
        <ele>509.926</ele>
        <time>2019-12-09T13:12:21Z</time>
      </trkpt>
      <trkpt lat="43.03982" lon="1.32031">
        <ele>509.208</ele>
        <time>2019-12-09T13:12:41Z</time>
      </trkpt>
      <trkpt lat="43.03954" lon="1.31967">
        <ele>508.152</ele>
        <time>2019-12-09T13:13:01Z</time>
      </trkpt>
      <trkpt lat="43.03941" lon="1.31956">
        <ele>508.061</ele>
        <time>2019-12-09T13:13:21Z</time>
      </trkpt>
      <trkpt lat="43.03899" lon="1.31868">
        <ele>514.527</ele>
        <time>2019-12-09T13:13:41Z</time>
      </trkpt>
      <trkpt lat="43.03883" lon="1.31778">
        <ele>511.295</ele>
        <time>2019-12-09T13:14:01Z</time>
      </trkpt>
      <trkpt lat="43.03852" lon="1.31722">
        <ele>508.076</ele>
        <time>2019-12-09T13:14:21Z</time>
      </trkpt>
      <trkpt lat="43.03798" lon="1.31664">
        <ele>504.354</ele>
        <time>2019-12-09T13:14:41Z</time>
      </trkpt>
      <trkpt lat="43.03747" lon="1.31621">
        <ele>499.635</ele>
        <time>2019-12-09T13:15:01Z</time>
      </trkpt>
      <trkpt lat="43.03678" lon="1.31497">
        <ele>501.16</ele>
        <time>2019-12-09T13:15:21Z</time>
      </trkpt>
      <trkpt lat="43.03676" lon="1.31308">
        <ele>494.466</ele>
        <time>2019-12-09T13:15:41Z</time>
      </trkpt>
      <trkpt lat="43.03679" lon="1.31205">
        <ele>488.529</ele>
        <time>2019-12-09T13:16:01Z</time>
      </trkpt>
      <trkpt lat="43.03674" lon="1.30978">
        <ele>483.921</ele>
        <time>2019-12-09T13:16:21Z</time>
      </trkpt>
      <trkpt lat="43.03681" lon="1.30907">
        <ele>481.808</ele>
        <time>2019-12-09T13:16:41Z</time>
      </trkpt>
      <trkpt lat="43.03657" lon="1.30789">
        <ele>482.582</ele>
        <time>2019-12-09T13:17:01Z</time>
      </trkpt>
      <trkpt lat="43.03626" lon="1.30757">
        <ele>483.871</ele>
        <time>2019-12-09T13:17:21Z</time>
      </trkpt>
      <trkpt lat="43.03618" lon="1.30733">
        <ele>484.427</ele>
        <time>2019-12-09T13:17:41Z</time>
      </trkpt>
      <trkpt lat="43.0358" lon="1.30712">
        <ele>493.115</ele>
        <time>2019-12-09T13:18:01Z</time>
      </trkpt>
      <trkpt lat="43.03551" lon="1.30639">
        <ele>493.656</ele>
        <time>2019-12-09T13:18:21Z</time>
      </trkpt>
      <trkpt lat="43.03518" lon="1.30591">
        <ele>496.924</ele>
        <time>2019-12-09T13:18:41Z</time>
      </trkpt>
      <trkpt lat="43.03486" lon="1.30581">
        <ele>499.685</ele>
        <time>2019-12-09T13:19:01Z</time>
      </trkpt>
      <trkpt lat="43.03482" lon="1.30557">
        <ele>499.16</ele>
        <time>2019-12-09T13:19:21Z</time>
      </trkpt>
      <trkpt lat="43.03456" lon="1.30531">
        <ele>498.268</ele>
        <time>2019-12-09T13:19:41Z</time>
      </trkpt>
      <trkpt lat="43.03408" lon="1.30458">
        <ele>494.842</ele>
        <time>2019-12-09T13:20:01Z</time>
      </trkpt>
      <trkpt lat="43.03363" lon="1.30442">
        <ele>493.926</ele>
        <time>2019-12-09T13:20:21Z</time>
      </trkpt>
      <trkpt lat="43.03334" lon="1.30438">
        <ele>493.208</ele>
        <time>2019-12-09T13:20:41Z</time>
      </trkpt>
      <trkpt lat="43.03296" lon="1.30418">
        <ele>493.262</ele>
        <time>2019-12-09T13:21:01Z</time>
      </trkpt>
      <trkpt lat="43.03235" lon="1.30448">
        <ele>488.911</ele>
        <time>2019-12-09T13:21:21Z</time>
      </trkpt>
      <trkpt lat="43.03204" lon="1.30529">
        <ele>490.167</ele>
        <time>2019-12-09T13:21:41Z</time>
      </trkpt>
      <trkpt lat="43.03201" lon="1.30557">
        <ele>489.985</ele>
        <time>2019-12-09T13:22:01Z</time>
      </trkpt>
      <trkpt lat="43.03135" lon="1.30645">
        <ele>484.996</ele>
        <time>2019-12-09T13:22:21Z</time>
      </trkpt>
      <trkpt lat="43.0311" lon="1.30654">
        <ele>484.784</ele>
        <time>2019-12-09T13:22:41Z</time>
      </trkpt>
      <trkpt lat="43.03165" lon="1.30446">
        <ele>475.165</ele>
        <time>2019-12-09T13:23:01Z</time>
      </trkpt>
      <trkpt lat="43.03154" lon="1.30293">
        <ele>454.12</ele>
        <time>2019-12-09T13:23:21Z</time>
      </trkpt>
      <trkpt lat="43.03188" lon="1.30225">
        <ele>452.371</ele>
        <time>2019-12-09T13:23:41Z</time>
      </trkpt>
      <trkpt lat="43.03232" lon="1.30199">
        <ele>452.441</ele>
        <time>2019-12-09T13:24:01Z</time>
      </trkpt>
      <trkpt lat="43.03259" lon="1.30137">
        <ele>443.715</ele>
        <time>2019-12-09T13:24:21Z</time>
      </trkpt>
      <trkpt lat="43.03278" lon="1.30053">
        <ele>425.208</ele>
        <time>2019-12-09T13:24:41Z</time>
      </trkpt>
      <trkpt lat="43.03342" lon="1.30079">
        <ele>428.413</ele>
        <time>2019-12-09T13:25:01Z</time>
      </trkpt>
      <trkpt lat="43.0332" lon="1.30046">
        <ele>424.262</ele>
        <time>2019-12-09T13:25:21Z</time>
      </trkpt>
      <trkpt lat="43.03276" lon="1.29967">
        <ele>409.158</ele>
        <time>2019-12-09T13:25:41Z</time>
      </trkpt>
      <trkpt lat="43.03256" lon="1.29939">
        <ele>407.026</ele>
        <time>2019-12-09T13:26:01Z</time>
      </trkpt>
      <trkpt lat="43.03254" lon="1.29808">
        <ele>391.437</ele>
        <time>2019-12-09T13:26:21Z</time>
      </trkpt>
      <trkpt lat="43.03271" lon="1.29804">
        <ele>390.865</ele>
        <time>2019-12-09T13:26:41Z</time>
      </trkpt>
      <trkpt lat="43.03298" lon="1.29825">
        <ele>390.656</ele>
        <time>2019-12-09T13:27:01Z</time>
      </trkpt>
      <trkpt lat="43.03281" lon="1.29789">
        <ele>390.071</ele>
        <time>2019-12-09T13:27:21Z</time>
      </trkpt>
      <trkpt lat="43.03254" lon="1.29774">
        <ele>388.313</ele>
        <time>2019-12-09T13:27:41Z</time>
      </trkpt>
      <trkpt lat="43.03284" lon="1.29772">
        <ele>389.543</ele>
        <time>2019-12-09T13:28:01Z</time>
      </trkpt>
      <trkpt lat="43.03309" lon="1.29793">
        <ele>390.407</ele>
        <time>2019-12-09T13:28:21Z</time>
      </trkpt>
      <trkpt lat="43.03284" lon="1.2975">
        <ele>389.008</ele>
        <time>2019-12-09T13:28:41Z</time>
      </trkpt>
      <trkpt lat="43.03226" lon="1.29746">
        <ele>385.517</ele>
        <time>2019-12-09T13:29:01Z</time>
      </trkpt>
      <trkpt lat="43.03215" lon="1.29714">
        <ele>387.356</ele>
        <time>2019-12-09T13:29:21Z</time>
      </trkpt>
      <trkpt lat="43.03174" lon="1.29707">
        <ele>385.032</ele>
        <time>2019-12-09T13:29:41Z</time>
      </trkpt>
      <trkpt lat="43.031" lon="1.29669">
        <ele>379.37</ele>
        <time>2019-12-09T13:30:01Z</time>
      </trkpt>
      <trkpt lat="43.03016" lon="1.29572">
        <ele>388.671</ele>
        <time>2019-12-09T13:30:21Z</time>
      </trkpt>
      <trkpt lat="43.02989" lon="1.29473">
        <ele>395.269</ele>
        <time>2019-12-09T13:30:41Z</time>
      </trkpt>
      <trkpt lat="43.02953" lon="1.29411">
        <ele>399.82</ele>
        <time>2019-12-09T13:31:01Z</time>
      </trkpt>
      <trkpt lat="43.02918" lon="1.29306">
        <ele>405.275</ele>
        <time>2019-12-09T13:31:21Z</time>
      </trkpt>
      <trkpt lat="43.02862" lon="1.29237">
        <ele>395.567</ele>
        <time>2019-12-09T13:31:41Z</time>
      </trkpt>
      <trkpt lat="43.02809" lon="1.29216">
        <ele>392.481</ele>
        <time>2019-12-09T13:32:01Z</time>
      </trkpt>
      <trkpt lat="43.02806" lon="1.29162">
        <ele>399.519</ele>
        <time>2019-12-09T13:32:21Z</time>
      </trkpt>
      <trkpt lat="43.02818" lon="1.29077">
        <ele>403.208</ele>
        <time>2019-12-09T13:32:41Z</time>
      </trkpt>
      <trkpt lat="43.02798" lon="1.2892">
        <ele>416.092</ele>
        <time>2019-12-09T13:33:01Z</time>
      </trkpt>
      <trkpt lat="43.02784" lon="1.29008">
        <ele>415.431</ele>
        <time>2019-12-09T13:33:21Z</time>
      </trkpt>
      <trkpt lat="43.02768" lon="1.29059">
        <ele>415.187</ele>
        <time>2019-12-09T13:33:41Z</time>
      </trkpt>
      <trkpt lat="43.02748" lon="1.29083">
        <ele>421.975</ele>
        <time>2019-12-09T13:34:01Z</time>
      </trkpt>
      <trkpt lat="43.02744" lon="1.2901">
        <ele>431.596</ele>
        <time>2019-12-09T13:34:21Z</time>
      </trkpt>
      <trkpt lat="43.02716" lon="1.28894">
        <ele>443.984</ele>
        <time>2019-12-09T13:34:41Z</time>
      </trkpt>
      <trkpt lat="43.02689" lon="1.28838">
        <ele>446.935</ele>
        <time>2019-12-09T13:35:01Z</time>
      </trkpt>
      <trkpt lat="43.02658" lon="1.28815">
        <ele>454.12</ele>
        <time>2019-12-09T13:35:21Z</time>
      </trkpt>
      <trkpt lat="43.02573" lon="1.288">
        <ele>469.517</ele>
        <time>2019-12-09T13:35:41Z</time>
      </trkpt>
      <trkpt lat="43.02542" lon="1.28866">
        <ele>468.687</ele>
        <time>2019-12-09T13:36:01Z</time>
      </trkpt>
      <trkpt lat="43.02533" lon="1.28918">
        <ele>464.515</ele>
        <time>2019-12-09T13:36:21Z</time>
      </trkpt>
      <trkpt lat="43.0247" lon="1.29008">
        <ele>465.708</ele>
        <time>2019-12-09T13:36:41Z</time>
      </trkpt>
      <trkpt lat="43.02396" lon="1.28954">
        <ele>474.137</ele>
        <time>2019-12-09T13:37:01Z</time>
      </trkpt>
      <trkpt lat="43.02264" lon="1.28838">
        <ele>484.226</ele>
        <time>2019-12-09T13:37:21Z</time>
      </trkpt>
      <trkpt lat="43.02214" lon="1.28828">
        <ele>484.882</ele>
        <time>2019-12-09T13:37:41Z</time>
      </trkpt>
      <trkpt lat="43.02167" lon="1.28753">
        <ele>484.07</ele>
        <time>2019-12-09T13:38:01Z</time>
      </trkpt>
      <trkpt lat="43.02151" lon="1.2868">
        <ele>484.151</ele>
        <time>2019-12-09T13:38:21Z</time>
      </trkpt>
      <trkpt lat="43.02131" lon="1.28622">
        <ele>486.469</ele>
        <time>2019-12-09T13:38:41Z</time>
      </trkpt>
      <trkpt lat="43.02148" lon="1.28534">
        <ele>488.14</ele>
        <time>2019-12-09T13:39:01Z</time>
      </trkpt>
      <trkpt lat="43.0214" lon="1.28491">
        <ele>488.675</ele>
        <time>2019-12-09T13:39:21Z</time>
      </trkpt>
      <trkpt lat="43.02106" lon="1.28448">
        <ele>491.946</ele>
        <time>2019-12-09T13:39:41Z</time>
      </trkpt>
      <trkpt lat="43.02029" lon="1.28289">
        <ele>491.788</ele>
        <time>2019-12-09T13:40:01Z</time>
      </trkpt>
      <trkpt lat="43.01977" lon="1.28218">
        <ele>485.916</ele>
        <time>2019-12-09T13:40:21Z</time>
      </trkpt>
      <trkpt lat="43.01935" lon="1.28207">
        <ele>485.308</ele>
        <time>2019-12-09T13:40:41Z</time>
      </trkpt>
      <trkpt lat="43.01907" lon="1.28205">
        <ele>485.87</ele>
        <time>2019-12-09T13:41:01Z</time>
      </trkpt>
      <trkpt lat="43.01844" lon="1.2818">
        <ele>485.559</ele>
        <time>2019-12-09T13:41:21Z</time>
      </trkpt>
      <trkpt lat="43.01809" lon="1.2812">
        <ele>483.475</ele>
        <time>2019-12-09T13:41:41Z</time>
      </trkpt>
      <trkpt lat="43.01762" lon="1.28062">
        <ele>481.533</ele>
        <time>2019-12-09T13:42:01Z</time>
      </trkpt>
      <trkpt lat="43.01726" lon="1.28023">
        <ele>478.074</ele>
        <time>2019-12-09T13:42:21Z</time>
      </trkpt>
      <trkpt lat="43.01653" lon="1.27886">
        <ele>469.872</ele>
        <time>2019-12-09T13:42:41Z</time>
      </trkpt>
      <trkpt lat="43.01637" lon="1.27785">
        <ele>460.913</ele>
        <time>2019-12-09T13:43:01Z</time>
      </trkpt>
      <trkpt lat="43.0146" lon="1.27647">
        <ele>450.248</ele>
        <time>2019-12-09T13:43:21Z</time>
      </trkpt>
      <trkpt lat="43.01317" lon="1.27596">
        <ele>459.046</ele>
        <time>2019-12-09T13:43:41Z</time>
      </trkpt>
      <trkpt lat="43.01282" lon="1.27594">
        <ele>461.988</ele>
        <time>2019-12-09T13:44:01Z</time>
      </trkpt>
      <trkpt lat="43.01282" lon="1.27559">
        <ele>458.116</ele>
        <time>2019-12-09T13:44:21Z</time>
      </trkpt>
      <trkpt lat="43.01303" lon="1.27525">
        <ele>459.008</ele>
        <time>2019-12-09T13:44:41Z</time>
      </trkpt>
      <trkpt lat="43.01337" lon="1.27523">
        <ele>457.37</ele>
        <time>2019-12-09T13:45:01Z</time>
      </trkpt>
      <trkpt lat="43.01347" lon="1.27497">
        <ele>464.139</ele>
        <time>2019-12-09T13:45:21Z</time>
      </trkpt>
      <trkpt lat="43.01376" lon="1.2748">
        <ele>466.915</ele>
        <time>2019-12-09T13:45:41Z</time>
      </trkpt>
      <trkpt lat="43.01456" lon="1.27379">
        <ele>486.453</ele>
        <time>2019-12-09T13:46:01Z</time>
      </trkpt>
      <trkpt lat="43.01508" lon="1.27373">
        <ele>487.324</ele>
        <time>2019-12-09T13:46:21Z</time>
      </trkpt>
      <trkpt lat="43.0151" lon="1.27347">
        <ele>490.452</ele>
        <time>2019-12-09T13:46:41Z</time>
      </trkpt>
      <trkpt lat="43.01438" lon="1.27195">
        <ele>503.053</ele>
        <time>2019-12-09T13:47:01Z</time>
      </trkpt>
      <trkpt lat="43.01405" lon="1.27085">
        <ele>495.678</ele>
        <time>2019-12-09T13:47:21Z</time>
      </trkpt>
      <trkpt lat="43.01361" lon="1.27083">
        <ele>490.585</ele>
        <time>2019-12-09T13:47:41Z</time>
      </trkpt>
      <trkpt lat="43.01304" lon="1.27017">
        <ele>489.389</ele>
        <time>2019-12-09T13:48:01Z</time>
      </trkpt>
      <trkpt lat="43.01271" lon="1.26952">
        <ele>487.717</ele>
        <time>2019-12-09T13:48:21Z</time>
      </trkpt>
      <trkpt lat="43.01191" lon="1.26892">
        <ele>486.708</ele>
        <time>2019-12-09T13:48:41Z</time>
      </trkpt>
      <trkpt lat="43.01138" lon="1.26832">
        <ele>484.794</ele>
        <time>2019-12-09T13:49:01Z</time>
      </trkpt>
      <trkpt lat="43.0107" lon="1.26828">
        <ele>483.733</ele>
        <time>2019-12-09T13:49:21Z</time>
      </trkpt>
      <trkpt lat="43.00975" lon="1.26774">
        <ele>489.419</ele>
        <time>2019-12-09T13:49:41Z</time>
      </trkpt>
      <trkpt lat="43.00926" lon="1.26838">
        <ele>490.317</ele>
        <time>2019-12-09T13:50:01Z</time>
      </trkpt>
      <trkpt lat="43.0089" lon="1.26699">
        <ele>496.938</ele>
        <time>2019-12-09T13:50:21Z</time>
      </trkpt>
      <trkpt lat="43.00915" lon="1.26667">
        <ele>500.766</ele>
        <time>2019-12-09T13:50:41Z</time>
      </trkpt>
      <trkpt lat="43.00882" lon="1.26506">
        <ele>505.737</ele>
        <time>2019-12-09T13:51:01Z</time>
      </trkpt>
      <trkpt lat="43.00846" lon="1.26459">
        <ele>509.762</ele>
        <time>2019-12-09T13:51:21Z</time>
      </trkpt>
      <trkpt lat="43.00769" lon="1.26427">
        <ele>509.281</ele>
        <time>2019-12-09T13:51:41Z</time>
      </trkpt>
      <trkpt lat="43.00727" lon="1.26396">
        <ele>513.061</ele>
        <time>2019-12-09T13:52:01Z</time>
      </trkpt>
      <trkpt lat="43.00648" lon="1.26205">
        <ele>511.517</ele>
        <time>2019-12-09T13:52:21Z</time>
      </trkpt>
      <trkpt lat="43.00637" lon="1.26057">
        <ele>513.508</ele>
        <time>2019-12-09T13:52:41Z</time>
      </trkpt>
      <trkpt lat="43.00578" lon="1.25937">
        <ele>504.544</ele>
        <time>2019-12-09T13:53:01Z</time>
      </trkpt>
      <trkpt lat="43.00614" lon="1.25905">
        <ele>513.693</ele>
        <time>2019-12-09T13:53:21Z</time>
      </trkpt>
      <trkpt lat="43.00615" lon="1.25864">
        <ele>514.069</ele>
        <time>2019-12-09T13:53:41Z</time>
      </trkpt>
      <trkpt lat="43.00648" lon="1.25856">
        <ele>517.847</ele>
        <time>2019-12-09T13:54:01Z</time>
      </trkpt>
      <trkpt lat="43.00622" lon="1.25757">
        <ele>516.168</ele>
        <time>2019-12-09T13:54:21Z</time>
      </trkpt>
      <trkpt lat="43.00623" lon="1.25575">
        <ele>516.626</ele>
        <time>2019-12-09T13:54:41Z</time>
      </trkpt>
      <trkpt lat="43.00593" lon="1.25502">
        <ele>514.787</ele>
        <time>2019-12-09T13:55:01Z</time>
      </trkpt>
      <trkpt lat="43.00568" lon="1.25416">
        <ele>517.152</ele>
        <time>2019-12-09T13:55:21Z</time>
      </trkpt>
      <trkpt lat="43.00568" lon="1.25313">
        <ele>515.813</ele>
        <time>2019-12-09T13:55:41Z</time>
      </trkpt>
      <trkpt lat="43.00543" lon="1.25229">
        <ele>514.343</ele>
        <time>2019-12-09T13:56:01Z</time>
      </trkpt>
      <trkpt lat="43.00546" lon="1.25154">
        <ele>513.107</ele>
        <time>2019-12-09T13:56:21Z</time>
      </trkpt>
      <trkpt lat="43.00523" lon="1.25135">
        <ele>512.808</ele>
        <time>2019-12-09T13:56:41Z</time>
      </trkpt>
      <trkpt lat="43.0052" lon="1.25085">
        <ele>512.127</ele>
        <time>2019-12-09T13:57:01Z</time>
      </trkpt>
      <trkpt lat="43.00499" lon="1.2504">
        <ele>509.656</ele>
        <time>2019-12-09T13:57:21Z</time>
      </trkpt>
      <trkpt lat="43.0044" lon="1.25002">
        <ele>504.082</ele>
        <time>2019-12-09T13:57:41Z</time>
      </trkpt>
      <trkpt lat="43.00399" lon="1.24944">
        <ele>492.56</ele>
        <time>2019-12-09T13:58:01Z</time>
      </trkpt>
      <trkpt lat="43.00383" lon="1.24849">
        <ele>488.241</ele>
        <time>2019-12-09T13:58:21Z</time>
      </trkpt>
      <trkpt lat="43.00342" lon="1.24716">
        <ele>481.659</ele>
        <time>2019-12-09T13:58:41Z</time>
      </trkpt>
      <trkpt lat="43.00317" lon="1.24676">
        <ele>477.38</ele>
        <time>2019-12-09T13:59:01Z</time>
      </trkpt>
      <trkpt lat="43.00259" lon="1.24622">
        <ele>471.745</ele>
        <time>2019-12-09T13:59:21Z</time>
      </trkpt>
      <trkpt lat="43.00214" lon="1.24543">
        <ele>465.439</ele>
        <time>2019-12-09T13:59:41Z</time>
      </trkpt>
      <trkpt lat="43.00129" lon="1.24489">
        <ele>470.101</ele>
        <time>2019-12-09T14:00:01Z</time>
      </trkpt>
      <trkpt lat="43.00107" lon="1.24377">
        <ele>479.821</ele>
        <time>2019-12-09T14:00:21Z</time>
      </trkpt>
      <trkpt lat="43.00102" lon="1.24281">
        <ele>484.108</ele>
        <time>2019-12-09T14:00:41Z</time>
      </trkpt>
      <trkpt lat="43.00109" lon="1.24234">
        <ele>485.629</ele>
        <time>2019-12-09T14:01:01Z</time>
      </trkpt>
      <trkpt lat="43.00088" lon="1.24167">
        <ele>494.658</ele>
        <time>2019-12-09T14:01:21Z</time>
      </trkpt>
      <trkpt lat="43.00082" lon="1.2412">
        <ele>497.064</ele>
        <time>2019-12-09T14:01:41Z</time>
      </trkpt>
      <trkpt lat="43.00089" lon="1.24103">
        <ele>496.132</ele>
        <time>2021-02-06T02:42:11Z</time>
      </trkpt>
      <trkpt lat="43.00078" lon="1.24091">
        <ele>496.993</ele>
        <time>2021-02-06T02:42:31Z</time>
      </trkpt>
      <trkpt lat="43.00104" lon="1.24019">
        <ele>494.951</ele>
        <time>2021-02-06T02:42:51Z</time>
      </trkpt>
      <trkpt lat="43.00101" lon="1.23964">
        <ele>493.842</ele>
        <time>2021-02-06T02:43:11Z</time>
      </trkpt>
      <trkpt lat="43.00107" lon="1.2394">
        <ele>493.097</ele>
        <time>2021-02-06T02:43:31Z</time>
      </trkpt>
      <trkpt lat="43.00127" lon="1.23933">
        <ele>493.613</ele>
        <time>2021-02-06T02:43:51Z</time>
      </trkpt>
      <trkpt lat="43.00126" lon="1.23903">
        <ele>489.043</ele>
        <time>2019-12-09T14:02:21Z</time>
      </trkpt>
      <trkpt lat="43.00153" lon="1.23824">
        <ele>480.607</ele>
        <time>2021-02-06T02:44:31Z</time>
      </trkpt>
      <trkpt lat="43.00151" lon="1.238">
        <ele>475.808</ele>
        <time>2021-02-06T02:44:51Z</time>
      </trkpt>
      <trkpt lat="43.00079" lon="1.23802">
        <ele>474.467</ele>
        <time>2019-12-09T14:03:01Z</time>
      </trkpt>
      <trkpt lat="43.00025" lon="1.23761">
        <ele>470.846</ele>
        <time>2019-12-09T14:03:21Z</time>
      </trkpt>
      <trkpt lat="42.99981" lon="1.23753">
        <ele>465.822</ele>
        <time>2019-12-09T14:03:41Z</time>
      </trkpt>
      <trkpt lat="42.99966" lon="1.23719">
        <ele>457.93</ele>
        <time>2019-12-09T14:04:01Z</time>
      </trkpt>
      <trkpt lat="42.99925" lon="1.23716">
        <ele>455.511</ele>
        <time>2019-12-09T14:04:21Z</time>
      </trkpt>
      <trkpt lat="42.99872" lon="1.238">
        <ele>452.259</ele>
        <time>2019-12-09T14:04:41Z</time>
      </trkpt>
      <trkpt lat="42.9989" lon="1.23699">
        <ele>447.05</ele>
        <time>2019-12-09T14:05:01Z</time>
      </trkpt>
      <trkpt lat="42.99961" lon="1.23626">
        <ele>446.715</ele>
        <time>2019-12-09T14:05:21Z</time>
      </trkpt>
      <trkpt lat="43" lon="1.23616">
        <ele>447.843</ele>
        <time>2019-12-09T14:05:41Z</time>
      </trkpt>
      <trkpt lat="42.99983" lon="1.23568">
        <ele>441.164</ele>
        <time>2019-12-09T14:06:01Z</time>
      </trkpt>
      <trkpt lat="43.00008" lon="1.2353">
        <ele>440.51</ele>
        <time>2019-12-09T14:06:21Z</time>
      </trkpt>
      <trkpt lat="43.00033" lon="1.23457">
        <ele>439.808</ele>
        <time>2019-12-09T14:06:41Z</time>
      </trkpt>
      <trkpt lat="43.00038" lon="1.23377">
        <ele>439.85</ele>
        <time>2019-12-09T14:07:01Z</time>
      </trkpt>
      <trkpt lat="43.00094" lon="1.23367">
        <ele>445.579</ele>
        <time>2019-12-09T14:07:21Z</time>
      </trkpt>
      <trkpt lat="43.00102" lon="1.23337">
        <ele>445.495</ele>
        <time>2019-12-09T14:07:41Z</time>
      </trkpt>
      <trkpt lat="43.00047" lon="1.23259">
        <ele>443.483</ele>
        <time>2019-12-09T14:08:01Z</time>
      </trkpt>
      <trkpt lat="43.00041" lon="1.23098">
        <ele>449.374</ele>
        <time>2019-12-09T14:08:21Z</time>
      </trkpt>
      <trkpt lat="43.0006" lon="1.22995">
        <ele>455.812</ele>
        <time>2019-12-09T14:08:41Z</time>
      </trkpt>
      <trkpt lat="43.00061" lon="1.22905">
        <ele>458.723</ele>
        <time>2019-12-09T14:09:01Z</time>
      </trkpt>
      <trkpt lat="43.00047" lon="1.22654">
        <ele>465.428</ele>
        <time>2019-12-09T14:09:21Z</time>
      </trkpt>
      <trkpt lat="43.00033" lon="1.22547">
        <ele>469.631</ele>
        <time>2019-12-09T14:09:41Z</time>
      </trkpt>
      <trkpt lat="43.00065" lon="1.22386">
        <ele>483.661</ele>
        <time>2019-12-09T14:10:01Z</time>
      </trkpt>
      <trkpt lat="43.00082" lon="1.22124">
        <ele>496.607</ele>
        <time>2019-12-09T14:10:21Z</time>
      </trkpt>
      <trkpt lat="43.00072" lon="1.22002">
        <ele>492.608</ele>
        <time>2019-12-09T14:10:41Z</time>
      </trkpt>
      <trkpt lat="43.00094" lon="1.21978">
        <ele>487.759</ele>
        <time>2019-12-09T14:11:01Z</time>
      </trkpt>
      <trkpt lat="43.00116" lon="1.21908">
        <ele>484.788</ele>
        <time>2019-12-09T14:11:21Z</time>
      </trkpt>
      <trkpt lat="43.00167" lon="1.21671">
        <ele>472.214</ele>
        <time>2019-12-09T14:11:41Z</time>
      </trkpt>
      <trkpt lat="43.00242" lon="1.2145">
        <ele>468.972</ele>
        <time>2019-12-09T14:12:01Z</time>
      </trkpt>
      <trkpt lat="43.00267" lon="1.21315">
        <ele>461.843</ele>
        <time>2019-12-09T14:12:21Z</time>
      </trkpt>
      <trkpt lat="43.00303" lon="1.2124">
        <ele>455.961</ele>
        <time>2019-12-09T14:12:41Z</time>
      </trkpt>
      <trkpt lat="43.00306" lon="1.21174">
        <ele>455.072</ele>
        <time>2019-12-09T14:13:01Z</time>
      </trkpt>
      <trkpt lat="43.00346" lon="1.21092">
        <ele>449.837</ele>
        <time>2019-12-09T14:13:21Z</time>
      </trkpt>
      <trkpt lat="43.00469" lon="1.20496">
        <ele>442.242</ele>
        <time>2019-12-09T14:13:41Z</time>
      </trkpt>
      <trkpt lat="43.00488" lon="1.20101">
        <ele>442.922</ele>
        <time>2019-12-09T14:14:01Z</time>
      </trkpt>
      <trkpt lat="43.0054" lon="1.19906">
        <ele>446.514</ele>
        <time>2019-12-09T14:14:21Z</time>
      </trkpt>
      <trkpt lat="43.00402" lon="1.19689">
        <ele>433.908</ele>
        <time>2019-12-09T14:14:41Z</time>
      </trkpt>
      <trkpt lat="43.00311" lon="1.19695">
        <ele>430.75</ele>
        <time>2019-12-09T14:15:01Z</time>
      </trkpt>
      <trkpt lat="43.00265" lon="1.19695">
        <ele>431.019</ele>
        <time>2019-12-09T14:15:21Z</time>
      </trkpt>
      <trkpt lat="43.00079" lon="1.19788">
        <ele>428.825</ele>
        <time>2019-12-09T14:15:41Z</time>
      </trkpt>
      <trkpt lat="42.9998" lon="1.19803">
        <ele>427.453</ele>
        <time>2019-12-09T14:16:01Z</time>
      </trkpt>
      <trkpt lat="42.99972" lon="1.19719">
        <ele>429.154</ele>
        <time>2019-12-09T14:16:21Z</time>
      </trkpt>
      <trkpt lat="42.99941" lon="1.19536">
        <ele>432.792</ele>
        <time>2019-12-09T14:16:41Z</time>
      </trkpt>
      <trkpt lat="42.9992" lon="1.1947">
        <ele>434.513</ele>
        <time>2019-12-09T14:17:01Z</time>
      </trkpt>
      <trkpt lat="42.99916" lon="1.19401">
        <ele>432.468</ele>
        <time>2019-12-09T14:17:21Z</time>
      </trkpt>
      <trkpt lat="42.99933" lon="1.19335">
        <ele>434.176</ele>
        <time>2019-12-09T14:17:41Z</time>
      </trkpt>
      <trkpt lat="42.99916" lon="1.19258">
        <ele>433.59</ele>
        <time>2019-12-09T14:18:01Z</time>
      </trkpt>
      <trkpt lat="42.99923" lon="1.19195">
        <ele>440.519</ele>
        <time>2019-12-09T14:18:21Z</time>
      </trkpt>
      <trkpt lat="42.9992" lon="1.19103">
        <ele>441.908</ele>
        <time>2019-12-09T14:18:41Z</time>
      </trkpt>
      <trkpt lat="42.99945" lon="1.18989">
        <ele>442.613</ele>
        <time>2019-12-09T14:19:01Z</time>
      </trkpt>
      <trkpt lat="42.99919" lon="1.18903">
        <ele>443.342</ele>
        <time>2019-12-09T14:19:21Z</time>
      </trkpt>
      <trkpt lat="42.99906" lon="1.18788">
        <ele>438.718</ele>
        <time>2019-12-09T14:19:41Z</time>
      </trkpt>
      <trkpt lat="42.99845" lon="1.18768">
        <ele>439.816</ele>
        <time>2019-12-09T14:20:01Z</time>
      </trkpt>
      <trkpt lat="42.99846" lon="1.18687">
        <ele>433.437</ele>
        <time>2019-12-09T14:20:21Z</time>
      </trkpt>
      <trkpt lat="42.99807" lon="1.18642">
        <ele>438.235</ele>
        <time>2019-12-09T14:20:41Z</time>
      </trkpt>
      <trkpt lat="42.99804" lon="1.18554">
        <ele>432.616</ele>
        <time>2019-12-09T14:21:01Z</time>
      </trkpt>
      <trkpt lat="42.99857" lon="1.18386">
        <ele>428.741</ele>
        <time>2019-12-09T14:21:21Z</time>
      </trkpt>
      <trkpt lat="42.999" lon="1.18249">
        <ele>445.556</ele>
        <time>2019-12-09T14:21:41Z</time>
      </trkpt>
      <trkpt lat="42.99937" lon="1.18187">
        <ele>449.659</ele>
        <time>2019-12-09T14:22:01Z</time>
      </trkpt>
      <trkpt lat="43.00057" lon="1.17893">
        <ele>438.014</ele>
        <time>2019-12-09T14:22:21Z</time>
      </trkpt>
      <trkpt lat="43.0008" lon="1.17856">
        <ele>437.208</ele>
        <time>2019-12-09T14:22:41Z</time>
      </trkpt>
      <trkpt lat="43.0012" lon="1.17614">
        <ele>432.531</ele>
        <time>2019-12-09T14:23:01Z</time>
      </trkpt>
      <trkpt lat="43.00093" lon="1.17552">
        <ele>432.82</ele>
        <time>2019-12-09T14:23:21Z</time>
      </trkpt>
      <trkpt lat="43.00061" lon="1.17412">
        <ele>434.426</ele>
        <time>2019-12-09T14:23:41Z</time>
      </trkpt>
      <trkpt lat="42.99996" lon="1.17316">
        <ele>436.064</ele>
        <time>2019-12-09T14:24:01Z</time>
      </trkpt>
      <trkpt lat="42.99969" lon="1.17221">
        <ele>439.365</ele>
        <time>2019-12-09T14:24:21Z</time>
      </trkpt>
      <trkpt lat="42.99884" lon="1.17146">
        <ele>439.813</ele>
        <time>2019-12-09T14:24:41Z</time>
      </trkpt>
      <trkpt lat="42.99862" lon="1.17071">
        <ele>444.354</ele>
        <time>2019-12-09T14:25:01Z</time>
      </trkpt>
      <trkpt lat="42.9992" lon="1.16792">
        <ele>432.029</ele>
        <time>2019-12-09T14:25:21Z</time>
      </trkpt>
      <trkpt lat="42.99945" lon="1.16668">
        <ele>424.194</ele>
        <time>2019-12-09T14:25:41Z</time>
      </trkpt>
      <trkpt lat="42.99941" lon="1.16584">
        <ele>420.157</ele>
        <time>2019-12-09T14:26:01Z</time>
      </trkpt>
      <trkpt lat="42.99959" lon="1.16528">
        <ele>418.122</ele>
        <time>2019-12-09T14:26:21Z</time>
      </trkpt>
      <trkpt lat="42.99956" lon="1.16388">
        <ele>423.008</ele>
        <time>2021-02-06T03:08:51Z</time>
      </trkpt>
      <trkpt lat="42.99971" lon="1.1634">
        <ele>427.135</ele>
        <time>2021-02-06T03:09:11Z</time>
      </trkpt>
      <trkpt lat="42.99989" lon="1.16197">
        <ele>436.574</ele>
        <time>2021-02-06T03:09:31Z</time>
      </trkpt>
      <trkpt lat="43.00003" lon="1.16169">
        <ele>439.18</ele>
        <time>2021-02-06T03:09:51Z</time>
      </trkpt>
      <trkpt lat="43" lon="1.16117">
        <ele>443.168</ele>
        <time>2021-02-06T03:10:11Z</time>
      </trkpt>
      <trkpt lat="42.99983" lon="1.1605">
        <ele>447.329</ele>
        <time>2021-02-06T03:10:31Z</time>
      </trkpt>
      <trkpt lat="43.00082" lon="1.1605">
        <ele>453.967</ele>
        <time>2021-02-06T03:10:51Z</time>
      </trkpt>
      <trkpt lat="43.00075" lon="1.15991">
        <ele>457.058</ele>
        <time>2021-02-06T03:11:11Z</time>
      </trkpt>
      <trkpt lat="43.00129" lon="1.15954">
        <ele>457.033</ele>
        <time>2021-02-06T03:11:31Z</time>
      </trkpt>
      <trkpt lat="43.00104" lon="1.15773">
        <ele>467.053</ele>
        <time>2019-12-09T14:29:01Z</time>
      </trkpt>
      <trkpt lat="43.00131" lon="1.15683">
        <ele>467.004</ele>
        <time>2019-12-09T14:29:21Z</time>
      </trkpt>
      <trkpt lat="43.00129" lon="1.15571">
        <ele>466.714</ele>
        <time>2019-12-09T14:29:41Z</time>
      </trkpt>
      <trkpt lat="43.00093" lon="1.15483">
        <ele>470.208</ele>
        <time>2019-12-09T14:30:01Z</time>
      </trkpt>
      <trkpt lat="43.00082" lon="1.15324">
        <ele>470.221</ele>
        <time>2019-12-09T14:30:21Z</time>
      </trkpt>
      <trkpt lat="43.0011" lon="1.14925">
        <ele>472.11</ele>
        <time>2019-12-09T14:30:41Z</time>
      </trkpt>
      <trkpt lat="43.00115" lon="1.14651">
        <ele>457.586</ele>
        <time>2019-12-09T14:31:01Z</time>
      </trkpt>
      <trkpt lat="43.00134" lon="1.14558">
        <ele>455.594</ele>
        <time>2019-12-09T14:31:21Z</time>
      </trkpt>
      <trkpt lat="43.00131" lon="1.14455">
        <ele>452.695</ele>
        <time>2019-12-09T14:31:41Z</time>
      </trkpt>
      <trkpt lat="43.00151" lon="1.14281">
        <ele>440.043</ele>
        <time>2019-12-09T14:32:01Z</time>
      </trkpt>
      <trkpt lat="43.00174" lon="1.14187">
        <ele>429.544</ele>
        <time>2019-12-09T14:32:21Z</time>
      </trkpt>
      <trkpt lat="43.00178" lon="1.14088">
        <ele>423.939</ele>
        <time>2019-12-09T14:32:41Z</time>
      </trkpt>
      <trkpt lat="43.00209" lon="1.14026">
        <ele>422.356</ele>
        <time>2019-12-09T14:33:01Z</time>
      </trkpt>
      <trkpt lat="43.0022" lon="1.13966">
        <ele>423.259</ele>
        <time>2019-12-09T14:33:21Z</time>
      </trkpt>
      <trkpt lat="43.00209" lon="1.13902">
        <ele>426.914</ele>
        <time>2019-12-09T14:33:41Z</time>
      </trkpt>
      <trkpt lat="43.00195" lon="1.13863">
        <ele>427.108</ele>
        <time>2019-12-09T14:34:01Z</time>
      </trkpt>
      <trkpt lat="43.00189" lon="1.1379">
        <ele>433.761</ele>
        <time>2019-12-09T14:34:21Z</time>
      </trkpt>
      <trkpt lat="43.0016" lon="1.13791">
        <ele>424.56</ele>
        <time>2019-12-09T14:34:41Z</time>
      </trkpt>
      <trkpt lat="43.00176" lon="1.1376">
        <ele>433.486</ele>
        <time>2019-12-09T14:35:01Z</time>
      </trkpt>
      <trkpt lat="43.00179" lon="1.13735">
        <ele>435.064</ele>
        <time>2019-12-09T14:35:21Z</time>
      </trkpt>
      <trkpt lat="43.00194" lon="1.13727">
        <ele>436.625</ele>
        <time>2019-12-09T14:35:41Z</time>
      </trkpt>
      <trkpt lat="43.00198" lon="1.13653">
        <ele>432.393</ele>
        <time>2019-12-09T14:36:01Z</time>
      </trkpt>
      <trkpt lat="43.00165" lon="1.13608">
        <ele>418.334</ele>
        <time>2019-12-09T14:36:21Z</time>
      </trkpt>
      <trkpt lat="43.00145" lon="1.13594">
        <ele>417.199</ele>
        <time>2019-12-09T14:36:41Z</time>
      </trkpt>
      <trkpt lat="43.00025" lon="1.13569">
        <ele>391.026</ele>
        <time>2019-12-09T14:37:01Z</time>
      </trkpt>
      <trkpt lat="43.00046" lon="1.13509">
        <ele>388.947</ele>
        <time>2019-12-09T14:37:21Z</time>
      </trkpt>
      <trkpt lat="43.00027" lon="1.13432">
        <ele>390.511</ele>
        <time>2019-12-09T14:37:41Z</time>
      </trkpt>
      <trkpt lat="42.99873" lon="1.13503">
        <ele>385.908</ele>
        <time>2019-12-09T14:38:01Z</time>
      </trkpt>
      <trkpt lat="42.99862" lon="1.13453">
        <ele>394.388</ele>
        <time>2019-12-09T14:38:21Z</time>
      </trkpt>
      <trkpt lat="42.99771" lon="1.13438">
        <ele>399.417</ele>
        <time>2019-12-09T14:38:41Z</time>
      </trkpt>
      <trkpt lat="42.99735" lon="1.13449">
        <ele>405.323</ele>
        <time>2019-12-09T14:39:01Z</time>
      </trkpt>
      <trkpt lat="42.99666" lon="1.13408">
        <ele>414.781</ele>
        <time>2019-12-09T14:39:21Z</time>
      </trkpt>
      <trkpt lat="42.996" lon="1.13442">
        <ele>414.982</ele>
        <time>2019-12-09T14:39:41Z</time>
      </trkpt>
      <trkpt lat="42.99526" lon="1.13453">
        <ele>418.19</ele>
        <time>2019-12-09T14:40:01Z</time>
      </trkpt>
      <trkpt lat="42.99467" lon="1.13483">
        <ele>418.211</ele>
        <time>2019-12-09T14:40:21Z</time>
      </trkpt>
      <trkpt lat="42.99383" lon="1.13475">
        <ele>416.536</ele>
        <time>2019-12-09T14:40:41Z</time>
      </trkpt>
      <trkpt lat="42.99327" lon="1.13412">
        <ele>418.651</ele>
        <time>2019-12-09T14:41:01Z</time>
      </trkpt>
      <trkpt lat="42.99236" lon="1.134">
        <ele>413.601</ele>
        <time>2019-12-09T14:41:21Z</time>
      </trkpt>
      <trkpt lat="42.99128" lon="1.13348">
        <ele>415.111</ele>
        <time>2019-12-09T14:41:41Z</time>
      </trkpt>
      <trkpt lat="42.98996" lon="1.1337">
        <ele>418.608</ele>
        <time>2019-12-09T14:42:01Z</time>
      </trkpt>
      <trkpt lat="42.989" lon="1.13346">
        <ele>419.981</ele>
        <time>2019-12-09T14:42:21Z</time>
      </trkpt>
      <trkpt lat="42.98764" lon="1.13234">
        <ele>425.86</ele>
        <time>2019-12-09T14:42:41Z</time>
      </trkpt>
      <trkpt lat="42.98691" lon="1.13194">
        <ele>424.566</ele>
        <time>2019-12-09T14:43:01Z</time>
      </trkpt>
      <trkpt lat="42.98616" lon="1.13136">
        <ele>425.114</ele>
        <time>2019-12-09T14:43:21Z</time>
      </trkpt>
      <trkpt lat="42.98563" lon="1.13095">
        <ele>424.665</ele>
        <time>2019-12-09T14:43:41Z</time>
      </trkpt>
      <trkpt lat="42.98532" lon="1.13065">
        <ele>425.7</ele>
      </trkpt>
      <trkpt lat="42.98479" lon="1.13015">
        <ele>426.5</ele>
      </trkpt>
      <trkpt lat="42.98452" lon="1.12989">
        <ele>426.2</ele>
      </trkpt>
      <trkpt lat="42.98446" lon="1.12983">
        <ele>426.2</ele>
      </trkpt>
      <trkpt lat="42.98426" lon="1.12969">
        <ele>425.9</ele>
      </trkpt>
      <trkpt lat="42.98385" lon="1.12934">
        <ele>426.1</ele>
      </trkpt>
      <trkpt lat="42.98335" lon="1.12885">
        <ele>426.2</ele>
      </trkpt>
      <trkpt lat="42.98304" lon="1.12839">
        <ele>426</ele>
      </trkpt>
      <trkpt lat="42.98302" lon="1.12835">
        <ele>426.1</ele>
      </trkpt>
      <trkpt lat="42.98285" lon="1.1281">
        <ele>426.1</ele>
      </trkpt>
      <trkpt lat="42.98283" lon="1.12806">
        <ele>426.1</ele>
      </trkpt>
      <trkpt lat="42.98281" lon="1.12798">
        <ele>426.3</ele>
      </trkpt>
      <trkpt lat="42.98255" lon="1.12778">
        <ele>425.3</ele>
      </trkpt>
      <trkpt lat="42.98249" lon="1.12773">
        <ele>425.1</ele>
      </trkpt>
      <trkpt lat="42.98209" lon="1.12741">
        <ele>424</ele>
      </trkpt>
      <trkpt lat="42.98185" lon="1.12733">
        <ele>423</ele>
      </trkpt>
      <trkpt lat="42.98177" lon="1.1273">
        <ele>422.8</ele>
      </trkpt>
      <trkpt lat="42.98162" lon="1.12726">
        <ele>422.1</ele>
      </trkpt>
      <trkpt lat="42.98135" lon="1.1271">
        <ele>421.1</ele>
      </trkpt>
      <trkpt lat="42.98101" lon="1.12677">
        <ele>420.1</ele>
      </trkpt>
      <trkpt lat="42.98075" lon="1.12653">
        <ele>419</ele>
      </trkpt>
      <trkpt lat="42.98057" lon="1.12637">
        <ele>418.2</ele>
      </trkpt>
      <trkpt lat="42.98026" lon="1.12604">
        <ele>417.2</ele>
      </trkpt>
      <trkpt lat="42.97968" lon="1.12528">
        <ele>419.4</ele>
      </trkpt>
      <trkpt lat="42.97947" lon="1.12502">
        <ele>420.6</ele>
      </trkpt>
      <trkpt lat="42.97929" lon="1.12484">
        <ele>421.2</ele>
      </trkpt>
      <trkpt lat="42.97912" lon="1.12462">
        <ele>421.5</ele>
      </trkpt>
      <trkpt lat="42.97911" lon="1.12456">
        <ele>421.8</ele>
      </trkpt>
      <trkpt lat="42.97914" lon="1.1242">
        <ele>425.2</ele>
      </trkpt>
      <trkpt lat="42.9791" lon="1.12409">
        <ele>425.4</ele>
      </trkpt>
      <trkpt lat="42.97889" lon="1.12395">
        <ele>422.6</ele>
      </trkpt>
      <trkpt lat="42.97883" lon="1.12385">
        <ele>422.1</ele>
      </trkpt>
      <trkpt lat="42.97859" lon="1.12287">
        <ele>422.5</ele>
      </trkpt>
      <trkpt lat="42.97851" lon="1.12263">
        <ele>422.1</ele>
      </trkpt>
      <trkpt lat="42.97845" lon="1.12251">
        <ele>421.8</ele>
      </trkpt>
      <trkpt lat="42.97836" lon="1.12235">
        <ele>420.9</ele>
      </trkpt>
      <trkpt lat="42.97831" lon="1.12227">
        <ele>420.7</ele>
      </trkpt>
      <trkpt lat="42.97817" lon="1.12231">
        <ele>419.4</ele>
      </trkpt>
      <trkpt lat="42.97805" lon="1.12257">
        <ele>416.5</ele>
      </trkpt>
      <trkpt lat="42.9775" lon="1.12194">
        <ele>419.7</ele>
      </trkpt>
      <trkpt lat="42.9773" lon="1.12161">
        <ele>421.2</ele>
      </trkpt>
      <trkpt lat="42.9772" lon="1.12146">
        <ele>421.2</ele>
      </trkpt>
      <trkpt lat="42.97694" lon="1.12083">
        <ele>425.7</ele>
      </trkpt>
      <trkpt lat="42.97677" lon="1.12064">
        <ele>428</ele>
      </trkpt>
      <trkpt lat="42.97624" lon="1.12014">
        <ele>433.7</ele>
      </trkpt>
      <trkpt lat="42.97561" lon="1.11946">
        <ele>432.4</ele>
      </trkpt>
      <trkpt lat="42.97498" lon="1.11881">
        <ele>433.9</ele>
      </trkpt>
      <trkpt lat="42.97457" lon="1.11849">
        <ele>435.1</ele>
      </trkpt>
      <trkpt lat="42.97367" lon="1.11752">
        <ele>436.2</ele>
      </trkpt>
      <trkpt lat="42.97358" lon="1.11741">
        <ele>435.6</ele>
      </trkpt>
      <trkpt lat="42.97316" lon="1.11693">
        <ele>431.8</ele>
      </trkpt>
      <trkpt lat="42.97309" lon="1.11685">
        <ele>431.2</ele>
      </trkpt>
      <trkpt lat="42.97238" lon="1.11601">
        <ele>427.2</ele>
      </trkpt>
      <trkpt lat="42.97217" lon="1.1158">
        <ele>425</ele>
      </trkpt>
      <trkpt lat="42.97207" lon="1.11567">
        <ele>424.1</ele>
      </trkpt>
      <trkpt lat="42.972" lon="1.1155">
        <ele>423.6</ele>
      </trkpt>
      <trkpt lat="42.97198" lon="1.11526">
        <ele>424.1</ele>
      </trkpt>
      <trkpt lat="42.97198" lon="1.11491">
        <ele>424.9</ele>
      </trkpt>
      <trkpt lat="42.97193" lon="1.11447">
        <ele>423</ele>
      </trkpt>
      <trkpt lat="42.97167" lon="1.11374">
        <ele>419</ele>
      </trkpt>
      <trkpt lat="42.97147" lon="1.11334">
        <ele>418.8</ele>
      </trkpt>
      <trkpt lat="42.97142" lon="1.11327">
        <ele>418.8</ele>
      </trkpt>
      <trkpt lat="42.97132" lon="1.11296">
        <ele>419.3</ele>
      </trkpt>
      <trkpt lat="42.96999" lon="1.10962">
        <ele>418.5</ele>
      </trkpt>
      <trkpt lat="42.96983" lon="1.10923">
        <ele>418.9</ele>
      </trkpt>
      <trkpt lat="42.9697" lon="1.10934">
        <ele>418.8</ele>
      </trkpt>
      <trkpt lat="42.96955" lon="1.10945">
        <ele>418.7</ele>
      </trkpt>
      <trkpt lat="42.96949" lon="1.10945">
        <ele>418.7</ele>
      </trkpt>
      <trkpt lat="42.96941" lon="1.10938">
        <ele>418.7</ele>
      </trkpt>
      <trkpt lat="42.96924" lon="1.10893">
        <ele>419.3</ele>
      </trkpt>
      <trkpt lat="42.9692" lon="1.10882">
        <ele>419.4</ele>
      </trkpt>
      <trkpt lat="42.96912" lon="1.10865">
        <ele>419.5</ele>
      </trkpt>
      <trkpt lat="42.96906" lon="1.10854">
        <ele>419.6</ele>
      </trkpt>
      <trkpt lat="42.96859" lon="1.1079">
        <ele>420</ele>
      </trkpt>
      <trkpt lat="42.96787" lon="1.10696">
        <ele>419.9</ele>
      </trkpt>
      <trkpt lat="42.96753" lon="1.10643">
        <ele>420.6</ele>
      </trkpt>
      <trkpt lat="42.96707" lon="1.10588">
        <ele>421.4</ele>
      </trkpt>
      <trkpt lat="42.96658" lon="1.10514">
        <ele>422.5</ele>
      </trkpt>
      <trkpt lat="42.96624" lon="1.10467">
        <ele>422.4</ele>
      </trkpt>
      <trkpt lat="42.96617" lon="1.10454">
        <ele>422.5</ele>
      </trkpt>
      <trkpt lat="42.96613" lon="1.10439">
        <ele>422.7</ele>
      </trkpt>
      <trkpt lat="42.9661" lon="1.10427">
        <ele>422.8</ele>
      </trkpt>
      <trkpt lat="42.96603" lon="1.10396">
        <ele>423.4</ele>
      </trkpt>
      <trkpt lat="42.96595" lon="1.10375">
        <ele>423.9</ele>
      </trkpt>
      <trkpt lat="42.96587" lon="1.10358">
        <ele>424.4</ele>
      </trkpt>
      <trkpt lat="42.96573" lon="1.10332">
        <ele>424.5</ele>
      </trkpt>
      <trkpt lat="42.96565" lon="1.10321">
        <ele>424.4</ele>
      </trkpt>
      <trkpt lat="42.96557" lon="1.10328">
        <ele>423.9</ele>
      </trkpt>
      <trkpt lat="42.96523" lon="1.10355">
        <ele>422.3</ele>
      </trkpt>
      <trkpt lat="42.96517" lon="1.10357">
        <ele>422.2</ele>
      </trkpt>
      <trkpt lat="42.96507" lon="1.10357">
        <ele>421.8</ele>
      </trkpt>
      <trkpt lat="42.96499" lon="1.10353">
        <ele>421.7</ele>
      </trkpt>
      <trkpt lat="42.96491" lon="1.10347">
        <ele>423.1</ele>
      </trkpt>
      <trkpt lat="42.96482" lon="1.10339">
        <ele>424.5</ele>
      </trkpt>
      <trkpt lat="42.96474" lon="1.10328">
        <ele>425.8</ele>
      </trkpt>
      <trkpt lat="42.96465" lon="1.10308">
        <ele>427.4</ele>
      </trkpt>
      <trkpt lat="42.9646" lon="1.10296">
        <ele>428.1</ele>
      </trkpt>
      <trkpt lat="42.96457" lon="1.10292">
        <ele>428.4</ele>
      </trkpt>
      <trkpt lat="42.96455" lon="1.10285">
        <ele>428.6</ele>
      </trkpt>
      <trkpt lat="42.96445" lon="1.10257">
        <ele>429.1</ele>
      </trkpt>
      <trkpt lat="42.96444" lon="1.10255">
        <ele>429.2</ele>
      </trkpt>
      <trkpt lat="42.96437" lon="1.10231">
        <ele>428.3</ele>
      </trkpt>
      <trkpt lat="42.96437" lon="1.10226">
        <ele>428</ele>
      </trkpt>
      <trkpt lat="42.96433" lon="1.10225">
        <ele>428.1</ele>
      </trkpt>
      <trkpt lat="42.96428" lon="1.10222">
        <ele>428.2</ele>
      </trkpt>
      <trkpt lat="42.96411" lon="1.10206">
        <ele>428.4</ele>
      </trkpt>
      <trkpt lat="42.96394" lon="1.10179">
        <ele>428.5</ele>
      </trkpt>
      <trkpt lat="42.96365" lon="1.10152">
        <ele>429.8</ele>
      </trkpt>
      <trkpt lat="42.96361" lon="1.10149">
        <ele>430</ele>
      </trkpt>
      <trkpt lat="42.96343" lon="1.10128">
        <ele>430</ele>
      </trkpt>
      <trkpt lat="42.96339" lon="1.10114">
        <ele>428.9</ele>
      </trkpt>
      <trkpt lat="42.96336" lon="1.10107">
        <ele>428.4</ele>
      </trkpt>
      <trkpt lat="42.96333" lon="1.1009">
        <ele>426.8</ele>
      </trkpt>
      <trkpt lat="42.96329" lon="1.10026">
        <ele>425.7</ele>
      </trkpt>
      <trkpt lat="42.96327" lon="1.09997">
        <ele>425.3</ele>
      </trkpt>
      <trkpt lat="42.96325" lon="1.0998">
        <ele>425.3</ele>
      </trkpt>
      <trkpt lat="42.96321" lon="1.09949">
        <ele>425.3</ele>
      </trkpt>
      <trkpt lat="42.963" lon="1.09895">
        <ele>425.4</ele>
      </trkpt>
      <trkpt lat="42.96294" lon="1.09883">
        <ele>425.5</ele>
      </trkpt>
      <trkpt lat="42.96282" lon="1.09867">
        <ele>425.6</ele>
      </trkpt>
      <trkpt lat="42.96261" lon="1.09833">
        <ele>425.9</ele>
      </trkpt>
      <trkpt lat="42.96258" lon="1.09824">
        <ele>426</ele>
      </trkpt>
      <trkpt lat="42.9626" lon="1.09817">
        <ele>426.1</ele>
      </trkpt>
      <trkpt lat="42.96262" lon="1.09809">
        <ele>426.2</ele>
      </trkpt>
      <trkpt lat="42.96272" lon="1.0979">
        <ele>426.4</ele>
      </trkpt>
      <trkpt lat="42.96303" lon="1.0975">
        <ele>427</ele>
      </trkpt>
      <trkpt lat="42.96331" lon="1.09702">
        <ele>428.7</ele>
      </trkpt>
      <trkpt lat="42.96358" lon="1.09665">
        <ele>429.7</ele>
      </trkpt>
      <trkpt lat="42.96356" lon="1.09661">
        <ele>429.8</ele>
      </trkpt>
      <trkpt lat="42.96337" lon="1.09622">
        <ele>431</ele>
      </trkpt>
      <trkpt lat="42.96333" lon="1.09607">
        <ele>431.4</ele>
      </trkpt>
      <trkpt lat="42.96334" lon="1.09595">
        <ele>431.7</ele>
      </trkpt>
      <trkpt lat="42.96347" lon="1.09579">
        <ele>431.6</ele>
      </trkpt>
      <trkpt lat="42.96341" lon="1.09567">
        <ele>432.1</ele>
      </trkpt>
      <trkpt lat="42.96302" lon="1.09508">
        <ele>432.7</ele>
      </trkpt>
      <trkpt lat="42.96295" lon="1.09495">
        <ele>432.7</ele>
      </trkpt>
      <trkpt lat="42.96281" lon="1.0947">
        <ele>432.7</ele>
      </trkpt>
      <trkpt lat="42.96253" lon="1.09386">
        <ele>433.4</ele>
      </trkpt>
      <trkpt lat="42.96304" lon="1.09328">
        <ele>434.2</ele>
      </trkpt>
      <trkpt lat="42.96302" lon="1.09326">
        <ele>434.3</ele>
      </trkpt>
      <trkpt lat="42.96268" lon="1.09294">
        <ele>434.9</ele>
      </trkpt>
      <trkpt lat="42.96259" lon="1.09297">
        <ele>434.6</ele>
      </trkpt>
      <trkpt lat="42.96248" lon="1.093">
        <ele>434.4</ele>
      </trkpt>
      <trkpt lat="42.96244" lon="1.09299">
        <ele>434.3</ele>
      </trkpt>
      <trkpt lat="42.96233" lon="1.09297">
        <ele>434</ele>
      </trkpt>
      <trkpt lat="42.96221" lon="1.09291">
        <ele>433.8</ele>
      </trkpt>
      <trkpt lat="42.96209" lon="1.0928">
        <ele>433.7</ele>
      </trkpt>
      <trkpt lat="42.962" lon="1.09268">
        <ele>433.6</ele>
      </trkpt>
      <trkpt lat="42.96193" lon="1.09254">
        <ele>433.6</ele>
      </trkpt>
      <trkpt lat="42.96187" lon="1.09225">
        <ele>435.1</ele>
      </trkpt>
      <trkpt lat="42.96193" lon="1.09213">
        <ele>436.1</ele>
      </trkpt>
      <trkpt lat="42.96185" lon="1.09198">
        <ele>436.6</ele>
      </trkpt>
      <trkpt lat="42.9616" lon="1.09155">
        <ele>437.3</ele>
      </trkpt>
      <trkpt lat="42.96136" lon="1.09114">
        <ele>437.4</ele>
      </trkpt>
      <trkpt lat="42.96131" lon="1.09096">
        <ele>437.6</ele>
      </trkpt>
      <trkpt lat="42.96126" lon="1.09085">
        <ele>437.5</ele>
      </trkpt>
      <trkpt lat="42.96123" lon="1.09079">
        <ele>437.3</ele>
      </trkpt>
      <trkpt lat="42.96111" lon="1.08994">
        <ele>437.1</ele>
      </trkpt>
      <trkpt lat="42.96106" lon="1.08924">
        <ele>437.9</ele>
      </trkpt>
      <trkpt lat="42.96106" lon="1.08897">
        <ele>438.4</ele>
      </trkpt>
      <trkpt lat="42.96108" lon="1.08838">
        <ele>440</ele>
      </trkpt>
      <trkpt lat="42.96112" lon="1.08802">
        <ele>443</ele>
      </trkpt>
      <trkpt lat="42.96113" lon="1.08784">
        <ele>444.4</ele>
      </trkpt>
      <trkpt lat="42.96095" lon="1.08756">
        <ele>442.3</ele>
      </trkpt>
      <trkpt lat="42.96076" lon="1.08726">
        <ele>441.3</ele>
      </trkpt>
      <trkpt lat="42.96056" lon="1.08702">
        <ele>441.5</ele>
      </trkpt>
      <trkpt lat="42.96053" lon="1.087">
        <ele>441.4</ele>
      </trkpt>
      <trkpt lat="42.96033" lon="1.08691">
        <ele>440.3</ele>
      </trkpt>
      <trkpt lat="42.95979" lon="1.08677">
        <ele>437.9</ele>
      </trkpt>
      <trkpt lat="42.95927" lon="1.08657">
        <ele>437.9</ele>
      </trkpt>
      <trkpt lat="42.95896" lon="1.08637">
        <ele>437.8</ele>
      </trkpt>
      <trkpt lat="42.95884" lon="1.08623">
        <ele>437.9</ele>
      </trkpt>
      <trkpt lat="42.95878" lon="1.08613">
        <ele>438</ele>
      </trkpt>
      <trkpt lat="42.95872" lon="1.08599">
        <ele>438.1</ele>
      </trkpt>
      <trkpt lat="42.95874" lon="1.08595">
        <ele>438</ele>
      </trkpt>
      <trkpt lat="42.95877" lon="1.08589">
        <ele>438</ele>
      </trkpt>
      <trkpt lat="42.95896" lon="1.0852">
        <ele>438.5</ele>
      </trkpt>
      <trkpt lat="42.95859" lon="1.08374">
        <ele>440.126</ele>
        <time>2019-12-09T15:01:41Z</time>
      </trkpt>
      <trkpt lat="42.95777" lon="1.08273">
        <ele>440.508</ele>
        <time>2019-12-09T15:02:01Z</time>
      </trkpt>
      <trkpt lat="42.95702" lon="1.08194">
        <ele>441.754</ele>
        <time>2019-12-09T15:02:21Z</time>
      </trkpt>
      <trkpt lat="42.95628" lon="1.07973">
        <ele>462.823</ele>
        <time>2019-12-09T15:02:41Z</time>
      </trkpt>
      <trkpt lat="42.95575" lon="1.07876">
        <ele>459.879</ele>
        <time>2019-12-09T15:03:01Z</time>
      </trkpt>
      <trkpt lat="42.95564" lon="1.07812">
        <ele>464.527</ele>
        <time>2019-12-09T15:03:21Z</time>
      </trkpt>
      <trkpt lat="42.95572" lon="1.07677">
        <ele>477.818</ele>
        <time>2019-12-09T15:03:41Z</time>
      </trkpt>
      <trkpt lat="42.95559" lon="1.0761">
        <ele>483.476</ele>
        <time>2019-12-09T15:04:01Z</time>
      </trkpt>
      <trkpt lat="42.95532" lon="1.07595">
        <ele>483.397</ele>
        <time>2019-12-09T15:04:21Z</time>
      </trkpt>
      <trkpt lat="42.95454" lon="1.07497">
        <ele>486.952</ele>
        <time>2019-12-09T15:04:41Z</time>
      </trkpt>
      <trkpt lat="42.95424" lon="1.07479">
        <ele>485.112</ele>
        <time>2019-12-09T15:05:01Z</time>
      </trkpt>
      <trkpt lat="42.95397" lon="1.07441">
        <ele>478.432</ele>
        <time>2019-12-09T15:05:21Z</time>
      </trkpt>
      <trkpt lat="42.95372" lon="1.07353">
        <ele>482.305</ele>
        <time>2019-12-09T15:05:41Z</time>
      </trkpt>
      <trkpt lat="42.95333" lon="1.07308">
        <ele>478.808</ele>
        <time>2019-12-09T15:06:01Z</time>
      </trkpt>
      <trkpt lat="42.95253" lon="1.07194">
        <ele>484.287</ele>
        <time>2019-12-09T15:06:21Z</time>
      </trkpt>
      <trkpt lat="42.95218" lon="1.07127">
        <ele>480.136</ele>
        <time>2019-12-09T15:06:41Z</time>
      </trkpt>
      <trkpt lat="42.95152" lon="1.07063">
        <ele>476.522</ele>
        <time>2019-12-09T15:07:01Z</time>
      </trkpt>
      <trkpt lat="42.95137" lon="1.06937">
        <ele>478.89</ele>
        <time>2019-12-09T15:07:21Z</time>
      </trkpt>
      <trkpt lat="42.95116" lon="1.06874">
        <ele>480.431</ele>
        <time>2019-12-09T15:07:41Z</time>
      </trkpt>
      <trkpt lat="42.95116" lon="1.06836">
        <ele>480.939</ele>
        <time>2019-12-09T15:08:01Z</time>
      </trkpt>
      <trkpt lat="42.95093" lon="1.06756">
        <ele>483.54</ele>
        <time>2019-12-09T15:08:21Z</time>
      </trkpt>
      <trkpt lat="42.95061" lon="1.06677">
        <ele>478.465</ele>
        <time>2019-12-09T15:08:41Z</time>
      </trkpt>
      <trkpt lat="42.95063" lon="1.06559">
        <ele>480.683</ele>
        <time>2019-12-09T15:09:01Z</time>
      </trkpt>
      <trkpt lat="42.95047" lon="1.0655">
        <ele>479.025</ele>
        <time>2019-12-09T15:09:21Z</time>
      </trkpt>
      <trkpt lat="42.95003" lon="1.06454">
        <ele>478.517</ele>
        <time>2019-12-09T15:09:41Z</time>
      </trkpt>
      <trkpt lat="42.94987" lon="1.06383">
        <ele>474.408</ele>
        <time>2019-12-09T15:10:01Z</time>
      </trkpt>
      <trkpt lat="42.94948" lon="1.06342">
        <ele>472.374</ele>
        <time>2019-12-09T15:10:21Z</time>
      </trkpt>
      <trkpt lat="42.9492" lon="1.06246">
        <ele>474.123</ele>
        <time>2019-12-09T15:10:41Z</time>
      </trkpt>
      <trkpt lat="42.9492" lon="1.06207">
        <ele>479.229</ele>
        <time>2019-12-09T15:11:01Z</time>
      </trkpt>
      <trkpt lat="42.94896" lon="1.06087">
        <ele>470.687</ele>
        <time>2019-12-09T15:11:21Z</time>
      </trkpt>
      <trkpt lat="42.94898" lon="1.05982">
        <ele>470.998</ele>
        <time>2019-12-09T15:11:41Z</time>
      </trkpt>
      <trkpt lat="42.94932" lon="1.05924">
        <ele>478.436</ele>
        <time>2019-12-09T15:12:01Z</time>
      </trkpt>
      <trkpt lat="42.94939" lon="1.05885">
        <ele>477.597</ele>
        <time>2019-12-09T15:12:21Z</time>
      </trkpt>
      <trkpt lat="42.95008" lon="1.05765">
        <ele>481.342</ele>
        <time>2019-12-09T15:12:41Z</time>
      </trkpt>
      <trkpt lat="42.95082" lon="1.05728">
        <ele>484.928</ele>
        <time>2019-12-09T15:13:01Z</time>
      </trkpt>
      <trkpt lat="42.95099" lon="1.05698">
        <ele>496.489</ele>
        <time>2019-12-09T15:13:21Z</time>
      </trkpt>
      <trkpt lat="42.95113" lon="1.05628">
        <ele>488.717</ele>
        <time>2019-12-09T15:13:41Z</time>
      </trkpt>
      <trkpt lat="42.95143" lon="1.05563">
        <ele>491.608</ele>
        <time>2019-12-09T15:14:01Z</time>
      </trkpt>
      <trkpt lat="42.95154" lon="1.05475">
        <ele>497.818</ele>
        <time>2019-12-09T15:14:21Z</time>
      </trkpt>
      <trkpt lat="42.95137" lon="1.0528">
        <ele>511.327</ele>
        <time>2019-12-09T15:14:41Z</time>
      </trkpt>
      <trkpt lat="42.95154" lon="1.05237">
        <ele>521.093</ele>
        <time>2019-12-09T15:15:01Z</time>
      </trkpt>
      <trkpt lat="42.95195" lon="1.05203">
        <ele>546.711</ele>
        <time>2019-12-09T15:15:21Z</time>
      </trkpt>
      <trkpt lat="42.95204" lon="1.0514">
        <ele>550.672</ele>
        <time>2019-12-09T15:15:41Z</time>
      </trkpt>
      <trkpt lat="42.95193" lon="1.05085">
        <ele>547.13</ele>
        <time>2019-12-09T15:16:01Z</time>
      </trkpt>
      <trkpt lat="42.9519" lon="1.05038">
        <ele>550.791</ele>
        <time>2019-12-09T15:16:21Z</time>
      </trkpt>
      <trkpt lat="42.95207" lon="1.04935">
        <ele>553.056</ele>
        <time>2019-12-09T15:16:41Z</time>
      </trkpt>
      <trkpt lat="42.95209" lon="1.04675">
        <ele>535.915</ele>
        <time>2019-12-09T15:17:01Z</time>
      </trkpt>
      <trkpt lat="42.95188" lon="1.04591">
        <ele>525.265</ele>
        <time>2019-12-09T15:17:21Z</time>
      </trkpt>
      <trkpt lat="42.95174" lon="1.04424">
        <ele>513.011</ele>
        <time>2019-12-09T15:17:41Z</time>
      </trkpt>
      <trkpt lat="42.95179" lon="1.04379">
        <ele>514.308</ele>
        <time>2021-02-06T04:04:51Z</time>
      </trkpt>
      <trkpt lat="42.95155" lon="1.04293">
        <ele>511.777</ele>
        <time>2021-02-06T04:05:11Z</time>
      </trkpt>
      <trkpt lat="42.95059" lon="1.04224">
        <ele>486.916</ele>
        <time>2021-02-06T04:05:31Z</time>
      </trkpt>
      <trkpt lat="42.95058" lon="1.04199">
        <ele>486.942</ele>
        <time>2021-02-06T04:05:51Z</time>
      </trkpt>
      <trkpt lat="42.95017" lon="1.04223">
        <ele>482.79</ele>
        <time>2021-02-06T04:06:11Z</time>
      </trkpt>
      <trkpt lat="42.9502" lon="1.04183">
        <ele>484.951</ele>
        <time>2021-02-06T04:06:31Z</time>
      </trkpt>
      <trkpt lat="42.95016" lon="1.04171">
        <ele>485.429</ele>
        <time>2021-02-06T04:06:51Z</time>
      </trkpt>
      <trkpt lat="42.9502" lon="1.04124">
        <ele>494.03</ele>
        <time>2021-02-06T04:07:11Z</time>
      </trkpt>
      <trkpt lat="42.95031" lon="1.041">
        <ele>496.845</ele>
        <time>2021-02-06T04:07:31Z</time>
      </trkpt>
      <trkpt lat="42.95074" lon="1.04042">
        <ele>497.571</ele>
        <time>2021-02-06T04:07:51Z</time>
      </trkpt>
      <trkpt lat="42.95086" lon="1.03994">
        <ele>502.341</ele>
        <time>2021-02-06T04:08:11Z</time>
      </trkpt>
      <trkpt lat="42.95087" lon="1.03961">
        <ele>504.715</ele>
        <time>2021-02-06T04:08:31Z</time>
      </trkpt>
      <trkpt lat="42.95078" lon="1.03965">
        <ele>507.108</ele>
        <time>2021-02-06T04:08:51Z</time>
      </trkpt>
      <trkpt lat="42.95048" lon="1.03909">
        <ele>524.653</ele>
        <time>2021-02-06T04:09:11Z</time>
      </trkpt>
      <trkpt lat="42.95025" lon="1.03897">
        <ele>535.062</ele>
        <time>2021-02-06T04:09:31Z</time>
      </trkpt>
      <trkpt lat="42.94998" lon="1.03898">
        <ele>544.088</ele>
        <time>2021-02-06T04:09:51Z</time>
      </trkpt>
      <trkpt lat="42.94971" lon="1.03852">
        <ele>552.046</ele>
        <time>2021-02-06T04:10:11Z</time>
      </trkpt>
      <trkpt lat="42.94947" lon="1.03791">
        <ele>564.697</ele>
        <time>2021-02-06T04:10:31Z</time>
      </trkpt>
      <trkpt lat="42.94914" lon="1.0378">
        <ele>567.935</ele>
        <time>2021-02-06T04:10:51Z</time>
      </trkpt>
      <trkpt lat="42.94891" lon="1.03789">
        <ele>571.396</ele>
        <time>2021-02-06T04:11:11Z</time>
      </trkpt>
      <trkpt lat="42.94866" lon="1.0373">
        <ele>585.021</ele>
        <time>2021-02-06T04:11:31Z</time>
      </trkpt>
      <trkpt lat="42.94832" lon="1.03746">
        <ele>589.193</ele>
        <time>2021-02-06T04:11:51Z</time>
      </trkpt>
      <trkpt lat="42.94808" lon="1.0375">
        <ele>583.965</ele>
        <time>2021-02-06T04:12:11Z</time>
      </trkpt>
      <trkpt lat="42.94808" lon="1.03733">
        <ele>585.421</ele>
        <time>2021-02-06T04:12:31Z</time>
      </trkpt>
      <trkpt lat="42.94837" lon="1.03599">
        <ele>607.708</ele>
        <time>2021-02-06T04:12:51Z</time>
      </trkpt>
      <trkpt lat="42.94884" lon="1.03489">
        <ele>625.895</ele>
        <time>2021-02-06T04:13:11Z</time>
      </trkpt>
      <trkpt lat="42.94904" lon="1.03413">
        <ele>638.714</ele>
        <time>2021-02-06T04:13:31Z</time>
      </trkpt>
      <trkpt lat="42.94915" lon="1.03299">
        <ele>644.66</ele>
        <time>2021-02-06T04:13:51Z</time>
      </trkpt>
      <trkpt lat="42.94965" lon="1.03154">
        <ele>648.698</ele>
        <time>2021-02-06T04:14:11Z</time>
      </trkpt>
      <trkpt lat="42.94951" lon="1.03154">
        <ele>647.329</ele>
        <time>2021-02-06T04:14:31Z</time>
      </trkpt>
      <trkpt lat="42.94927" lon="1.03113">
        <ele>653.177</ele>
        <time>2021-02-06T04:14:51Z</time>
      </trkpt>
      <trkpt lat="42.94901" lon="1.0306">
        <ele>658.768</ele>
        <time>2021-02-06T04:15:11Z</time>
      </trkpt>
      <trkpt lat="42.94826" lon="1.02981">
        <ele>656.213</ele>
        <time>2021-02-06T04:15:31Z</time>
      </trkpt>
      <trkpt lat="42.94803" lon="1.0297">
        <ele>651.636</ele>
        <time>2021-02-06T04:15:51Z</time>
      </trkpt>
      <trkpt lat="42.94768" lon="1.02965">
        <ele>640.617</ele>
        <time>2021-02-06T04:16:11Z</time>
      </trkpt>
      <trkpt lat="42.94753" lon="1.02946">
        <ele>638.218</ele>
        <time>2021-02-06T04:16:31Z</time>
      </trkpt>
      <trkpt lat="42.94748" lon="1.02878">
        <ele>641.808</ele>
        <time>2021-02-06T04:16:51Z</time>
      </trkpt>
      <trkpt lat="42.9473" lon="1.02805">
        <ele>639.539</ele>
        <time>2021-02-06T04:17:11Z</time>
      </trkpt>
      <trkpt lat="42.94707" lon="1.02743">
        <ele>642.558</ele>
        <time>2021-02-06T04:17:31Z</time>
      </trkpt>
      <trkpt lat="42.94682" lon="1.02732">
        <ele>638.594</ele>
        <time>2021-02-06T04:17:51Z</time>
      </trkpt>
      <trkpt lat="42.94627" lon="1.0275">
        <ele>622.462</ele>
        <time>2021-02-06T04:18:11Z</time>
      </trkpt>
      <trkpt lat="42.94555" lon="1.0284">
        <ele>593.933</ele>
        <time>2021-02-06T04:18:31Z</time>
      </trkpt>
      <trkpt lat="42.9453" lon="1.02859">
        <ele>588.461</ele>
        <time>2021-02-06T04:18:51Z</time>
      </trkpt>
      <trkpt lat="42.94511" lon="1.02856">
        <ele>587.672</ele>
        <time>2021-02-06T04:19:11Z</time>
      </trkpt>
      <trkpt lat="42.94503" lon="1.02797">
        <ele>593.117</ele>
        <time>2021-02-06T04:19:31Z</time>
      </trkpt>
      <trkpt lat="42.94478" lon="1.02722">
        <ele>600.191</ele>
        <time>2021-02-06T04:19:51Z</time>
      </trkpt>
      <trkpt lat="42.9445" lon="1.02722">
        <ele>596.081</ele>
        <time>2021-02-06T04:20:11Z</time>
      </trkpt>
      <trkpt lat="42.94391" lon="1.02758">
        <ele>582.319</ele>
        <time>2021-02-06T04:20:31Z</time>
      </trkpt>
      <trkpt lat="42.94349" lon="1.028">
        <ele>573.508</ele>
        <time>2021-02-06T04:20:51Z</time>
      </trkpt>
      <trkpt lat="42.94326" lon="1.02795">
        <ele>571.415</ele>
        <time>2021-02-06T04:21:11Z</time>
      </trkpt>
      <trkpt lat="42.94282" lon="1.0271">
        <ele>561.924</ele>
        <time>2021-02-06T04:21:31Z</time>
      </trkpt>
      <trkpt lat="42.94277" lon="1.02638">
        <ele>562.78</ele>
        <time>2021-02-06T04:21:51Z</time>
      </trkpt>
      <trkpt lat="42.94269" lon="1.02569">
        <ele>565.358</ele>
        <time>2021-02-06T04:22:11Z</time>
      </trkpt>
      <trkpt lat="42.9427" lon="1.02514">
        <ele>571.849</ele>
        <time>2021-02-06T04:22:31Z</time>
      </trkpt>
      <trkpt lat="42.94256" lon="1.02512">
        <ele>571.977</ele>
        <time>2021-02-06T04:22:51Z</time>
      </trkpt>
      <trkpt lat="42.94152" lon="1.02686">
        <ele>574.948</ele>
        <time>2019-12-09T15:30:01Z</time>
      </trkpt>
      <trkpt lat="42.94103" lon="1.02787">
        <ele>560.553</ele>
        <time>2019-12-09T15:30:21Z</time>
      </trkpt>
      <trkpt lat="42.94073" lon="1.02797">
        <ele>561.578</ele>
        <time>2019-12-09T15:30:41Z</time>
      </trkpt>
      <trkpt lat="42.93959" lon="1.02733">
        <ele>564.533</ele>
        <time>2019-12-09T15:31:01Z</time>
      </trkpt>
      <trkpt lat="42.93965" lon="1.02611">
        <ele>577.926</ele>
        <time>2019-12-09T15:31:21Z</time>
      </trkpt>
      <trkpt lat="42.93959" lon="1.02585">
        <ele>577.808</ele>
        <time>2019-12-09T15:31:41Z</time>
      </trkpt>
      <trkpt lat="42.93902" lon="1.02581">
        <ele>573.943</ele>
        <time>2019-12-09T15:32:01Z</time>
      </trkpt>
      <trkpt lat="42.93871" lon="1.02527">
        <ele>578.352</ele>
        <time>2019-12-09T15:32:21Z</time>
      </trkpt>
      <trkpt lat="42.93845" lon="1.02529">
        <ele>577.978</ele>
        <time>2019-12-09T15:32:41Z</time>
      </trkpt>
      <trkpt lat="42.93803" lon="1.02598">
        <ele>557.876</ele>
        <time>2019-12-09T15:33:01Z</time>
      </trkpt>
      <trkpt lat="42.93757" lon="1.02602">
        <ele>560.497</ele>
        <time>2019-12-09T15:33:21Z</time>
      </trkpt>
      <trkpt lat="42.93687" lon="1.02585">
        <ele>545.335</ele>
        <time>2019-12-09T15:33:41Z</time>
      </trkpt>
      <trkpt lat="42.93651" lon="1.02557">
        <ele>552.526</ele>
        <time>2019-12-09T15:34:01Z</time>
      </trkpt>
      <trkpt lat="42.93619" lon="1.02553">
        <ele>549.861</ele>
        <time>2019-12-09T15:34:21Z</time>
      </trkpt>
      <trkpt lat="42.93571" lon="1.02521">
        <ele>540.857</ele>
        <time>2019-12-09T15:34:41Z</time>
      </trkpt>
      <trkpt lat="42.93522" lon="1.02505">
        <ele>531.5</ele>
        <time>2019-12-09T15:35:01Z</time>
      </trkpt>
      <trkpt lat="42.93442" lon="1.02426">
        <ele>547.12</ele>
        <time>2019-12-09T15:35:21Z</time>
      </trkpt>
      <trkpt lat="42.93379" lon="1.02465">
        <ele>531.408</ele>
        <time>2019-12-09T15:35:41Z</time>
      </trkpt>
      <trkpt lat="42.93314" lon="1.02456">
        <ele>524.841</ele>
        <time>2019-12-09T15:36:01Z</time>
      </trkpt>
      <trkpt lat="42.93223" lon="1.02437">
        <ele>517.97</ele>
        <time>2019-12-09T15:36:21Z</time>
      </trkpt>
      <trkpt lat="42.93183" lon="1.0243">
        <ele>514.986</ele>
        <time>2019-12-09T15:36:41Z</time>
      </trkpt>
      <trkpt lat="42.93135" lon="1.02402">
        <ele>516.784</ele>
        <time>2019-12-09T15:37:01Z</time>
      </trkpt>
      <trkpt lat="42.93099" lon="1.024">
        <ele>513.725</ele>
        <time>2019-12-09T15:37:21Z</time>
      </trkpt>
      <trkpt lat="42.93043" lon="1.02349">
        <ele>510.333</ele>
        <time>2019-12-09T15:37:41Z</time>
      </trkpt>
      <trkpt lat="42.9297" lon="1.02315">
        <ele>510.214</ele>
        <time>2019-12-09T15:38:01Z</time>
      </trkpt>
      <trkpt lat="42.92908" lon="1.02278">
        <ele>510.989</ele>
        <time>2019-12-09T15:38:21Z</time>
      </trkpt>
      <trkpt lat="42.92831" lon="1.02169">
        <ele>509.836</ele>
        <time>2019-12-09T15:38:41Z</time>
      </trkpt>
      <trkpt lat="42.92743" lon="1.02057">
        <ele>516.117</ele>
        <time>2019-12-09T15:39:01Z</time>
      </trkpt>
      <trkpt lat="42.92658" lon="1.01911">
        <ele>521.318</ele>
        <time>2019-12-09T15:39:21Z</time>
      </trkpt>
      <trkpt lat="42.92662" lon="1.01842">
        <ele>521.608</ele>
        <time>2019-12-09T15:39:41Z</time>
      </trkpt>
      <trkpt lat="42.927" lon="1.01705">
        <ele>521.219</ele>
        <time>2019-12-09T15:40:01Z</time>
      </trkpt>
      <trkpt lat="42.92746" lon="1.01628">
        <ele>520.568</ele>
        <time>2019-12-09T15:40:21Z</time>
      </trkpt>
      <trkpt lat="42.92749" lon="1.0157">
        <ele>519.224</ele>
        <time>2019-12-09T15:40:41Z</time>
      </trkpt>
      <trkpt lat="42.927" lon="1.01463">
        <ele>520.292</ele>
        <time>2019-12-09T15:41:01Z</time>
      </trkpt>
      <trkpt lat="42.92739" lon="1.01415">
        <ele>524.583</ele>
        <time>2019-12-09T15:41:21Z</time>
      </trkpt>
      <trkpt lat="42.92727" lon="1.013">
        <ele>530.041</ele>
        <time>2019-12-09T15:41:41Z</time>
      </trkpt>
      <trkpt lat="42.92732" lon="1.01229">
        <ele>538.032</ele>
        <time>2019-12-09T15:42:01Z</time>
      </trkpt>
      <trkpt lat="42.92675" lon="1.01074">
        <ele>538.997</ele>
        <time>2019-12-09T15:42:21Z</time>
      </trkpt>
      <trkpt lat="42.92688" lon="1.01001">
        <ele>544.591</ele>
        <time>2019-12-09T15:42:41Z</time>
      </trkpt>
      <trkpt lat="42.92688" lon="1.00958">
        <ele>548.781</ele>
        <time>2019-12-09T15:43:01Z</time>
      </trkpt>
      <trkpt lat="42.92697" lon="1.00911">
        <ele>551.119</ele>
        <time>2019-12-09T15:43:21Z</time>
      </trkpt>
      <trkpt lat="42.92694" lon="1.00836">
        <ele>552.008</ele>
        <time>2019-12-09T15:43:41Z</time>
      </trkpt>
      <trkpt lat="42.92664" lon="1.00703">
        <ele>545.055</ele>
        <time>2019-12-09T15:44:01Z</time>
      </trkpt>
      <trkpt lat="42.92651" lon="1.00568">
        <ele>549.634</ele>
        <time>2019-12-09T15:44:21Z</time>
      </trkpt>
      <trkpt lat="42.92688" lon="1.00435">
        <ele>558.52</ele>
        <time>2019-12-09T15:44:41Z</time>
      </trkpt>
      <trkpt lat="42.92661" lon="1.00385">
        <ele>545.088</ele>
        <time>2019-12-09T15:45:01Z</time>
      </trkpt>
      <trkpt lat="42.92658" lon="1.00325">
        <ele>547.079</ele>
        <time>2019-12-09T15:45:21Z</time>
      </trkpt>
      <trkpt lat="42.92664" lon="1.00237">
        <ele>543.927</ele>
        <time>2019-12-09T15:45:41Z</time>
      </trkpt>
      <trkpt lat="42.92695" lon="1.00109">
        <ele>548.918</ele>
        <time>2019-12-09T15:46:01Z</time>
      </trkpt>
      <trkpt lat="42.92738" lon="1.00038">
        <ele>543.693</ele>
        <time>2019-12-09T15:46:21Z</time>
      </trkpt>
      <trkpt lat="42.92801" lon="0.99941">
        <ele>548.249</ele>
        <time>2019-12-09T15:46:41Z</time>
      </trkpt>
      <trkpt lat="42.92823" lon="0.99924">
        <ele>549.902</ele>
        <time>2019-12-09T15:47:01Z</time>
      </trkpt>
      <trkpt lat="42.92854" lon="0.9986">
        <ele>554.922</ele>
        <time>2019-12-09T15:47:21Z</time>
      </trkpt>
      <trkpt lat="42.92867" lon="0.99798">
        <ele>547.808</ele>
        <time>2019-12-09T15:47:41Z</time>
      </trkpt>
      <trkpt lat="42.92898" lon="0.99731">
        <ele>542.53</ele>
        <time>2019-12-09T15:48:01Z</time>
      </trkpt>
      <trkpt lat="42.92961" lon="0.99649">
        <ele>542.769</ele>
        <time>2019-12-09T15:48:21Z</time>
      </trkpt>
      <trkpt lat="42.92986" lon="0.99634">
        <ele>544.065</ele>
        <time>2019-12-09T15:48:41Z</time>
      </trkpt>
      <trkpt lat="42.93019" lon="0.99587">
        <ele>547.373</ele>
        <time>2019-12-09T15:49:01Z</time>
      </trkpt>
      <trkpt lat="42.93139" lon="0.9948">
        <ele>541.994</ele>
        <time>2019-12-09T15:49:21Z</time>
      </trkpt>
      <trkpt lat="42.93145" lon="0.99454">
        <ele>540.892</ele>
        <time>2019-12-09T15:49:41Z</time>
      </trkpt>
      <trkpt lat="42.93173" lon="0.9942">
        <ele>541.083</ele>
        <time>2019-12-09T15:50:01Z</time>
      </trkpt>
      <trkpt lat="42.9317" lon="0.99388">
        <ele>540.368</ele>
        <time>2019-12-09T15:50:21Z</time>
      </trkpt>
      <trkpt lat="42.93187" lon="0.99375">
        <ele>540.735</ele>
        <time>2019-12-09T15:50:41Z</time>
      </trkpt>
      <trkpt lat="42.93217" lon="0.99268">
        <ele>542.586</ele>
        <time>2019-12-09T15:51:01Z</time>
      </trkpt>
      <trkpt lat="42.93195" lon="0.9921">
        <ele>542.614</ele>
        <time>2019-12-09T15:51:21Z</time>
      </trkpt>
      <trkpt lat="42.93126" lon="0.99237">
        <ele>539.008</ele>
        <time>2019-12-09T15:51:41Z</time>
      </trkpt>
      <trkpt lat="42.93024" lon="0.99177">
        <ele>535.989</ele>
        <time>2019-12-09T15:52:01Z</time>
      </trkpt>
      <trkpt lat="42.92956" lon="0.99165">
        <ele>536.018</ele>
        <time>2019-12-09T15:52:21Z</time>
      </trkpt>
      <trkpt lat="42.92917" lon="0.99137">
        <ele>536.454</ele>
        <time>2019-12-09T15:52:41Z</time>
      </trkpt>
      <trkpt lat="42.92826" lon="0.99029">
        <ele>554.672</ele>
        <time>2019-12-09T15:53:01Z</time>
      </trkpt>
      <trkpt lat="42.92859" lon="0.9895">
        <ele>550.783</ele>
        <time>2019-12-09T15:53:21Z</time>
      </trkpt>
      <trkpt lat="42.92862" lon="0.98903">
        <ele>555.561</ele>
        <time>2019-12-09T15:53:41Z</time>
      </trkpt>
      <trkpt lat="42.92889" lon="0.98853">
        <ele>552.522</ele>
        <time>2019-12-09T15:54:01Z</time>
      </trkpt>
      <trkpt lat="42.92884" lon="0.98772">
        <ele>561.967</ele>
        <time>2019-12-09T15:54:21Z</time>
      </trkpt>
      <trkpt lat="42.92908" lon="0.98697">
        <ele>566.957</ele>
        <time>2019-12-09T15:54:41Z</time>
      </trkpt>
      <trkpt lat="42.92936" lon="0.98542">
        <ele>559.1</ele>
        <time>2019-12-09T15:55:01Z</time>
      </trkpt>
      <trkpt lat="42.92933" lon="0.98491">
        <ele>563.72</ele>
        <time>2019-12-09T15:55:21Z</time>
      </trkpt>
      <trkpt lat="42.92906" lon="0.98471">
        <ele>573.908</ele>
        <time>2019-12-09T15:55:41Z</time>
      </trkpt>
      <trkpt lat="42.92893" lon="0.98437">
        <ele>574.251</ele>
        <time>2019-12-09T15:56:01Z</time>
      </trkpt>
      <trkpt lat="42.92934" lon="0.98362">
        <ele>571.94</ele>
        <time>2019-12-09T15:56:21Z</time>
      </trkpt>
      <trkpt lat="42.92936" lon="0.98298">
        <ele>579.016</ele>
        <time>2019-12-09T15:56:41Z</time>
      </trkpt>
      <trkpt lat="42.92893" lon="0.98182">
        <ele>605.484</ele>
        <time>2019-12-09T15:57:01Z</time>
      </trkpt>
      <trkpt lat="42.9289" lon="0.9813">
        <ele>603.695</ele>
        <time>2019-12-09T15:57:21Z</time>
      </trkpt>
      <trkpt lat="42.92879" lon="0.98027">
        <ele>597.963</ele>
        <time>2019-12-09T15:57:41Z</time>
      </trkpt>
      <trkpt lat="42.92875" lon="0.97922">
        <ele>588.234</ele>
        <time>2019-12-09T15:58:01Z</time>
      </trkpt>
      <trkpt lat="42.92783" lon="0.97761">
        <ele>593.499</ele>
        <time>2019-12-09T15:58:21Z</time>
      </trkpt>
      <trkpt lat="42.92816" lon="0.97755">
        <ele>584.821</ele>
        <time>2019-12-09T15:58:41Z</time>
      </trkpt>
      <trkpt lat="42.92876" lon="0.97806">
        <ele>580.141</ele>
        <time>2019-12-09T15:59:01Z</time>
      </trkpt>
      <trkpt lat="42.9293" lon="0.97808">
        <ele>580.905</ele>
        <time>2019-12-09T15:59:21Z</time>
      </trkpt>
      <trkpt lat="42.92952" lon="0.97821">
        <ele>581.008</ele>
        <time>2019-12-09T15:59:41Z</time>
      </trkpt>
      <trkpt lat="42.92994" lon="0.97832">
        <ele>578.448</ele>
        <time>2019-12-09T16:00:01Z</time>
      </trkpt>
      <trkpt lat="42.93035" lon="0.97789">
        <ele>575.087</ele>
        <time>2019-12-09T16:00:21Z</time>
      </trkpt>
      <trkpt lat="42.9314" lon="0.97624">
        <ele>579.633</ele>
        <time>2019-12-09T16:00:41Z</time>
      </trkpt>
      <trkpt lat="42.93162" lon="0.97566">
        <ele>585.331</ele>
        <time>2019-12-09T16:01:01Z</time>
      </trkpt>
      <trkpt lat="42.93187" lon="0.97538">
        <ele>573.022</ele>
        <time>2019-12-09T16:01:21Z</time>
      </trkpt>
      <trkpt lat="42.93206" lon="0.97493">
        <ele>577.02</ele>
        <time>2019-12-09T16:01:41Z</time>
      </trkpt>
      <trkpt lat="42.93256" lon="0.97499">
        <ele>564.181</ele>
        <time>2019-12-09T16:02:01Z</time>
      </trkpt>
      <trkpt lat="42.93286" lon="0.97467">
        <ele>564.366</ele>
        <time>2019-12-09T16:02:21Z</time>
      </trkpt>
      <trkpt lat="42.9334" lon="0.97476">
        <ele>556.093</ele>
        <time>2019-12-09T16:02:41Z</time>
      </trkpt>
      <trkpt lat="42.93396" lon="0.97525">
        <ele>551.865</ele>
        <time>2019-12-09T16:03:01Z</time>
      </trkpt>
      <trkpt lat="42.93431" lon="0.97478">
        <ele>552.121</ele>
        <time>2019-12-09T16:03:21Z</time>
      </trkpt>
      <trkpt lat="42.93473" lon="0.97381">
        <ele>552.908</ele>
        <time>2019-12-09T16:03:41Z</time>
      </trkpt>
      <trkpt lat="42.93509" lon="0.97418">
        <ele>551.525</ele>
        <time>2019-12-09T16:04:01Z</time>
      </trkpt>
      <trkpt lat="42.93567" lon="0.97414">
        <ele>552.684</ele>
        <time>2019-12-09T16:04:21Z</time>
      </trkpt>
      <trkpt lat="42.93618" lon="0.97381">
        <ele>554.65</ele>
        <time>2019-12-09T16:04:41Z</time>
      </trkpt>
      <trkpt lat="42.93693" lon="0.97276">
        <ele>560.598</ele>
        <time>2019-12-09T16:05:01Z</time>
      </trkpt>
      <trkpt lat="42.93703" lon="0.97205">
        <ele>559.739</ele>
        <time>2019-12-09T16:05:21Z</time>
      </trkpt>
      <trkpt lat="42.93729" lon="0.9709">
        <ele>559.427</ele>
        <time>2019-12-09T16:05:41Z</time>
      </trkpt>
      <trkpt lat="42.93754" lon="0.97032">
        <ele>563.248</ele>
        <time>2019-12-09T16:06:01Z</time>
      </trkpt>
      <trkpt lat="42.93781" lon="0.97021">
        <ele>564.773</ele>
        <time>2019-12-09T16:06:21Z</time>
      </trkpt>
      <trkpt lat="42.93856" lon="0.97004">
        <ele>576.123</ele>
        <time>2019-12-09T16:06:41Z</time>
      </trkpt>
      <trkpt lat="42.93951" lon="0.96924">
        <ele>597.083</ele>
        <time>2019-12-09T16:07:01Z</time>
      </trkpt>
      <trkpt lat="42.93999" lon="0.96875">
        <ele>611.711</ele>
        <time>2019-12-09T16:07:21Z</time>
      </trkpt>
      <trkpt lat="42.94048" lon="0.96783">
        <ele>636.908</ele>
        <time>2019-12-09T16:07:41Z</time>
      </trkpt>
      <trkpt lat="42.94113" lon="0.96416">
        <ele>705.288</ele>
        <time>2019-12-09T16:08:01Z</time>
      </trkpt>
      <trkpt lat="42.94098" lon="0.96358">
        <ele>706.647</ele>
        <time>2019-12-09T16:08:21Z</time>
      </trkpt>
      <trkpt lat="42.94103" lon="0.96302">
        <ele>707.913</ele>
        <time>2019-12-09T16:08:41Z</time>
      </trkpt>
      <trkpt lat="42.94199" lon="0.96274">
        <ele>723.171</ele>
        <time>2019-12-09T16:09:01Z</time>
      </trkpt>
      <trkpt lat="42.9427" lon="0.96274">
        <ele>730.842</ele>
        <time>2019-12-09T16:09:21Z</time>
      </trkpt>
      <trkpt lat="42.94384" lon="0.96324">
        <ele>736.44</ele>
        <time>2019-12-09T16:09:41Z</time>
      </trkpt>
      <trkpt lat="42.94453" lon="0.96324">
        <ele>739.481</ele>
        <time>2019-12-09T16:10:01Z</time>
      </trkpt>
      <trkpt lat="42.94585" lon="0.96278">
        <ele>752.076</ele>
        <time>2019-12-09T16:10:21Z</time>
      </trkpt>
      <trkpt lat="42.94643" lon="0.96287">
        <ele>757.395</ele>
        <time>2019-12-09T16:10:41Z</time>
      </trkpt>
      <trkpt lat="42.9465" lon="0.96255">
        <ele>759.849</ele>
        <time>2019-12-09T16:11:01Z</time>
      </trkpt>
      <trkpt lat="42.94631" lon="0.96197">
        <ele>757.923</ele>
        <time>2019-12-09T16:11:21Z</time>
      </trkpt>
      <trkpt lat="42.94636" lon="0.96156">
        <ele>760.408</ele>
        <time>2019-12-09T16:11:41Z</time>
      </trkpt>
      <trkpt lat="42.94722" lon="0.96109">
        <ele>778.125</ele>
        <time>2019-12-09T16:12:01Z</time>
      </trkpt>
      <trkpt lat="42.94725" lon="0.96023">
        <ele>780.714</ele>
        <time>2019-12-09T16:12:21Z</time>
      </trkpt>
      <trkpt lat="42.94713" lon="0.95982">
        <ele>789.03</ele>
        <time>2019-12-09T16:12:41Z</time>
      </trkpt>
      <trkpt lat="42.94669" lon="0.95944">
        <ele>790.528</ele>
        <time>2019-12-09T16:13:01Z</time>
      </trkpt>
      <trkpt lat="42.94665" lon="0.95712">
        <ele>818.149</ele>
        <time>2019-12-09T16:13:21Z</time>
      </trkpt>
      <trkpt lat="42.94716" lon="0.95639">
        <ele>814.817</ele>
        <time>2019-12-09T16:13:41Z</time>
      </trkpt>
      <trkpt lat="42.94819" lon="0.95523">
        <ele>808.768</ele>
        <time>2019-12-09T16:14:01Z</time>
      </trkpt>
      <trkpt lat="42.95022" lon="0.95362">
        <ele>801.033</ele>
        <time>2019-12-09T16:14:21Z</time>
      </trkpt>
      <trkpt lat="42.95119" lon="0.95296">
        <ele>785.272</ele>
        <time>2019-12-09T16:14:41Z</time>
      </trkpt>
      <trkpt lat="42.9516" lon="0.95285">
        <ele>783.913</ele>
        <time>2019-12-09T16:15:01Z</time>
      </trkpt>
      <trkpt lat="42.95223" lon="0.95231">
        <ele>776.814</ele>
        <time>2019-12-09T16:15:21Z</time>
      </trkpt>
      <trkpt lat="42.95228" lon="0.95193">
        <ele>776.708</ele>
        <time>2019-12-09T16:15:41Z</time>
      </trkpt>
      <trkpt lat="42.95133" lon="0.95096">
        <ele>790.173</ele>
        <time>2019-12-09T16:16:01Z</time>
      </trkpt>
      <trkpt lat="42.95053" lon="0.94989">
        <ele>828.052</ele>
        <time>2019-12-09T16:16:21Z</time>
      </trkpt>
      <trkpt lat="42.94948" lon="0.94967">
        <ele>832.158</ele>
        <time>2019-12-09T16:16:41Z</time>
      </trkpt>
      <trkpt lat="42.94903" lon="0.94929">
        <ele>834.546</ele>
        <time>2019-12-09T16:17:01Z</time>
      </trkpt>
      <trkpt lat="42.94846" lon="0.94856">
        <ele>845.447</ele>
        <time>2019-12-09T16:17:21Z</time>
      </trkpt>
      <trkpt lat="42.94789" lon="0.94697">
        <ele>849.125</ele>
        <time>2019-12-09T16:17:41Z</time>
      </trkpt>
      <trkpt lat="42.94785" lon="0.94633">
        <ele>859.846</ele>
        <time>2019-12-09T16:18:01Z</time>
      </trkpt>
      <trkpt lat="42.94735" lon="0.94547">
        <ele>860.381</ele>
        <time>2019-12-09T16:18:21Z</time>
      </trkpt>
      <trkpt lat="42.94684" lon="0.9459">
        <ele>840.379</ele>
        <time>2019-12-09T16:18:41Z</time>
      </trkpt>
      <trkpt lat="42.94618" lon="0.94583">
        <ele>846.405</ele>
        <time>2019-12-09T16:19:01Z</time>
      </trkpt>
      <trkpt lat="42.94565" lon="0.9462">
        <ele>827.025</ele>
        <time>2019-12-09T16:19:21Z</time>
      </trkpt>
      <trkpt lat="42.94519" lon="0.9459">
        <ele>826.808</ele>
        <time>2019-12-09T16:19:41Z</time>
      </trkpt>
      <trkpt lat="42.94496" lon="0.94534">
        <ele>836.073</ele>
        <time>2019-12-09T16:20:01Z</time>
      </trkpt>
      <trkpt lat="42.94516" lon="0.94463">
        <ele>854.772</ele>
        <time>2019-12-09T16:20:21Z</time>
      </trkpt>
      <trkpt lat="42.94513" lon="0.94433">
        <ele>855.448</ele>
        <time>2019-12-09T16:20:41Z</time>
      </trkpt>
      <trkpt lat="42.9438" lon="0.94455">
        <ele>840.666</ele>
        <time>2019-12-09T16:21:01Z</time>
      </trkpt>
      <trkpt lat="42.94359" lon="0.94403">
        <ele>841.767</ele>
        <time>2019-12-09T16:21:21Z</time>
      </trkpt>
      <trkpt lat="42.94359" lon="0.94291">
        <ele>831.235</ele>
        <time>2019-12-09T16:21:41Z</time>
      </trkpt>
      <trkpt lat="42.94387" lon="0.94242">
        <ele>820.816</ele>
        <time>2019-12-09T16:22:01Z</time>
      </trkpt>
      <trkpt lat="42.9432" lon="0.94216">
        <ele>809.251</ele>
        <time>2019-12-09T16:22:21Z</time>
      </trkpt>
      <trkpt lat="42.94339" lon="0.94133">
        <ele>803.921</ele>
        <time>2019-12-09T16:22:41Z</time>
      </trkpt>
      <trkpt lat="42.94276" lon="0.94143">
        <ele>790.341</ele>
        <time>2019-12-09T16:23:01Z</time>
      </trkpt>
      <trkpt lat="42.94281" lon="0.94113">
        <ele>788.305</ele>
        <time>2019-12-09T16:23:21Z</time>
      </trkpt>
      <trkpt lat="42.94361" lon="0.94015">
        <ele>784.608</ele>
        <time>2019-12-09T16:23:41Z</time>
      </trkpt>
      <trkpt lat="42.94373" lon="0.93961">
        <ele>782.828</ele>
        <time>2019-12-09T16:24:01Z</time>
      </trkpt>
      <trkpt lat="42.9432" lon="0.93961">
        <ele>774.567</ele>
        <time>2019-12-09T16:24:21Z</time>
      </trkpt>
      <trkpt lat="42.94252" lon="0.93903">
        <ele>782.133</ele>
        <time>2019-12-09T16:24:41Z</time>
      </trkpt>
      <trkpt lat="42.94127" lon="0.9392">
        <ele>758.461</ele>
        <time>2019-12-09T16:25:01Z</time>
      </trkpt>
      <trkpt lat="42.94048" lon="0.93967">
        <ele>754.512</ele>
        <time>2019-12-09T16:25:21Z</time>
      </trkpt>
      <trkpt lat="42.9399" lon="0.93965">
        <ele>751.57</ele>
        <time>2019-12-09T16:25:41Z</time>
      </trkpt>
      <trkpt lat="42.93916" lon="0.93952">
        <ele>735.041</ele>
        <time>2019-12-09T16:26:01Z</time>
      </trkpt>
      <trkpt lat="42.93833" lon="0.93927">
        <ele>728.666</ele>
        <time>2019-12-09T16:26:21Z</time>
      </trkpt>
      <trkpt lat="42.93676" lon="0.93972">
        <ele>698.059</ele>
        <time>2019-12-09T16:26:41Z</time>
      </trkpt>
      <trkpt lat="42.93616" lon="0.93907">
        <ele>692.903</ele>
        <time>2019-12-09T16:27:01Z</time>
      </trkpt>
      <trkpt lat="42.93556" lon="0.93697">
        <ele>683.023</ele>
        <time>2019-12-09T16:27:21Z</time>
      </trkpt>
      <trkpt lat="42.93539" lon="0.93581">
        <ele>683.708</ele>
        <time>2019-12-09T16:27:41Z</time>
      </trkpt>
      <trkpt lat="42.93545" lon="0.93495">
        <ele>687.831</ele>
        <time>2019-12-09T16:28:01Z</time>
      </trkpt>
      <trkpt lat="42.93572" lon="0.93425">
        <ele>693.96</ele>
        <time>2019-12-09T16:28:21Z</time>
      </trkpt>
      <trkpt lat="42.93561" lon="0.93375">
        <ele>697.816</ele>
        <time>2019-12-09T16:28:41Z</time>
      </trkpt>
      <trkpt lat="42.93519" lon="0.933">
        <ele>703.224</ele>
        <time>2019-12-09T16:29:01Z</time>
      </trkpt>
      <trkpt lat="42.9355" lon="0.93141">
        <ele>709.035</ele>
        <time>2019-12-09T16:29:21Z</time>
      </trkpt>
      <trkpt lat="42.93545" lon="0.93096">
        <ele>709.463</ele>
        <time>2019-12-09T16:29:41Z</time>
      </trkpt>
      <trkpt lat="42.93523" lon="0.93021">
        <ele>714.024</ele>
        <time>2019-12-09T16:30:01Z</time>
      </trkpt>
      <trkpt lat="42.93489" lon="0.92989">
        <ele>710.379</ele>
        <time>2019-12-09T16:30:21Z</time>
      </trkpt>
      <trkpt lat="42.93483" lon="0.92944">
        <ele>710.484</ele>
        <time>2019-12-09T16:30:41Z</time>
      </trkpt>
      <trkpt lat="42.93541" lon="0.92835">
        <ele>723.107</ele>
        <time>2019-12-09T16:31:01Z</time>
      </trkpt>
      <trkpt lat="42.93577" lon="0.92684">
        <ele>710.017</ele>
        <time>2019-12-09T16:31:21Z</time>
      </trkpt>
      <trkpt lat="42.93545" lon="0.92714">
        <ele>707.408</ele>
        <time>2019-12-09T16:31:41Z</time>
      </trkpt>
      <trkpt lat="42.93552" lon="0.92644">
        <ele>699.284</ele>
        <time>2019-12-09T16:32:01Z</time>
      </trkpt>
      <trkpt lat="42.93572" lon="0.92598">
        <ele>699.173</ele>
        <time>2019-12-09T16:32:21Z</time>
      </trkpt>
      <trkpt lat="42.93574" lon="0.92543">
        <ele>696.319</ele>
        <time>2019-12-09T16:32:41Z</time>
      </trkpt>
      <trkpt lat="42.93563" lon="0.92521">
        <ele>696.077</ele>
        <time>2019-12-09T16:33:01Z</time>
      </trkpt>
      <trkpt lat="42.93492" lon="0.92517">
        <ele>694.538</ele>
        <time>2019-12-09T16:33:21Z</time>
      </trkpt>
      <trkpt lat="42.93481" lon="0.92468">
        <ele>698.786</ele>
        <time>2019-12-09T16:33:41Z</time>
      </trkpt>
      <trkpt lat="42.93454" lon="0.92448">
        <ele>698.887</ele>
        <time>2019-12-09T16:34:01Z</time>
      </trkpt>
      <trkpt lat="42.93442" lon="0.92392">
        <ele>699.012</ele>
        <time>2019-12-09T16:34:21Z</time>
      </trkpt>
      <trkpt lat="42.93423" lon="0.92386">
        <ele>698.222</ele>
        <time>2019-12-09T16:34:41Z</time>
      </trkpt>
      <trkpt lat="42.93413" lon="0.9235">
        <ele>686.662</ele>
        <time>2019-12-09T16:35:01Z</time>
      </trkpt>
      <trkpt lat="42.93406" lon="0.92283">
        <ele>680.008</ele>
        <time>2019-12-09T16:35:21Z</time>
      </trkpt>
      <trkpt lat="42.93366" lon="0.92223">
        <ele>671.408</ele>
        <time>2019-12-09T16:35:41Z</time>
      </trkpt>
      <trkpt lat="42.93346" lon="0.9215">
        <ele>669.068</ele>
        <time>2019-12-09T16:36:01Z</time>
      </trkpt>
      <trkpt lat="42.93302" lon="0.92103">
        <ele>649.067</ele>
        <time>2019-12-09T16:36:21Z</time>
      </trkpt>
      <trkpt lat="42.93283" lon="0.92015">
        <ele>650.943</ele>
        <time>2019-12-09T16:36:41Z</time>
      </trkpt>
      <trkpt lat="42.93275" lon="0.91942">
        <ele>656.921</ele>
        <time>2019-12-09T16:37:01Z</time>
      </trkpt>
      <trkpt lat="42.9315" lon="0.9192">
        <ele>642.582</ele>
        <time>2019-12-09T16:37:21Z</time>
      </trkpt>
      <trkpt lat="42.93151" lon="0.9188">
        <ele>643.02</ele>
        <time>2019-12-09T16:37:41Z</time>
      </trkpt>
      <trkpt lat="42.93173" lon="0.91821">
        <ele>636.361</ele>
        <time>2021-02-06T05:31:11Z</time>
      </trkpt>
      <trkpt lat="42.93167" lon="0.91797">
        <ele>636.086</ele>
        <time>2021-02-06T05:31:31Z</time>
      </trkpt>
      <trkpt lat="42.93145" lon="0.91797">
        <ele>639.711</ele>
        <time>2021-02-06T05:31:51Z</time>
      </trkpt>
      <trkpt lat="42.93137" lon="0.91782">
        <ele>640.821</ele>
        <time>2021-02-06T05:32:11Z</time>
      </trkpt>
      <trkpt lat="42.931" lon="0.91749">
        <ele>644.103</ele>
        <time>2021-02-06T05:32:31Z</time>
      </trkpt>
      <trkpt lat="42.93069" lon="0.91742">
        <ele>651.708</ele>
        <time>2021-02-06T05:32:51Z</time>
      </trkpt>
      <trkpt lat="42.93059" lon="0.91725">
        <ele>653.947</ele>
        <time>2021-02-06T05:33:11Z</time>
      </trkpt>
      <trkpt lat="42.9306" lon="0.91651">
        <ele>646.266</ele>
        <time>2021-02-06T05:33:31Z</time>
      </trkpt>
      <trkpt lat="42.93048" lon="0.91623">
        <ele>647.242</ele>
        <time>2021-02-06T05:33:51Z</time>
      </trkpt>
      <trkpt lat="42.93026" lon="0.9162">
        <ele>650.88</ele>
        <time>2021-02-06T05:34:11Z</time>
      </trkpt>
      <trkpt lat="42.92972" lon="0.91656">
        <ele>667.431</ele>
        <time>2019-12-09T16:40:41Z</time>
      </trkpt>
      <trkpt lat="42.92937" lon="0.91631">
        <ele>669.379</ele>
        <time>2019-12-09T16:41:01Z</time>
      </trkpt>
      <trkpt lat="42.92853" lon="0.91601">
        <ele>687.63</ele>
        <time>2019-12-09T16:41:21Z</time>
      </trkpt>
      <trkpt lat="42.92713" lon="0.91182">
        <ele>725.965</ele>
        <time>2019-12-09T16:41:41Z</time>
      </trkpt>
      <trkpt lat="42.92686" lon="0.91017">
        <ele>719.481</ele>
        <time>2019-12-09T16:42:01Z</time>
      </trkpt>
      <trkpt lat="42.92596" lon="0.90886">
        <ele>744.661</ele>
        <time>2019-12-09T16:42:21Z</time>
      </trkpt>
      <trkpt lat="42.92595" lon="0.90854">
        <ele>746.517</ele>
        <time>2019-12-09T16:42:41Z</time>
      </trkpt>
      <trkpt lat="42.92617" lon="0.90841">
        <ele>747.808</ele>
        <time>2021-02-06T05:36:51Z</time>
      </trkpt>
      <trkpt lat="42.92664" lon="0.90829">
        <ele>745.844</ele>
        <time>2021-02-06T05:37:11Z</time>
      </trkpt>
      <trkpt lat="42.92602" lon="0.90779">
        <ele>772.623</ele>
        <time>2021-02-06T05:37:31Z</time>
      </trkpt>
      <trkpt lat="42.92533" lon="0.90694">
        <ele>818.879</ele>
        <time>2021-02-06T05:37:51Z</time>
      </trkpt>
      <trkpt lat="42.92516" lon="0.90563">
        <ele>865.647</ele>
        <time>2021-02-06T05:38:11Z</time>
      </trkpt>
      <trkpt lat="42.9252" lon="0.90527">
        <ele>867.488</ele>
        <time>2021-02-06T05:38:31Z</time>
      </trkpt>
      <trkpt lat="42.92602" lon="0.90469">
        <ele>830.726</ele>
        <time>2021-02-06T05:38:51Z</time>
      </trkpt>
      <trkpt lat="42.92638" lon="0.90461">
        <ele>812.697</ele>
        <time>2021-02-06T05:39:11Z</time>
      </trkpt>
      <trkpt lat="42.92642" lon="0.90435">
        <ele>807.212</ele>
        <time>2021-02-06T05:39:31Z</time>
      </trkpt>
      <trkpt lat="42.92659" lon="0.90439">
        <ele>800.496</ele>
        <time>2021-02-06T05:39:51Z</time>
      </trkpt>
      <trkpt lat="42.92679" lon="0.90459">
        <ele>793.131</ele>
        <time>2021-02-06T05:40:11Z</time>
      </trkpt>
      <trkpt lat="42.92689" lon="0.90432">
        <ele>785.324</ele>
        <time>2021-02-06T05:40:31Z</time>
      </trkpt>
      <trkpt lat="42.92717" lon="0.90421">
        <ele>771.408</ele>
        <time>2021-02-06T05:40:51Z</time>
      </trkpt>
      <trkpt lat="42.92716" lon="0.90393">
        <ele>765.125</ele>
        <time>2021-02-06T05:41:11Z</time>
      </trkpt>
      <trkpt lat="42.92749" lon="0.90406">
        <ele>753.784</ele>
        <time>2021-02-06T05:41:31Z</time>
      </trkpt>
      <trkpt lat="42.92752" lon="0.90341">
        <ele>736.05</ele>
        <time>2021-02-06T05:41:51Z</time>
      </trkpt>
      <trkpt lat="42.9274" lon="0.90208">
        <ele>733.098</ele>
        <time>2021-02-06T05:42:11Z</time>
      </trkpt>
      <trkpt lat="42.92818" lon="0.90218">
        <ele>704.549</ele>
        <time>2021-02-06T05:42:31Z</time>
      </trkpt>
      <trkpt lat="42.92854" lon="0.90201">
        <ele>697.437</ele>
        <time>2021-02-06T05:42:51Z</time>
      </trkpt>
      <trkpt lat="42.92917" lon="0.89957">
        <ele>699.248</ele>
        <time>2019-12-09T16:45:41Z</time>
      </trkpt>
      <trkpt lat="42.92867" lon="0.89768">
        <ele>704.733</ele>
        <time>2019-12-09T16:46:01Z</time>
      </trkpt>
      <trkpt lat="42.92824" lon="0.89646">
        <ele>722.918</ele>
        <time>2019-12-09T16:46:21Z</time>
      </trkpt>
      <trkpt lat="42.92834" lon="0.89569">
        <ele>696.398</ele>
        <time>2019-12-09T16:46:41Z</time>
      </trkpt>
      <trkpt lat="42.9285" lon="0.89577">
        <ele>696.817</ele>
        <time>2021-02-06T05:44:31Z</time>
      </trkpt>
      <trkpt lat="42.9287" lon="0.89506">
        <ele>690.008</ele>
        <time>2021-02-06T05:44:51Z</time>
      </trkpt>
      <trkpt lat="42.92882" lon="0.89498">
        <ele>687.727</ele>
        <time>2021-02-06T05:45:11Z</time>
      </trkpt>
      <trkpt lat="42.9289" lon="0.89523">
        <ele>686.736</ele>
        <time>2021-02-06T05:45:31Z</time>
      </trkpt>
      <trkpt lat="42.92902" lon="0.89505">
        <ele>684.462</ele>
        <time>2021-02-06T05:45:51Z</time>
      </trkpt>
      <trkpt lat="42.92986" lon="0.89564">
        <ele>699.17</ele>
        <time>2019-12-09T16:47:41Z</time>
      </trkpt>
      <trkpt lat="42.92986" lon="0.89601">
        <ele>703.121</ele>
        <time>2019-12-09T16:48:01Z</time>
      </trkpt>
      <trkpt lat="42.93041" lon="0.89637">
        <ele>731.189</ele>
        <time>2019-12-09T16:48:21Z</time>
      </trkpt>
      <trkpt lat="42.93047" lon="0.89665">
        <ele>734.28</ele>
        <time>2019-12-09T16:48:41Z</time>
      </trkpt>
      <trkpt lat="42.93216" lon="0.8974">
        <ele>807.095</ele>
        <time>2019-12-09T16:49:01Z</time>
      </trkpt>
      <trkpt lat="42.93238" lon="0.89794">
        <ele>820.829</ele>
        <time>2019-12-09T16:49:21Z</time>
      </trkpt>
      <trkpt lat="42.93346" lon="0.89667">
        <ele>853.7</ele>
        <time>2019-12-09T16:49:41Z</time>
      </trkpt>
      <trkpt lat="42.93446" lon="0.89597">
        <ele>873.92</ele>
        <time>2019-12-09T16:50:01Z</time>
      </trkpt>
      <trkpt lat="42.93556" lon="0.89543">
        <ele>880.108</ele>
        <time>2019-12-09T16:50:21Z</time>
      </trkpt>
      <trkpt lat="42.93696" lon="0.89515">
        <ele>880.828</ele>
        <time>2019-12-09T16:50:41Z</time>
      </trkpt>
      <trkpt lat="42.93797" lon="0.89406">
        <ele>911.497</ele>
        <time>2019-12-09T16:51:01Z</time>
      </trkpt>
      <trkpt lat="42.93849" lon="0.89391">
        <ele>902.313</ele>
        <time>2019-12-09T16:51:21Z</time>
      </trkpt>
      <trkpt lat="42.93937" lon="0.89384">
        <ele>911.821</ele>
        <time>2019-12-09T16:51:41Z</time>
      </trkpt>
      <trkpt lat="42.93935" lon="0.893">
        <ele>910.892</ele>
        <time>2019-12-09T16:52:01Z</time>
      </trkpt>
      <trkpt lat="42.9397" lon="0.89234">
        <ele>905.15</ele>
        <time>2019-12-09T16:52:21Z</time>
      </trkpt>
      <trkpt lat="42.94025" lon="0.8921">
        <ele>901.391</ele>
        <time>2019-12-09T16:52:41Z</time>
      </trkpt>
      <trkpt lat="42.9413" lon="0.89187">
        <ele>898.066</ele>
        <time>2019-12-09T16:53:01Z</time>
      </trkpt>
      <trkpt lat="42.9423" lon="0.8915">
        <ele>888.747</ele>
        <time>2019-12-09T16:53:21Z</time>
      </trkpt>
      <trkpt lat="42.94469" lon="0.88938">
        <ele>888.929</ele>
        <time>2019-12-09T16:53:41Z</time>
      </trkpt>
      <trkpt lat="42.94508" lon="0.88912">
        <ele>886.321</ele>
        <time>2019-12-09T16:54:01Z</time>
      </trkpt>
      <trkpt lat="42.94541" lon="0.88854">
        <ele>884.608</ele>
        <time>2019-12-09T16:54:21Z</time>
      </trkpt>
      <trkpt lat="42.94543" lon="0.888">
        <ele>879.02</ele>
        <time>2019-12-09T16:54:41Z</time>
      </trkpt>
      <trkpt lat="42.94516" lon="0.88751">
        <ele>875.029</ele>
        <time>2019-12-09T16:55:01Z</time>
      </trkpt>
      <trkpt lat="42.94469" lon="0.88713">
        <ele>864.975</ele>
        <time>2019-12-09T16:55:21Z</time>
      </trkpt>
      <trkpt lat="42.94419" lon="0.88635">
        <ele>867.443</ele>
        <time>2019-12-09T16:55:41Z</time>
      </trkpt>
      <trkpt lat="42.94417" lon="0.88588">
        <ele>867.274</ele>
        <time>2019-12-09T16:56:01Z</time>
      </trkpt>
      <trkpt lat="42.94332" lon="0.88483">
        <ele>866.152</ele>
        <time>2019-12-09T16:56:21Z</time>
      </trkpt>
      <trkpt lat="42.94329" lon="0.88431">
        <ele>871.363</ele>
        <time>2019-12-09T16:56:41Z</time>
      </trkpt>
      <trkpt lat="42.94296" lon="0.88316">
        <ele>882.578</ele>
        <time>2019-12-09T16:57:01Z</time>
      </trkpt>
      <trkpt lat="42.94334" lon="0.88307">
        <ele>891.449</ele>
        <time>2019-12-09T16:57:21Z</time>
      </trkpt>
      <trkpt lat="42.9435" lon="0.88217">
        <ele>896.002</ele>
        <time>2019-12-09T16:57:41Z</time>
      </trkpt>
      <trkpt lat="42.9437" lon="0.88155">
        <ele>896.222</ele>
        <time>2019-12-09T16:58:01Z</time>
      </trkpt>
      <trkpt lat="42.94364" lon="0.88039">
        <ele>897.408</ele>
        <time>2019-12-09T16:58:21Z</time>
      </trkpt>
      <trkpt lat="42.94383" lon="0.88">
        <ele>902.99</ele>
        <time>2019-12-09T16:58:41Z</time>
      </trkpt>
      <trkpt lat="42.9437" lon="0.87964">
        <ele>908.439</ele>
        <time>2019-12-09T16:59:01Z</time>
      </trkpt>
      <trkpt lat="42.94334" lon="0.87931">
        <ele>905.365</ele>
        <time>2019-12-09T16:59:21Z</time>
      </trkpt>
      <trkpt lat="42.94279" lon="0.87934">
        <ele>887.073</ele>
        <time>2019-12-09T16:59:41Z</time>
      </trkpt>
      <trkpt lat="42.94246" lon="0.87921">
        <ele>878.464</ele>
        <time>2019-12-09T17:00:01Z</time>
      </trkpt>
      <trkpt lat="42.94249" lon="0.87876">
        <ele>867.442</ele>
        <time>2019-12-09T17:00:21Z</time>
      </trkpt>
      <trkpt lat="42.94298" lon="0.87856">
        <ele>892.993</ele>
        <time>2019-12-09T17:00:41Z</time>
      </trkpt>
      <trkpt lat="42.9432" lon="0.87807">
        <ele>891.968</ele>
        <time>2019-12-09T17:01:01Z</time>
      </trkpt>
      <trkpt lat="42.94314" lon="0.87758">
        <ele>890.194</ele>
        <time>2019-12-09T17:01:21Z</time>
      </trkpt>
      <trkpt lat="42.94243" lon="0.87693">
        <ele>858.957</ele>
        <time>2019-12-09T17:01:41Z</time>
      </trkpt>
      <trkpt lat="42.94243" lon="0.8764">
        <ele>856.622</ele>
        <time>2019-12-09T17:02:01Z</time>
      </trkpt>
      <trkpt lat="42.94271" lon="0.87556">
        <ele>871.508</ele>
        <time>2019-12-09T17:02:21Z</time>
      </trkpt>
      <trkpt lat="42.94276" lon="0.87492">
        <ele>877.455</ele>
        <time>2019-12-09T17:02:41Z</time>
      </trkpt>
      <trkpt lat="42.9424" lon="0.87477">
        <ele>871.974</ele>
        <time>2019-12-09T17:03:01Z</time>
      </trkpt>
      <trkpt lat="42.94177" lon="0.87477">
        <ele>869.78</ele>
        <time>2019-12-09T17:03:21Z</time>
      </trkpt>
      <trkpt lat="42.94142" lon="0.87464">
        <ele>864.848</ele>
        <time>2019-12-09T17:03:41Z</time>
      </trkpt>
      <trkpt lat="42.94116" lon="0.87423">
        <ele>867.679</ele>
        <time>2019-12-09T17:04:01Z</time>
      </trkpt>
      <trkpt lat="42.94075" lon="0.87328">
        <ele>885.327</ele>
        <time>2019-12-09T17:04:21Z</time>
      </trkpt>
      <trkpt lat="42.93985" lon="0.87236">
        <ele>877.698</ele>
        <time>2019-12-09T17:04:41Z</time>
      </trkpt>
      <trkpt lat="42.93937" lon="0.8715">
        <ele>878.453</ele>
        <time>2019-12-09T17:05:01Z</time>
      </trkpt>
      <trkpt lat="42.93897" lon="0.87103">
        <ele>859.556</ele>
        <time>2019-12-09T17:05:21Z</time>
      </trkpt>
      <trkpt lat="42.93894" lon="0.87052">
        <ele>860.159</ele>
        <time>2019-12-09T17:05:41Z</time>
      </trkpt>
      <trkpt lat="42.9393" lon="0.86893">
        <ele>863.514</ele>
        <time>2019-12-09T17:06:01Z</time>
      </trkpt>
      <trkpt lat="42.93993" lon="0.86749">
        <ele>856.708</ele>
        <time>2019-12-09T17:06:21Z</time>
      </trkpt>
      <trkpt lat="42.9401" lon="0.86723">
        <ele>862.381</ele>
        <time>2019-12-09T17:06:41Z</time>
      </trkpt>
      <trkpt lat="42.94007" lon="0.86663">
        <ele>857.09</ele>
        <time>2019-12-09T17:07:01Z</time>
      </trkpt>
      <trkpt lat="42.94036" lon="0.86597">
        <ele>861.436</ele>
        <time>2019-12-09T17:07:21Z</time>
      </trkpt>
      <trkpt lat="42.94089" lon="0.86558">
        <ele>869.044</ele>
        <time>2019-12-09T17:07:41Z</time>
      </trkpt>
      <trkpt lat="42.94124" lon="0.86481">
        <ele>881.655</ele>
        <time>2019-12-09T17:08:01Z</time>
      </trkpt>
      <trkpt lat="42.94127" lon="0.86455">
        <ele>884.693</ele>
        <time>2019-12-09T17:08:21Z</time>
      </trkpt>
      <trkpt lat="42.94219" lon="0.86421">
        <ele>888.314</ele>
        <time>2019-12-09T17:08:41Z</time>
      </trkpt>
      <trkpt lat="42.9424" lon="0.86378">
        <ele>902.749</ele>
        <time>2019-12-09T17:09:01Z</time>
      </trkpt>
      <trkpt lat="42.94254" lon="0.8626">
        <ele>918.111</ele>
        <time>2019-12-09T17:09:21Z</time>
      </trkpt>
      <trkpt lat="42.94263" lon="0.86163">
        <ele>930.921</ele>
        <time>2019-12-09T17:09:41Z</time>
      </trkpt>
      <trkpt lat="42.94307" lon="0.86065">
        <ele>945.903</ele>
        <time>2019-12-09T17:10:01Z</time>
      </trkpt>
      <trkpt lat="42.94331" lon="0.85912">
        <ele>966.408</ele>
        <time>2019-12-09T17:10:21Z</time>
      </trkpt>
      <trkpt lat="42.94376" lon="0.85841">
        <ele>971.987</ele>
        <time>2019-12-09T17:10:41Z</time>
      </trkpt>
      <trkpt lat="42.9448" lon="0.85865">
        <ele>983.336</ele>
        <time>2019-12-09T17:11:01Z</time>
      </trkpt>
      <trkpt lat="42.94538" lon="0.85848">
        <ele>1004.142</ele>
        <time>2019-12-09T17:11:21Z</time>
      </trkpt>
      <trkpt lat="42.9457" lon="0.857">
        <ele>1022.62</ele>
        <time>2019-12-09T17:11:41Z</time>
      </trkpt>
      <trkpt lat="42.94568" lon="0.85511">
        <ele>1056.661</ele>
        <time>2019-12-09T17:12:01Z</time>
      </trkpt>
      <trkpt lat="42.94511" lon="0.85468">
        <ele>1065.439</ele>
        <time>2019-12-09T17:12:21Z</time>
      </trkpt>
      <trkpt lat="42.94485" lon="0.85391">
        <ele>1074.31</ele>
        <time>2019-12-09T17:12:41Z</time>
      </trkpt>
      <trkpt lat="42.94529" lon="0.85352">
        <ele>1081.535</ele>
        <time>2019-12-09T17:13:01Z</time>
      </trkpt>
      <trkpt lat="42.94544" lon="0.85309">
        <ele>1084.454</ele>
        <time>2019-12-09T17:13:21Z</time>
      </trkpt>
      <trkpt lat="42.94551" lon="0.85262">
        <ele>1084.856</ele>
        <time>2019-12-09T17:13:41Z</time>
      </trkpt>
      <trkpt lat="42.94598" lon="0.85144">
        <ele>1098.111</ele>
        <time>2019-12-09T17:14:01Z</time>
      </trkpt>
      <trkpt lat="42.94625" lon="0.85026">
        <ele>1097.708</ele>
        <time>2019-12-09T17:14:21Z</time>
      </trkpt>
      <trkpt lat="42.94664" lon="0.84945">
        <ele>1094.181</ele>
        <time>2019-12-09T17:14:41Z</time>
      </trkpt>
      <trkpt lat="42.94708" lon="0.8493">
        <ele>1112.32</ele>
        <time>2019-12-09T17:15:01Z</time>
      </trkpt>
      <trkpt lat="42.94761" lon="0.8494">
        <ele>1131.916</ele>
        <time>2019-12-09T17:15:21Z</time>
      </trkpt>
      <trkpt lat="42.94761" lon="0.84762">
        <ele>1119.584</ele>
        <time>2019-12-09T17:15:41Z</time>
      </trkpt>
      <trkpt lat="42.9481" lon="0.84668">
        <ele>1132.135</ele>
        <time>2019-12-09T17:16:01Z</time>
      </trkpt>
      <trkpt lat="42.94816" lon="0.84556">
        <ele>1126.973</ele>
        <time>2019-12-09T17:16:21Z</time>
      </trkpt>
      <trkpt lat="42.94843" lon="0.84412">
        <ele>1151.184</ele>
        <time>2019-12-09T17:16:41Z</time>
      </trkpt>
      <trkpt lat="42.94829" lon="0.84247">
        <ele>1147.199</ele>
        <time>2019-12-09T17:17:01Z</time>
      </trkpt>
      <trkpt lat="42.94866" lon="0.84054">
        <ele>1167.771</ele>
        <time>2019-12-09T17:17:21Z</time>
      </trkpt>
      <trkpt lat="42.9489" lon="0.83818">
        <ele>1179.041</ele>
        <time>2019-12-09T17:17:41Z</time>
      </trkpt>
      <trkpt lat="42.94909" lon="0.83494">
        <ele>1175.815</ele>
        <time>2019-12-09T17:18:01Z</time>
      </trkpt>
      <trkpt lat="42.94936" lon="0.83406">
        <ele>1174.308</ele>
        <time>2019-12-09T17:18:21Z</time>
      </trkpt>
      <trkpt lat="42.94953" lon="0.83333">
        <ele>1148.983</ele>
        <time>2019-12-09T17:18:41Z</time>
      </trkpt>
      <trkpt lat="42.94986" lon="0.83333">
        <ele>1156.792</ele>
        <time>2019-12-09T17:19:01Z</time>
      </trkpt>
      <trkpt lat="42.95035" lon="0.83387">
        <ele>1167.828</ele>
        <time>2019-12-09T17:19:21Z</time>
      </trkpt>
      <trkpt lat="42.951" lon="0.83419">
        <ele>1165.156</ele>
        <time>2019-12-09T17:19:41Z</time>
      </trkpt>
      <trkpt lat="42.95281" lon="0.8353">
        <ele>1175.097</ele>
        <time>2019-12-09T17:20:01Z</time>
      </trkpt>
      <trkpt lat="42.95311" lon="0.8353">
        <ele>1176.895</ele>
        <time>2019-12-09T17:20:21Z</time>
      </trkpt>
      <trkpt lat="42.95352" lon="0.83485">
        <ele>1172.976</ele>
        <time>2019-12-09T17:20:41Z</time>
      </trkpt>
      <trkpt lat="42.95358" lon="0.8341">
        <ele>1146.041</ele>
        <time>2019-12-09T17:21:01Z</time>
      </trkpt>
      <trkpt lat="42.95416" lon="0.83361">
        <ele>1161.056</ele>
        <time>2019-12-09T17:21:21Z</time>
      </trkpt>
      <trkpt lat="42.9541" lon="0.83277">
        <ele>1143.259</ele>
        <time>2019-12-09T17:21:41Z</time>
      </trkpt>
      <trkpt lat="42.95424" lon="0.83219">
        <ele>1169.914</ele>
        <time>2019-12-09T17:22:01Z</time>
      </trkpt>
      <trkpt lat="42.95421" lon="0.83134">
        <ele>1157.808</ele>
        <time>2019-12-09T17:22:21Z</time>
      </trkpt>
      <trkpt lat="42.95462" lon="0.83028">
        <ele>1151.961</ele>
        <time>2019-12-09T17:22:41Z</time>
      </trkpt>
      <trkpt lat="42.95476" lon="0.82979">
        <ele>1145.88</ele>
        <time>2019-12-09T17:23:01Z</time>
      </trkpt>
      <trkpt lat="42.95482" lon="0.82915">
        <ele>1136.776</ele>
        <time>2019-12-09T17:23:21Z</time>
      </trkpt>
      <trkpt lat="42.9551" lon="0.82897">
        <ele>1141.884</ele>
        <time>2019-12-09T17:23:41Z</time>
      </trkpt>
      <trkpt lat="42.95572" lon="0.82919">
        <ele>1153.455</ele>
        <time>2019-12-09T17:24:01Z</time>
      </trkpt>
      <trkpt lat="42.95622" lon="0.829">
        <ele>1136.613</ele>
        <time>2019-12-09T17:24:21Z</time>
      </trkpt>
      <trkpt lat="42.9568" lon="0.82893">
        <ele>1149.744</ele>
        <time>2019-12-09T17:24:41Z</time>
      </trkpt>
      <trkpt lat="42.95716" lon="0.82717">
        <ele>1093.489</ele>
        <time>2019-12-09T17:25:01Z</time>
      </trkpt>
      <trkpt lat="42.95763" lon="0.827">
        <ele>1107.575</ele>
        <time>2019-12-09T17:25:21Z</time>
      </trkpt>
      <trkpt lat="42.95917" lon="0.82749">
        <ele>1138.228</ele>
        <time>2021-02-06T06:24:11Z</time>
      </trkpt>
      <trkpt lat="42.95892" lon="0.82674">
        <ele>1125.62</ele>
        <time>2021-02-06T06:24:31Z</time>
      </trkpt>
      <trkpt lat="42.95895" lon="0.82643">
        <ele>1121.708</ele>
        <time>2021-02-06T06:24:51Z</time>
      </trkpt>
      <trkpt lat="42.95929" lon="0.82615">
        <ele>1128.563</ele>
        <time>2021-02-06T06:25:11Z</time>
      </trkpt>
      <trkpt lat="42.95946" lon="0.82475">
        <ele>1103.832</ele>
        <time>2021-02-06T06:25:31Z</time>
      </trkpt>
      <trkpt lat="42.95973" lon="0.82411">
        <ele>1099.678</ele>
        <time>2021-02-06T06:25:51Z</time>
      </trkpt>
      <trkpt lat="42.95967" lon="0.82379">
        <ele>1096.016</ele>
        <time>2021-02-06T06:26:11Z</time>
      </trkpt>
      <trkpt lat="42.9601" lon="0.82363">
        <ele>1100.967</ele>
        <time>2019-12-09T17:28:21Z</time>
      </trkpt>
      <trkpt lat="42.96066" lon="0.82357">
        <ele>1104.245</ele>
        <time>2019-12-09T17:28:41Z</time>
      </trkpt>
      <trkpt lat="42.96095" lon="0.82305">
        <ele>1099.546</ele>
        <time>2019-12-09T17:29:01Z</time>
      </trkpt>
      <trkpt lat="42.96129" lon="0.8231">
        <ele>1103.541</ele>
        <time>2019-12-09T17:29:21Z</time>
      </trkpt>
      <trkpt lat="42.96179" lon="0.82157">
        <ele>1072.056</ele>
        <time>2019-12-09T17:29:41Z</time>
      </trkpt>
      <trkpt lat="42.96212" lon="0.82134">
        <ele>1078.259</ele>
        <time>2019-12-09T17:30:01Z</time>
      </trkpt>
      <trkpt lat="42.96211" lon="0.82089">
        <ele>1073.414</ele>
        <time>2019-12-09T17:30:21Z</time>
      </trkpt>
      <trkpt lat="42.96242" lon="0.81928">
        <ele>1045.808</ele>
        <time>2019-12-09T17:30:41Z</time>
      </trkpt>
      <trkpt lat="42.96336" lon="0.81719">
        <ele>1051.011</ele>
        <time>2019-12-09T17:31:01Z</time>
      </trkpt>
      <trkpt lat="42.96341" lon="0.81638">
        <ele>1033.95</ele>
        <time>2019-12-09T17:31:21Z</time>
      </trkpt>
      <trkpt lat="42.96374" lon="0.81479">
        <ele>1013.286</ele>
        <time>2019-12-09T17:31:41Z</time>
      </trkpt>
      <trkpt lat="42.96383" lon="0.81301">
        <ele>988.134</ele>
        <time>2019-12-09T17:32:01Z</time>
      </trkpt>
      <trkpt lat="42.96382" lon="0.81144">
        <ele>961.665</ele>
        <time>2019-12-09T17:32:21Z</time>
      </trkpt>
      <trkpt lat="42.96399" lon="0.80951">
        <ele>931.273</ele>
        <time>2019-12-09T17:32:41Z</time>
      </trkpt>
      <trkpt lat="42.96429" lon="0.80863">
        <ele>931.164</ele>
        <time>2019-12-09T17:33:01Z</time>
      </trkpt>
      <trkpt lat="42.96506" lon="0.8082">
        <ele>913.949</ele>
        <time>2019-12-09T17:33:21Z</time>
      </trkpt>
      <trkpt lat="42.96589" lon="0.80799">
        <ele>890.754</ele>
        <time>2019-12-09T17:33:41Z</time>
      </trkpt>
      <trkpt lat="42.96621" lon="0.80769">
        <ele>884.656</ele>
        <time>2019-12-09T17:34:01Z</time>
      </trkpt>
      <trkpt lat="42.96679" lon="0.80743">
        <ele>868.211</ele>
        <time>2019-12-09T17:34:21Z</time>
      </trkpt>
      <trkpt lat="42.96806" lon="0.80728">
        <ele>839.508</ele>
        <time>2019-12-09T17:34:41Z</time>
      </trkpt>
      <trkpt lat="42.96807" lon="0.80775">
        <ele>851.371</ele>
        <time>2019-12-09T17:35:01Z</time>
      </trkpt>
      <trkpt lat="42.96859" lon="0.80859">
        <ele>844.28</ele>
        <time>2019-12-09T17:35:21Z</time>
      </trkpt>
      <trkpt lat="42.96867" lon="0.80908">
        <ele>848.866</ele>
        <time>2019-12-09T17:35:41Z</time>
      </trkpt>
      <trkpt lat="42.96903" lon="0.8088">
        <ele>840.464</ele>
        <time>2019-12-09T17:36:01Z</time>
      </trkpt>
      <trkpt lat="42.96905" lon="0.80829">
        <ele>822.365</ele>
        <time>2019-12-09T17:36:21Z</time>
      </trkpt>
      <trkpt lat="42.96939" lon="0.80807">
        <ele>815.253</ele>
        <time>2019-12-09T17:36:41Z</time>
      </trkpt>
      <trkpt lat="42.9699" lon="0.80835">
        <ele>832.144</ele>
        <time>2019-12-09T17:37:01Z</time>
      </trkpt>
      <trkpt lat="42.97004" lon="0.80823">
        <ele>832.569</ele>
        <time>2019-12-09T17:37:21Z</time>
      </trkpt>
      <trkpt lat="42.97007" lon="0.80745">
        <ele>809.587</ele>
        <time>2019-12-09T17:37:41Z</time>
      </trkpt>
      <trkpt lat="42.97026" lon="0.80702">
        <ele>810.942</ele>
        <time>2019-12-09T17:38:01Z</time>
      </trkpt>
      <trkpt lat="42.97054" lon="0.80683">
        <ele>817.426</ele>
        <time>2019-12-09T17:38:21Z</time>
      </trkpt>
      <trkpt lat="42.97045" lon="0.80604">
        <ele>802.508</ele>
        <time>2019-12-09T17:38:41Z</time>
      </trkpt>
      <trkpt lat="42.97025" lon="0.80577">
        <ele>790.974</ele>
        <time>2019-12-09T17:39:01Z</time>
      </trkpt>
      <trkpt lat="42.9703" lon="0.80547">
        <ele>795.123</ele>
        <time>2019-12-09T17:39:21Z</time>
      </trkpt>
      <trkpt lat="42.9703" lon="0.8049">
        <ele>789.799</ele>
        <time>2019-12-09T17:39:41Z</time>
      </trkpt>
      <trkpt lat="42.97045" lon="0.80389">
        <ele>782.667</ele>
        <time>2019-12-09T17:40:01Z</time>
      </trkpt>
      <trkpt lat="42.97062" lon="0.80345">
        <ele>783.938</ele>
        <time>2019-12-09T17:40:21Z</time>
      </trkpt>
      <trkpt lat="42.97082" lon="0.80267">
        <ele>770.336</ele>
        <time>2019-12-09T17:40:41Z</time>
      </trkpt>
      <trkpt lat="42.97114" lon="0.80193">
        <ele>774.277</ele>
        <time>2019-12-09T17:41:01Z</time>
      </trkpt>
      <trkpt lat="42.97193" lon="0.8012">
        <ele>772.032</ele>
        <time>2019-12-09T17:41:21Z</time>
      </trkpt>
      <trkpt lat="42.97232" lon="0.80055">
        <ele>753.493</ele>
        <time>2019-12-09T17:41:41Z</time>
      </trkpt>
      <trkpt lat="42.97183" lon="0.80083">
        <ele>746.865</ele>
        <time>2019-12-09T17:42:01Z</time>
      </trkpt>
      <trkpt lat="42.97127" lon="0.80101">
        <ele>748.321</ele>
        <time>2019-12-09T17:42:21Z</time>
      </trkpt>
      <trkpt lat="42.97072" lon="0.80101">
        <ele>729.908</ele>
        <time>2019-12-09T17:42:41Z</time>
      </trkpt>
      <trkpt lat="42.9704" lon="0.80145">
        <ele>730.485</ele>
        <time>2019-12-09T17:43:01Z</time>
      </trkpt>
      <trkpt lat="42.96968" lon="0.80216">
        <ele>717.684</ele>
        <time>2019-12-09T17:43:21Z</time>
      </trkpt>
      <trkpt lat="42.96966" lon="0.80196">
        <ele>715.03</ele>
        <time>2019-12-09T17:43:41Z</time>
      </trkpt>
      <trkpt lat="42.97001" lon="0.80129">
        <ele>724.338</ele>
        <time>2019-12-09T17:44:01Z</time>
      </trkpt>
      <trkpt lat="42.97" lon="0.80046">
        <ele>696.589</ele>
        <time>2019-12-09T17:44:21Z</time>
      </trkpt>
      <trkpt lat="42.97065" lon="0.79917">
        <ele>695.527</ele>
        <time>2019-12-09T17:44:41Z</time>
      </trkpt>
      <trkpt lat="42.97124" lon="0.79913">
        <ele>690.968</ele>
        <time>2019-12-09T17:45:01Z</time>
      </trkpt>
      <trkpt lat="42.97166" lon="0.79878">
        <ele>688.993</ele>
        <time>2019-12-09T17:45:21Z</time>
      </trkpt>
      <trkpt lat="42.97178" lon="0.79759">
        <ele>669.621</ele>
        <time>2019-12-09T17:45:41Z</time>
      </trkpt>
      <trkpt lat="42.97139" lon="0.79805">
        <ele>670.241</ele>
        <time>2019-12-09T17:46:01Z</time>
      </trkpt>
      <trkpt lat="42.97111" lon="0.79805">
        <ele>669.305</ele>
        <time>2019-12-09T17:46:21Z</time>
      </trkpt>
      <trkpt lat="42.97075" lon="0.79765">
        <ele>658.108</ele>
        <time>2019-12-09T17:46:41Z</time>
      </trkpt>
      <trkpt lat="42.9703" lon="0.798">
        <ele>659.598</ele>
        <time>2019-12-09T17:47:01Z</time>
      </trkpt>
      <trkpt lat="42.96998" lon="0.79793">
        <ele>648.257</ele>
        <time>2019-12-09T17:47:21Z</time>
      </trkpt>
      <trkpt lat="42.96981" lon="0.79761">
        <ele>645.073</ele>
        <time>2019-12-09T17:47:41Z</time>
      </trkpt>
      <trkpt lat="42.96981" lon="0.79692">
        <ele>633.231</ele>
        <time>2019-12-09T17:48:01Z</time>
      </trkpt>
      <trkpt lat="42.96936" lon="0.79696">
        <ele>629.332</ele>
        <time>2019-12-09T17:48:21Z</time>
      </trkpt>
      <trkpt lat="42.96915" lon="0.79779">
        <ele>628.37</ele>
        <time>2019-12-09T17:48:41Z</time>
      </trkpt>
      <trkpt lat="42.96863" lon="0.79782">
        <ele>622.571</ele>
        <time>2019-12-09T17:49:01Z</time>
      </trkpt>
      <trkpt lat="42.96838" lon="0.79795">
        <ele>621.096</ele>
        <time>2019-12-09T17:49:21Z</time>
      </trkpt>
      <trkpt lat="42.96843" lon="0.79844">
        <ele>625.749</ele>
        <time>2019-12-09T17:49:41Z</time>
      </trkpt>
      <trkpt lat="42.96801" lon="0.7988">
        <ele>622.802</ele>
        <time>2019-12-09T17:50:01Z</time>
      </trkpt>
      <trkpt lat="42.96803" lon="0.79749">
        <ele>599.822</ele>
        <time>2019-12-09T17:50:21Z</time>
      </trkpt>
      <trkpt lat="42.96877" lon="0.7968">
        <ele>610.908</ele>
        <time>2019-12-09T17:50:41Z</time>
      </trkpt>
      <trkpt lat="42.96882" lon="0.79542">
        <ele>586.17</ele>
        <time>2019-12-09T17:51:01Z</time>
      </trkpt>
      <trkpt lat="42.96961" lon="0.79549">
        <ele>596.599</ele>
        <time>2019-12-09T17:51:21Z</time>
      </trkpt>
      <trkpt lat="42.97001" lon="0.7954">
        <ele>595.765</ele>
        <time>2019-12-09T17:51:41Z</time>
      </trkpt>
      <trkpt lat="42.97042" lon="0.79515">
        <ele>592.283</ele>
        <time>2019-12-09T17:52:01Z</time>
      </trkpt>
      <trkpt lat="42.9708" lon="0.79517">
        <ele>589.634</ele>
        <time>2019-12-09T17:52:21Z</time>
      </trkpt>
      <trkpt lat="42.97107" lon="0.79462">
        <ele>579.162</ele>
        <time>2019-12-09T17:52:41Z</time>
      </trkpt>
      <trkpt lat="42.97131" lon="0.79384">
        <ele>563.253</ele>
        <time>2019-12-09T17:53:01Z</time>
      </trkpt>
      <trkpt lat="42.97218" lon="0.79349">
        <ele>563.548</ele>
        <time>2019-12-09T17:53:21Z</time>
      </trkpt>
      <trkpt lat="42.9726" lon="0.79391">
        <ele>572.483</ele>
        <time>2019-12-09T17:53:41Z</time>
      </trkpt>
      <trkpt lat="42.97276" lon="0.79388">
        <ele>572.825</ele>
        <time>2019-12-09T17:54:01Z</time>
      </trkpt>
      <trkpt lat="42.97284" lon="0.79315">
        <ele>558.217</ele>
        <time>2019-12-09T17:54:21Z</time>
      </trkpt>
      <trkpt lat="42.97321" lon="0.79287">
        <ele>559.608</ele>
        <time>2019-12-09T17:54:41Z</time>
      </trkpt>
      <trkpt lat="42.97353" lon="0.79223">
        <ele>553.124</ele>
        <time>2019-12-09T17:55:01Z</time>
      </trkpt>
      <trkpt lat="42.97387" lon="0.79186">
        <ele>550.693</ele>
        <time>2019-12-09T17:55:21Z</time>
      </trkpt>
      <trkpt lat="42.97405" lon="0.79142">
        <ele>539.849</ele>
        <time>2019-12-09T17:55:41Z</time>
      </trkpt>
      <trkpt lat="42.9742" lon="0.79181">
        <ele>550.347</ele>
        <time>2019-12-09T17:56:01Z</time>
      </trkpt>
      <trkpt lat="42.97461" lon="0.79135">
        <ele>538.098</ele>
        <time>2019-12-09T17:56:21Z</time>
      </trkpt>
      <trkpt lat="42.97515" lon="0.79151">
        <ele>532.066</ele>
        <time>2019-12-09T17:56:41Z</time>
      </trkpt>
      <trkpt lat="42.97585" lon="0.79202">
        <ele>533.537</ele>
        <time>2019-12-09T17:57:01Z</time>
      </trkpt>
      <trkpt lat="42.97634" lon="0.79184">
        <ele>532.062</ele>
        <time>2019-12-09T17:57:21Z</time>
      </trkpt>
      <trkpt lat="42.97737" lon="0.79177">
        <ele>530.567</ele>
        <time>2019-12-09T17:57:41Z</time>
      </trkpt>
      <trkpt lat="42.97794" lon="0.79154">
        <ele>517.481</ele>
        <time>2019-12-09T17:58:01Z</time>
      </trkpt>
      <trkpt lat="42.97863" lon="0.79181">
        <ele>526.619</ele>
        <time>2019-12-09T17:58:21Z</time>
      </trkpt>
      <trkpt lat="42.97885" lon="0.79207">
        <ele>528.508</ele>
        <time>2019-12-09T17:58:41Z</time>
      </trkpt>
      <trkpt lat="42.97896" lon="0.79237">
        <ele>532.462</ele>
        <time>2019-12-09T17:59:01Z</time>
      </trkpt>
      <trkpt lat="42.97991" lon="0.7922">
        <ele>522.251</ele>
        <time>2019-12-09T17:59:21Z</time>
      </trkpt>
      <trkpt lat="42.98026" lon="0.79246">
        <ele>520.777</ele>
        <time>2019-12-09T17:59:41Z</time>
      </trkpt>
      <trkpt lat="42.98055" lon="0.79243">
        <ele>517.745</ele>
        <time>2019-12-09T18:00:01Z</time>
      </trkpt>
      <trkpt lat="42.9809" lon="0.7926">
        <ele>524.636</ele>
        <time>2019-12-09T18:00:21Z</time>
      </trkpt>
      <trkpt lat="42.98108" lon="0.7925">
        <ele>524.934</ele>
        <time>2019-12-09T18:00:41Z</time>
      </trkpt>
      <trkpt lat="42.98172" lon="0.79255">
        <ele>511.825</ele>
        <time>2019-12-09T18:01:01Z</time>
      </trkpt>
      <trkpt lat="42.98194" lon="0.79278">
        <ele>513.43</ele>
        <time>2019-12-09T18:01:21Z</time>
      </trkpt>
      <trkpt lat="42.98198" lon="0.79264">
        <ele>511.932</ele>
        <time>2019-12-09T18:01:41Z</time>
      </trkpt>
      <trkpt lat="42.98186" lon="0.79209">
        <ele>498.392</ele>
        <time>2019-12-09T18:02:01Z</time>
      </trkpt>
      <trkpt lat="42.98236" lon="0.79193">
        <ele>493.911</ele>
        <time>2019-12-09T18:02:21Z</time>
      </trkpt>
      <trkpt lat="42.98305" lon="0.79204">
        <ele>489.808</ele>
        <time>2019-12-09T18:02:41Z</time>
      </trkpt>
      <trkpt lat="42.9831" lon="0.79105">
        <ele>491.749</ele>
        <time>2019-12-09T18:03:01Z</time>
      </trkpt>
      <trkpt lat="42.98219" lon="0.79089">
        <ele>495.078</ele>
        <time>2019-12-09T18:03:21Z</time>
      </trkpt>
      <trkpt lat="42.98166" lon="0.79073">
        <ele>498.034</ele>
        <time>2019-12-09T18:03:41Z</time>
      </trkpt>
      <trkpt lat="42.98093" lon="0.79092">
        <ele>495.232</ele>
        <time>2019-12-09T18:04:01Z</time>
      </trkpt>
      <trkpt lat="42.9806" lon="0.78977">
        <ele>505.243</ele>
        <time>2019-12-09T18:04:21Z</time>
      </trkpt>
      <trkpt lat="42.98056" lon="0.78933">
        <ele>507.711</ele>
        <time>2019-12-09T18:04:41Z</time>
      </trkpt>
      <trkpt lat="42.98039" lon="0.78866">
        <ele>519.182</ele>
        <time>2019-12-09T18:05:01Z</time>
      </trkpt>
      <trkpt lat="42.98122" lon="0.78839">
        <ele>525.017</ele>
        <time>2019-12-09T18:05:21Z</time>
      </trkpt>
      <trkpt lat="42.98162" lon="0.78834">
        <ele>527.274</ele>
        <time>2019-12-09T18:05:41Z</time>
      </trkpt>
      <trkpt lat="42.98194" lon="0.78788">
        <ele>532.756</ele>
        <time>2019-12-09T18:06:01Z</time>
      </trkpt>
      <trkpt lat="42.97969" lon="0.7868">
        <ele>542.721</ele>
        <time>2019-12-09T18:06:21Z</time>
      </trkpt>
      <trkpt lat="42.97932" lon="0.78639">
        <ele>551.308</ele>
        <time>2019-12-09T18:06:41Z</time>
      </trkpt>
      <trkpt lat="42.97903" lon="0.78517">
        <ele>560.293</ele>
        <time>2019-12-09T18:07:01Z</time>
      </trkpt>
      <trkpt lat="42.97932" lon="0.78346">
        <ele>581.592</ele>
        <time>2019-12-09T18:07:21Z</time>
      </trkpt>
      <trkpt lat="42.97913" lon="0.78163">
        <ele>571.598</ele>
        <time>2019-12-09T18:07:41Z</time>
      </trkpt>
      <trkpt lat="42.9791" lon="0.77946">
        <ele>583.916</ele>
        <time>2019-12-09T18:08:01Z</time>
      </trkpt>
      <trkpt lat="42.97861" lon="0.77762">
        <ele>590.597</ele>
        <time>2019-12-09T18:08:21Z</time>
      </trkpt>
      <trkpt lat="42.97859" lon="0.77705">
        <ele>590.325</ele>
        <time>2019-12-09T18:08:41Z</time>
      </trkpt>
      <trkpt lat="42.97836" lon="0.77585">
        <ele>592.536</ele>
        <time>2019-12-09T18:09:01Z</time>
      </trkpt>
      <trkpt lat="42.97843" lon="0.77502">
        <ele>597.921</ele>
        <time>2019-12-09T18:09:21Z</time>
      </trkpt>
      <trkpt lat="42.97833" lon="0.7741">
        <ele>602.648</ele>
        <time>2019-12-09T18:09:41Z</time>
      </trkpt>
      <trkpt lat="42.97866" lon="0.77309">
        <ele>603.861</ele>
        <time>2019-12-09T18:10:01Z</time>
      </trkpt>
      <trkpt lat="42.97816" lon="0.77045">
        <ele>610.517</ele>
        <time>2019-12-09T18:10:21Z</time>
      </trkpt>
      <trkpt lat="42.97777" lon="0.77036">
        <ele>612.908</ele>
        <time>2019-12-09T18:10:41Z</time>
      </trkpt>
      <trkpt lat="42.97764" lon="0.76967">
        <ele>611.76</ele>
        <time>2019-12-09T18:11:01Z</time>
      </trkpt>
      <trkpt lat="42.9776" lon="0.76865">
        <ele>607.049</ele>
        <time>2019-12-09T18:11:21Z</time>
      </trkpt>
      <trkpt lat="42.97748" lon="0.76808">
        <ele>615.915</ele>
        <time>2019-12-09T18:11:41Z</time>
      </trkpt>
      <trkpt lat="42.97752" lon="0.76688">
        <ele>600.053</ele>
        <time>2019-12-09T18:12:01Z</time>
      </trkpt>
      <trkpt lat="42.97735" lon="0.7661">
        <ele>610.244</ele>
        <time>2019-12-09T18:12:21Z</time>
      </trkpt>
      <trkpt lat="42.97745" lon="0.76484">
        <ele>602.462</ele>
        <time>2019-12-09T18:12:41Z</time>
      </trkpt>
      <trkpt lat="42.97737" lon="0.76401">
        <ele>604.073</ele>
        <time>2019-12-09T18:13:01Z</time>
      </trkpt>
      <trkpt lat="42.97703" lon="0.76279">
        <ele>604.568</ele>
        <time>2019-12-09T18:13:21Z</time>
      </trkpt>
      <trkpt lat="42.97706" lon="0.7613">
        <ele>599.924</ele>
        <time>2019-12-09T18:13:41Z</time>
      </trkpt>
      <trkpt lat="42.97689" lon="0.76049">
        <ele>599.004</ele>
        <time>2019-12-09T18:14:01Z</time>
      </trkpt>
      <trkpt lat="42.97684" lon="0.75973">
        <ele>598.214</ele>
        <time>2019-12-09T18:14:21Z</time>
      </trkpt>
      <trkpt lat="42.97732" lon="0.75803">
        <ele>592.708</ele>
        <time>2019-12-09T18:14:41Z</time>
      </trkpt>
      <trkpt lat="42.9774" lon="0.75729">
        <ele>589.138</ele>
        <time>2019-12-09T18:15:01Z</time>
      </trkpt>
      <trkpt lat="42.97721" lon="0.75651">
        <ele>588.257</ele>
        <time>2019-12-09T18:15:21Z</time>
      </trkpt>
      <trkpt lat="42.97732" lon="0.75589">
        <ele>587.733</ele>
        <time>2019-12-09T18:15:41Z</time>
      </trkpt>
      <trkpt lat="42.97772" lon="0.7546">
        <ele>582.911</ele>
        <time>2019-12-09T18:16:01Z</time>
      </trkpt>
      <trkpt lat="42.97785" lon="0.75371">
        <ele>581.892</ele>
        <time>2019-12-09T18:16:21Z</time>
      </trkpt>
      <trkpt lat="42.97812" lon="0.75276">
        <ele>576.67</ele>
        <time>2019-12-09T18:16:41Z</time>
      </trkpt>
      <trkpt lat="42.97833" lon="0.75246">
        <ele>574.651</ele>
        <time>2019-12-09T18:17:01Z</time>
      </trkpt>
      <trkpt lat="42.97896" lon="0.75164">
        <ele>580.386</ele>
        <time>2019-12-09T18:17:21Z</time>
      </trkpt>
      <trkpt lat="42.97917" lon="0.75099">
        <ele>581.238</ele>
        <time>2019-12-09T18:17:41Z</time>
      </trkpt>
      <trkpt lat="42.9791" lon="0.7492">
        <ele>574.37</ele>
        <time>2019-12-09T18:18:01Z</time>
      </trkpt>
      <trkpt lat="42.97942" lon="0.74786">
        <ele>581.417</ele>
        <time>2019-12-09T18:18:21Z</time>
      </trkpt>
      <trkpt lat="42.97977" lon="0.74754">
        <ele>583.108</ele>
        <time>2019-12-09T18:18:41Z</time>
      </trkpt>
      <trkpt lat="42.98013" lon="0.74665">
        <ele>586.199</ele>
        <time>2019-12-09T18:19:01Z</time>
      </trkpt>
      <trkpt lat="42.98046" lon="0.74554">
        <ele>584.938</ele>
        <time>2019-12-09T18:19:21Z</time>
      </trkpt>
      <trkpt lat="42.98076" lon="0.74529">
        <ele>584.174</ele>
        <time>2019-12-09T18:19:41Z</time>
      </trkpt>
      <trkpt lat="42.98167" lon="0.74506">
        <ele>575.482</ele>
        <time>2019-12-09T18:20:01Z</time>
      </trkpt>
      <trkpt lat="42.98275" lon="0.74524">
        <ele>563.593</ele>
        <time>2019-12-09T18:20:21Z</time>
      </trkpt>
      <trkpt lat="42.98327" lon="0.74504">
        <ele>561.191</ele>
        <time>2019-12-09T18:20:41Z</time>
      </trkpt>
      <trkpt lat="42.98362" lon="0.74462">
        <ele>556.452</ele>
        <time>2019-12-09T18:21:01Z</time>
      </trkpt>
      <trkpt lat="42.98527" lon="0.74156">
        <ele>541.147</ele>
        <time>2019-12-09T18:21:21Z</time>
      </trkpt>
      <trkpt lat="42.98551" lon="0.74044">
        <ele>529.324</ele>
        <time>2019-12-09T18:21:41Z</time>
      </trkpt>
      <trkpt lat="42.98574" lon="0.74046">
        <ele>530.404</ele>
        <time>2019-12-09T18:22:01Z</time>
      </trkpt>
      <trkpt lat="42.98628" lon="0.74126">
        <ele>532.714</ele>
        <time>2019-12-09T18:22:21Z</time>
      </trkpt>
      <trkpt lat="42.98669" lon="0.74085">
        <ele>527.808</ele>
        <time>2019-12-09T18:22:41Z</time>
      </trkpt>
      <trkpt lat="42.98699" lon="0.74097">
        <ele>518.718</ele>
        <time>2019-12-09T18:23:01Z</time>
      </trkpt>
      <trkpt lat="42.98723" lon="0.74133">
        <ele>514.717</ele>
        <time>2019-12-09T18:23:21Z</time>
      </trkpt>
      <trkpt lat="42.98748" lon="0.74143">
        <ele>511.863</ele>
        <time>2019-12-09T18:23:41Z</time>
      </trkpt>
      <trkpt lat="42.98756" lon="0.74051">
        <ele>497.811</ele>
        <time>2019-12-09T18:24:01Z</time>
      </trkpt>
      <trkpt lat="42.98741" lon="0.74011">
        <ele>503.552</ele>
        <time>2019-12-09T18:24:21Z</time>
      </trkpt>
      <trkpt lat="42.98706" lon="0.73975">
        <ele>499.51</ele>
        <time>2019-12-09T18:24:41Z</time>
      </trkpt>
      <trkpt lat="42.98652" lon="0.73758">
        <ele>494.711</ele>
        <time>2019-12-09T18:25:01Z</time>
      </trkpt>
      <trkpt lat="42.98593" lon="0.73735">
        <ele>499.146</ele>
        <time>2019-12-09T18:25:21Z</time>
      </trkpt>
      <trkpt lat="42.98591" lon="0.73692">
        <ele>500.137</ele>
        <time>2019-12-09T18:25:41Z</time>
      </trkpt>
      <trkpt lat="42.98576" lon="0.73586">
        <ele>511.849</ele>
        <time>2019-12-09T18:26:01Z</time>
      </trkpt>
      <trkpt lat="42.9858" lon="0.73494">
        <ele>530.813</ele>
        <time>2019-12-09T18:26:21Z</time>
      </trkpt>
      <trkpt lat="42.98578" lon="0.7345">
        <ele>530.508</ele>
        <time>2019-12-09T18:26:41Z</time>
      </trkpt>
      <trkpt lat="42.98601" lon="0.73413">
        <ele>554.189</ele>
        <time>2019-12-09T18:27:01Z</time>
      </trkpt>
      <trkpt lat="42.98591" lon="0.73342">
        <ele>556.438</ele>
        <time>2019-12-09T18:27:21Z</time>
      </trkpt>
      <trkpt lat="42.9861" lon="0.7331">
        <ele>564.444</ele>
        <time>2019-12-09T18:27:41Z</time>
      </trkpt>
      <trkpt lat="42.98608" lon="0.73243">
        <ele>561.792</ele>
        <time>2019-12-09T18:28:01Z</time>
      </trkpt>
      <trkpt lat="42.98628" lon="0.73142">
        <ele>563.553</ele>
        <time>2019-12-09T18:28:21Z</time>
      </trkpt>
      <trkpt lat="42.98615" lon="0.73096">
        <ele>561.661</ele>
        <time>2019-12-09T18:28:41Z</time>
      </trkpt>
      <trkpt lat="42.98657" lon="0.7297">
        <ele>578.542</ele>
        <time>2019-12-09T18:29:01Z</time>
      </trkpt>
      <trkpt lat="42.98665" lon="0.72859">
        <ele>594.937</ele>
        <time>2019-12-09T18:29:21Z</time>
      </trkpt>
      <trkpt lat="42.98679" lon="0.72862">
        <ele>602.665</ele>
        <time>2019-12-09T18:29:41Z</time>
      </trkpt>
      <trkpt lat="42.98692" lon="0.72954">
        <ele>595.368</ele>
        <time>2019-12-09T18:30:01Z</time>
      </trkpt>
      <trkpt lat="42.98744" lon="0.72993">
        <ele>601.014</ele>
        <time>2019-12-09T18:30:21Z</time>
      </trkpt>
      <trkpt lat="42.98738" lon="0.72901">
        <ele>606.208</ele>
        <time>2019-12-09T18:30:41Z</time>
      </trkpt>
      <trkpt lat="42.98744" lon="0.72839">
        <ele>610.722</ele>
        <time>2019-12-09T18:31:01Z</time>
      </trkpt>
      <trkpt lat="42.98763" lon="0.72776">
        <ele>605.451</ele>
        <time>2019-12-09T18:31:21Z</time>
      </trkpt>
      <trkpt lat="42.98751" lon="0.72726">
        <ele>606.787</ele>
        <time>2019-12-09T18:31:41Z</time>
      </trkpt>
      <trkpt lat="42.98717" lon="0.72714">
        <ele>617.955</ele>
        <time>2019-12-09T18:32:01Z</time>
      </trkpt>
      <trkpt lat="42.9868" lon="0.72712">
        <ele>618.616</ele>
        <time>2019-12-09T18:32:21Z</time>
      </trkpt>
      <trkpt lat="42.98662" lon="0.72684">
        <ele>620.314</ele>
        <time>2019-12-09T18:32:41Z</time>
      </trkpt>
      <trkpt lat="42.9865" lon="0.72556">
        <ele>632.195</ele>
        <time>2019-12-09T18:33:01Z</time>
      </trkpt>
      <trkpt lat="42.98667" lon="0.72487">
        <ele>646.15</ele>
        <time>2019-12-09T18:33:21Z</time>
      </trkpt>
      <trkpt lat="42.98706" lon="0.72383">
        <ele>654.396</ele>
        <time>2019-12-09T18:33:41Z</time>
      </trkpt>
      <trkpt lat="42.98748" lon="0.72344">
        <ele>659.431</ele>
        <time>2019-12-09T18:34:01Z</time>
      </trkpt>
      <trkpt lat="42.98783" lon="0.72273">
        <ele>656.124</ele>
        <time>2019-12-09T18:34:21Z</time>
      </trkpt>
      <trkpt lat="42.9882" lon="0.72084">
        <ele>671.408</ele>
        <time>2019-12-09T18:34:41Z</time>
      </trkpt>
      <trkpt lat="42.98852" lon="0.71953">
        <ele>678.045</ele>
        <time>2019-12-09T18:35:01Z</time>
      </trkpt>
      <trkpt lat="42.98889" lon="0.71921">
        <ele>677.224</ele>
        <time>2019-12-09T18:35:21Z</time>
      </trkpt>
      <trkpt lat="42.98928" lon="0.71836">
        <ele>683.63</ele>
        <time>2019-12-09T18:35:41Z</time>
      </trkpt>
      <trkpt lat="42.98978" lon="0.71583">
        <ele>694.148</ele>
        <time>2019-12-09T18:36:01Z</time>
      </trkpt>
      <trkpt lat="42.98971" lon="0.71502">
        <ele>697.339</ele>
        <time>2019-12-09T18:36:21Z</time>
      </trkpt>
      <trkpt lat="42.98943" lon="0.71422">
        <ele>705.297</ele>
        <time>2019-12-09T18:36:41Z</time>
      </trkpt>
      <trkpt lat="42.98926" lon="0.71265">
        <ele>708.928</ele>
        <time>2019-12-09T18:37:01Z</time>
      </trkpt>
      <trkpt lat="42.98978" lon="0.71118">
        <ele>714.113</ele>
        <time>2019-12-09T18:37:21Z</time>
      </trkpt>
      <trkpt lat="42.9901" lon="0.70939">
        <ele>699.743</ele>
        <time>2019-12-09T18:37:41Z</time>
      </trkpt>
      <trkpt lat="42.99056" lon="0.70838">
        <ele>709.064</ele>
        <time>2019-12-09T18:38:01Z</time>
      </trkpt>
      <trkpt lat="42.99098" lon="0.70612">
        <ele>724.81</ele>
        <time>2019-12-09T18:38:21Z</time>
      </trkpt>
      <trkpt lat="42.99141" lon="0.70403">
        <ele>751.908</ele>
        <time>2019-12-09T18:38:41Z</time>
      </trkpt>
      <trkpt lat="42.99173" lon="0.7038">
        <ele>745.14</ele>
        <time>2019-12-09T18:39:01Z</time>
      </trkpt>
      <trkpt lat="42.99195" lon="0.70364">
        <ele>746.499</ele>
        <time>2019-12-09T18:39:21Z</time>
      </trkpt>
      <trkpt lat="42.99204" lon="0.70295">
        <ele>755.595</ele>
        <time>2019-12-09T18:39:41Z</time>
      </trkpt>
      <trkpt lat="42.9917" lon="0.70297">
        <ele>754.873</ele>
        <time>2019-12-09T18:40:01Z</time>
      </trkpt>
      <trkpt lat="42.9916" lon="0.70109">
        <ele>784.214</ele>
        <time>2019-12-09T18:40:21Z</time>
      </trkpt>
      <trkpt lat="42.99143" lon="0.69936">
        <ele>797.142</ele>
        <time>2019-12-09T18:40:41Z</time>
      </trkpt>
      <trkpt lat="42.99138" lon="0.69619">
        <ele>809.553</ele>
        <time>2019-12-09T18:41:01Z</time>
      </trkpt>
      <trkpt lat="42.99089" lon="0.69387">
        <ele>811.388</ele>
        <time>2019-12-09T18:41:21Z</time>
      </trkpt>
      <trkpt lat="42.99046" lon="0.69324">
        <ele>803.045</ele>
        <time>2019-12-09T18:41:41Z</time>
      </trkpt>
      <trkpt lat="42.99044" lon="0.69258">
        <ele>799.747</ele>
        <time>2019-12-09T18:42:01Z</time>
      </trkpt>
      <trkpt lat="42.98956" lon="0.69235">
        <ele>784.611</ele>
        <time>2019-12-09T18:42:21Z</time>
      </trkpt>
      <trkpt lat="42.98931" lon="0.69186">
        <ele>782.708</ele>
        <time>2019-12-09T18:42:41Z</time>
      </trkpt>
      <trkpt lat="42.98876" lon="0.68954">
        <ele>770.28</ele>
        <time>2019-12-09T18:43:01Z</time>
      </trkpt>
      <trkpt lat="42.98786" lon="0.68805">
        <ele>756.289</ele>
        <time>2019-12-09T18:43:21Z</time>
      </trkpt>
      <trkpt lat="42.98751" lon="0.68591">
        <ele>731.795</ele>
        <time>2019-12-09T18:43:41Z</time>
      </trkpt>
      <trkpt lat="42.9867" lon="0.68248">
        <ele>696.273</ele>
        <time>2019-12-09T18:44:01Z</time>
      </trkpt>
      <trkpt lat="42.98632" lon="0.68117">
        <ele>683.734</ele>
        <time>2019-12-09T18:44:21Z</time>
      </trkpt>
      <trkpt lat="42.98548" lon="0.68037">
        <ele>686.592</ele>
        <time>2019-12-09T18:44:41Z</time>
      </trkpt>
      <trkpt lat="42.98492" lon="0.67924">
        <ele>672.863</ele>
        <time>2019-12-09T18:45:01Z</time>
      </trkpt>
      <trkpt lat="42.98435" lon="0.67869">
        <ele>663.628</ele>
        <time>2019-12-09T18:45:21Z</time>
      </trkpt>
      <trkpt lat="42.98361" lon="0.67747">
        <ele>653.349</ele>
        <time>2019-12-09T18:45:41Z</time>
      </trkpt>
      <trkpt lat="42.98416" lon="0.6762">
        <ele>636.302</ele>
        <time>2019-12-09T18:46:01Z</time>
      </trkpt>
      <trkpt lat="42.98437" lon="0.67485">
        <ele>614.722</ele>
        <time>2019-12-09T18:46:21Z</time>
      </trkpt>
      <trkpt lat="42.98448" lon="0.67278">
        <ele>599.808</ele>
        <time>2019-12-09T18:46:41Z</time>
      </trkpt>
      <trkpt lat="42.98462" lon="0.67216">
        <ele>599.68</ele>
        <time>2019-12-09T18:47:01Z</time>
      </trkpt>
      <trkpt lat="42.98462" lon="0.67179">
        <ele>599.899</ele>
        <time>2019-12-09T18:47:21Z</time>
      </trkpt>
      <trkpt lat="42.98411" lon="0.67107">
        <ele>599.175</ele>
        <time>2019-12-09T18:47:41Z</time>
      </trkpt>
      <trkpt lat="42.98376" lon="0.67073">
        <ele>600.133</ele>
        <time>2019-12-09T18:48:01Z</time>
      </trkpt>
      <trkpt lat="42.98425" lon="0.67002">
        <ele>606.874</ele>
        <time>2019-12-09T18:48:21Z</time>
      </trkpt>
      <trkpt lat="42.98445" lon="0.66951">
        <ele>606.412</ele>
        <time>2019-12-09T18:48:41Z</time>
      </trkpt>
      <trkpt lat="42.98465" lon="0.6699">
        <ele>606.973</ele>
        <time>2019-12-09T18:49:01Z</time>
      </trkpt>
      <trkpt lat="42.98489" lon="0.67002">
        <ele>607.518</ele>
        <time>2019-12-09T18:49:21Z</time>
      </trkpt>
      <trkpt lat="42.98544" lon="0.67096">
        <ele>607.319</ele>
        <time>2019-12-09T18:49:41Z</time>
      </trkpt>
      <trkpt lat="42.9862" lon="0.67133">
        <ele>609.409</ele>
        <time>2019-12-09T18:50:01Z</time>
      </trkpt>
      <trkpt lat="42.9866" lon="0.67197">
        <ele>604.919</ele>
        <time>2019-12-09T18:50:21Z</time>
      </trkpt>
      <trkpt lat="42.98702" lon="0.67232">
        <ele>607.108</ele>
        <time>2019-12-09T18:50:41Z</time>
      </trkpt>
      <trkpt lat="42.98899" lon="0.67202">
        <ele>616.767</ele>
        <time>2019-12-09T18:51:01Z</time>
      </trkpt>
      <trkpt lat="42.98965" lon="0.67243">
        <ele>625.026</ele>
        <time>2019-12-09T18:51:21Z</time>
      </trkpt>
      <trkpt lat="42.99046" lon="0.67411">
        <ele>612.272</ele>
        <time>2019-12-09T18:51:41Z</time>
      </trkpt>
      <trkpt lat="42.99155" lon="0.67429">
        <ele>616.37</ele>
        <time>2019-12-09T18:52:01Z</time>
      </trkpt>
      <trkpt lat="42.99168" lon="0.67424">
        <ele>618.311</ele>
        <time>2019-12-09T18:52:21Z</time>
      </trkpt>
      <trkpt lat="42.99188" lon="0.67441">
        <ele>618.819</ele>
        <time>2019-12-09T18:52:41Z</time>
      </trkpt>
      <trkpt lat="42.99209" lon="0.67426">
        <ele>616.65</ele>
        <time>2019-12-09T18:53:01Z</time>
      </trkpt>
      <trkpt lat="42.99215" lon="0.67395">
        <ele>614.475</ele>
        <time>2019-12-09T18:53:21Z</time>
      </trkpt>
      <trkpt lat="42.99237" lon="0.67375">
        <ele>613.317</ele>
        <time>2019-12-09T18:53:41Z</time>
      </trkpt>
      <trkpt lat="42.9923" lon="0.67416">
        <ele>610.387</ele>
        <time>2019-12-09T18:54:01Z</time>
      </trkpt>
      <trkpt lat="42.99237" lon="0.67426">
        <ele>611.215</ele>
        <time>2019-12-09T18:54:21Z</time>
      </trkpt>
      <trkpt lat="42.99261" lon="0.67414">
        <ele>599.908</ele>
        <time>2019-12-09T18:54:41Z</time>
      </trkpt>
      <trkpt lat="42.99285" lon="0.67424">
        <ele>605.477</ele>
        <time>2019-12-09T18:55:01Z</time>
      </trkpt>
      <trkpt lat="42.99328" lon="0.67382">
        <ele>590.126</ele>
        <time>2019-12-09T18:55:21Z</time>
      </trkpt>
      <trkpt lat="42.9939" lon="0.67367">
        <ele>571.062</ele>
        <time>2019-12-09T18:55:41Z</time>
      </trkpt>
      <trkpt lat="42.99449" lon="0.67366">
        <ele>556.07</ele>
        <time>2019-12-09T18:56:01Z</time>
      </trkpt>
      <trkpt lat="42.99526" lon="0.67388">
        <ele>545.691</ele>
        <time>2019-12-09T18:56:21Z</time>
      </trkpt>
      <trkpt lat="42.9957" lon="0.67418">
        <ele>547.179</ele>
        <time>2019-12-09T18:56:41Z</time>
      </trkpt>
      <trkpt lat="42.99615" lon="0.67462">
        <ele>542.82</ele>
        <time>2019-12-09T18:57:01Z</time>
      </trkpt>
      <trkpt lat="42.99713" lon="0.67347">
        <ele>534.865</ele>
        <time>2019-12-09T18:57:21Z</time>
      </trkpt>
      <trkpt lat="42.99804" lon="0.67294">
        <ele>533.971</ele>
        <time>2019-12-09T18:57:41Z</time>
      </trkpt>
      <trkpt lat="42.99907" lon="0.67259">
        <ele>537.341</ele>
        <time>2019-12-09T18:58:01Z</time>
      </trkpt>
      <trkpt lat="42.99939" lon="0.67275">
        <ele>538.515</ele>
        <time>2019-12-09T18:58:21Z</time>
      </trkpt>
      <trkpt lat="42.99967" lon="0.67278">
        <ele>539.108</ele>
        <time>2019-12-09T18:58:41Z</time>
      </trkpt>
      <trkpt lat="42.99982" lon="0.67289">
        <ele>539.193</ele>
        <time>2019-12-09T18:59:01Z</time>
      </trkpt>
    </trkseg>
  </trk>
</gpx>